<?xml version="1.0" encoding="UTF-8" standalone="no" ?>
<gpx xmlns="http://www.topografix.com/GPX/1/1" xmlns:xsi="http://www.w3.org/2001/XMLSchema-instance" xsi:schemaLocation="http://www.topografix.com/GPX/1/1 http://www.topografix.com/GPX/1/1/gpx.xsd" version="1.1" creator="VisuGPX - https://www.visugpx.com">
  <metadata>
    <name>Sortie autour de Nueil</name>
    <desc><![CDATA[sortie du 24 avril 2016]]></desc>
  </metadata>
  <trk>
    <name><![CDATA[Tracé 24 avr. 2016 08:30:12]]></name>
    <trkseg>
      <trkpt lat="46.93719" lon="-0.58912">
        <ele>157</ele>
        <time>2016-04-24T06:30:12Z</time>
      </trkpt>
      <trkpt lat="46.93713" lon="-0.58912">
        <ele>156</ele>
        <time>2016-04-24T06:33:09Z</time>
      </trkpt>
      <trkpt lat="46.937" lon="-0.58919">
        <ele>140</ele>
        <time>2016-04-24T06:33:13Z</time>
      </trkpt>
      <trkpt lat="46.93702" lon="-0.58907">
        <ele>133</ele>
        <time>2016-04-24T06:34:01Z</time>
      </trkpt>
      <trkpt lat="46.93714" lon="-0.58907">
        <ele>133</ele>
        <time>2016-04-24T06:34:05Z</time>
      </trkpt>
      <trkpt lat="46.9373" lon="-0.58903">
        <ele>131</ele>
        <time>2016-04-24T06:34:09Z</time>
      </trkpt>
      <trkpt lat="46.93748" lon="-0.58896">
        <ele>129</ele>
        <time>2016-04-24T06:34:14Z</time>
      </trkpt>
      <trkpt lat="46.93762" lon="-0.58885">
        <ele>128</ele>
        <time>2016-04-24T06:34:18Z</time>
      </trkpt>
      <trkpt lat="46.93771" lon="-0.58881">
        <ele>128</ele>
        <time>2016-04-24T06:34:20Z</time>
      </trkpt>
      <trkpt lat="46.93787" lon="-0.58872">
        <ele>129</ele>
        <time>2016-04-24T06:34:24Z</time>
      </trkpt>
      <trkpt lat="46.93803" lon="-0.58857">
        <ele>129</ele>
        <time>2016-04-24T06:34:28Z</time>
      </trkpt>
      <trkpt lat="46.93819" lon="-0.58845">
        <ele>127</ele>
        <time>2016-04-24T06:34:32Z</time>
      </trkpt>
      <trkpt lat="46.93838" lon="-0.58831">
        <ele>124</ele>
        <time>2016-04-24T06:34:37Z</time>
      </trkpt>
      <trkpt lat="46.93856" lon="-0.58816">
        <ele>122</ele>
        <time>2016-04-24T06:34:41Z</time>
      </trkpt>
      <trkpt lat="46.93874" lon="-0.58798">
        <ele>121</ele>
        <time>2016-04-24T06:34:45Z</time>
      </trkpt>
      <trkpt lat="46.93891" lon="-0.5878">
        <ele>120</ele>
        <time>2016-04-24T06:34:49Z</time>
      </trkpt>
      <trkpt lat="46.93901" lon="-0.58753">
        <ele>120</ele>
        <time>2016-04-24T06:34:54Z</time>
      </trkpt>
      <trkpt lat="46.93924" lon="-0.58744">
        <ele>120</ele>
        <time>2016-04-24T06:34:58Z</time>
      </trkpt>
      <trkpt lat="46.9394" lon="-0.58717">
        <ele>119</ele>
        <time>2016-04-24T06:35:02Z</time>
      </trkpt>
      <trkpt lat="46.93963" lon="-0.5868">
        <ele>117</ele>
        <time>2016-04-24T06:35:07Z</time>
      </trkpt>
      <trkpt lat="46.93993" lon="-0.58637">
        <ele>114</ele>
        <time>2016-04-24T06:35:12Z</time>
      </trkpt>
      <trkpt lat="46.94014" lon="-0.58608">
        <ele>111</ele>
        <time>2016-04-24T06:35:16Z</time>
      </trkpt>
      <trkpt lat="46.94042" lon="-0.58582">
        <ele>110</ele>
        <time>2016-04-24T06:35:21Z</time>
      </trkpt>
      <trkpt lat="46.94063" lon="-0.58553">
        <ele>112</ele>
        <time>2016-04-24T06:35:25Z</time>
      </trkpt>
      <trkpt lat="46.94086" lon="-0.58542">
        <ele>113</ele>
        <time>2016-04-24T06:35:29Z</time>
      </trkpt>
      <trkpt lat="46.941" lon="-0.58575">
        <ele>116</ele>
        <time>2016-04-24T06:35:33Z</time>
      </trkpt>
      <trkpt lat="46.94098" lon="-0.58615">
        <ele>117</ele>
        <time>2016-04-24T06:35:37Z</time>
      </trkpt>
      <trkpt lat="46.94098" lon="-0.58643">
        <ele>119</ele>
        <time>2016-04-24T06:35:40Z</time>
      </trkpt>
      <trkpt lat="46.94096" lon="-0.58687">
        <ele>121</ele>
        <time>2016-04-24T06:35:45Z</time>
      </trkpt>
      <trkpt lat="46.94096" lon="-0.5871">
        <ele>122</ele>
        <time>2016-04-24T06:35:48Z</time>
      </trkpt>
      <trkpt lat="46.94096" lon="-0.58743">
        <ele>122</ele>
        <time>2016-04-24T06:35:52Z</time>
      </trkpt>
      <trkpt lat="46.94094" lon="-0.58773">
        <ele>124</ele>
        <time>2016-04-24T06:35:56Z</time>
      </trkpt>
      <trkpt lat="46.94093" lon="-0.58806">
        <ele>124</ele>
        <time>2016-04-24T06:36:00Z</time>
      </trkpt>
      <trkpt lat="46.94092" lon="-0.58835">
        <ele>125</ele>
        <time>2016-04-24T06:36:04Z</time>
      </trkpt>
      <trkpt lat="46.9409" lon="-0.58861">
        <ele>126</ele>
        <time>2016-04-24T06:36:08Z</time>
      </trkpt>
      <trkpt lat="46.94091" lon="-0.58884">
        <ele>125</ele>
        <time>2016-04-24T06:36:12Z</time>
      </trkpt>
      <trkpt lat="46.94107" lon="-0.58889">
        <ele>124</ele>
        <time>2016-04-24T06:36:16Z</time>
      </trkpt>
      <trkpt lat="46.94123" lon="-0.58883">
        <ele>123</ele>
        <time>2016-04-24T06:36:20Z</time>
      </trkpt>
      <trkpt lat="46.94125" lon="-0.58895">
        <ele>126</ele>
        <time>2016-04-24T06:44:32Z</time>
      </trkpt>
      <trkpt lat="46.94118" lon="-0.58889">
        <ele>125</ele>
        <time>2016-04-24T06:46:30Z</time>
      </trkpt>
      <trkpt lat="46.9411" lon="-0.5889">
        <ele>127</ele>
        <time>2016-04-24T06:46:34Z</time>
      </trkpt>
      <trkpt lat="46.94101" lon="-0.58893">
        <ele>128</ele>
        <time>2016-04-24T06:46:39Z</time>
      </trkpt>
      <trkpt lat="46.94093" lon="-0.58892">
        <ele>127</ele>
        <time>2016-04-24T06:46:43Z</time>
      </trkpt>
      <trkpt lat="46.94088" lon="-0.58884">
        <ele>124</ele>
        <time>2016-04-24T06:46:47Z</time>
      </trkpt>
      <trkpt lat="46.94087" lon="-0.58874">
        <ele>121</ele>
        <time>2016-04-24T06:46:51Z</time>
      </trkpt>
      <trkpt lat="46.94087" lon="-0.58863">
        <ele>119</ele>
        <time>2016-04-24T06:46:55Z</time>
      </trkpt>
      <trkpt lat="46.94089" lon="-0.58848">
        <ele>118</ele>
        <time>2016-04-24T06:46:59Z</time>
      </trkpt>
      <trkpt lat="46.9409" lon="-0.58829">
        <ele>116</ele>
        <time>2016-04-24T06:47:03Z</time>
      </trkpt>
      <trkpt lat="46.94092" lon="-0.58808">
        <ele>114</ele>
        <time>2016-04-24T06:47:07Z</time>
      </trkpt>
      <trkpt lat="46.94093" lon="-0.58787">
        <ele>113</ele>
        <time>2016-04-24T06:47:11Z</time>
      </trkpt>
      <trkpt lat="46.94093" lon="-0.58767">
        <ele>112</ele>
        <time>2016-04-24T06:47:15Z</time>
      </trkpt>
      <trkpt lat="46.94094" lon="-0.58747">
        <ele>110</ele>
        <time>2016-04-24T06:47:19Z</time>
      </trkpt>
      <trkpt lat="46.94095" lon="-0.5873">
        <ele>109</ele>
        <time>2016-04-24T06:47:23Z</time>
      </trkpt>
      <trkpt lat="46.94095" lon="-0.58712">
        <ele>108</ele>
        <time>2016-04-24T06:47:27Z</time>
      </trkpt>
      <trkpt lat="46.94095" lon="-0.58693">
        <ele>109</ele>
        <time>2016-04-24T06:47:31Z</time>
      </trkpt>
      <trkpt lat="46.94095" lon="-0.58671">
        <ele>108</ele>
        <time>2016-04-24T06:47:35Z</time>
      </trkpt>
      <trkpt lat="46.94096" lon="-0.5864">
        <ele>109</ele>
        <time>2016-04-24T06:47:40Z</time>
      </trkpt>
      <trkpt lat="46.94096" lon="-0.58614">
        <ele>109</ele>
        <time>2016-04-24T06:47:44Z</time>
      </trkpt>
      <trkpt lat="46.94096" lon="-0.58587">
        <ele>109</ele>
        <time>2016-04-24T06:47:48Z</time>
      </trkpt>
      <trkpt lat="46.94095" lon="-0.58562">
        <ele>109</ele>
        <time>2016-04-24T06:47:52Z</time>
      </trkpt>
      <trkpt lat="46.94082" lon="-0.58548">
        <ele>111</ele>
        <time>2016-04-24T06:47:56Z</time>
      </trkpt>
      <trkpt lat="46.94069" lon="-0.58558">
        <ele>114</ele>
        <time>2016-04-24T06:48:00Z</time>
      </trkpt>
      <trkpt lat="46.94057" lon="-0.58569">
        <ele>116</ele>
        <time>2016-04-24T06:48:04Z</time>
      </trkpt>
      <trkpt lat="46.94042" lon="-0.58585">
        <ele>118</ele>
        <time>2016-04-24T06:48:09Z</time>
      </trkpt>
      <trkpt lat="46.94031" lon="-0.58597">
        <ele>119</ele>
        <time>2016-04-24T06:48:13Z</time>
      </trkpt>
      <trkpt lat="46.94019" lon="-0.5861">
        <ele>120</ele>
        <time>2016-04-24T06:48:17Z</time>
      </trkpt>
      <trkpt lat="46.94008" lon="-0.58621">
        <ele>120</ele>
        <time>2016-04-24T06:48:21Z</time>
      </trkpt>
      <trkpt lat="46.93997" lon="-0.58633">
        <ele>119</ele>
        <time>2016-04-24T06:48:25Z</time>
      </trkpt>
      <trkpt lat="46.93982" lon="-0.58649">
        <ele>117</ele>
        <time>2016-04-24T06:48:29Z</time>
      </trkpt>
      <trkpt lat="46.93971" lon="-0.5865">
        <ele>117</ele>
        <time>2016-04-24T06:48:33Z</time>
      </trkpt>
      <trkpt lat="46.93967" lon="-0.58639">
        <ele>115</ele>
        <time>2016-04-24T06:48:38Z</time>
      </trkpt>
      <trkpt lat="46.93963" lon="-0.58618">
        <ele>112</ele>
        <time>2016-04-24T06:48:42Z</time>
      </trkpt>
      <trkpt lat="46.93958" lon="-0.58602">
        <ele>111</ele>
        <time>2016-04-24T06:48:46Z</time>
      </trkpt>
      <trkpt lat="46.93952" lon="-0.58576">
        <ele>111</ele>
        <time>2016-04-24T06:48:51Z</time>
      </trkpt>
      <trkpt lat="46.93941" lon="-0.5854">
        <ele>114</ele>
        <time>2016-04-24T06:48:56Z</time>
      </trkpt>
      <trkpt lat="46.93932" lon="-0.58513">
        <ele>115</ele>
        <time>2016-04-24T06:49:00Z</time>
      </trkpt>
      <trkpt lat="46.93923" lon="-0.58485">
        <ele>116</ele>
        <time>2016-04-24T06:49:04Z</time>
      </trkpt>
      <trkpt lat="46.93914" lon="-0.58462">
        <ele>118</ele>
        <time>2016-04-24T06:49:08Z</time>
      </trkpt>
      <trkpt lat="46.93905" lon="-0.58442">
        <ele>117</ele>
        <time>2016-04-24T06:49:12Z</time>
      </trkpt>
      <trkpt lat="46.93897" lon="-0.58418">
        <ele>115</ele>
        <time>2016-04-24T06:49:16Z</time>
      </trkpt>
      <trkpt lat="46.9389" lon="-0.58387">
        <ele>113</ele>
        <time>2016-04-24T06:49:20Z</time>
      </trkpt>
      <trkpt lat="46.9388" lon="-0.58357">
        <ele>111</ele>
        <time>2016-04-24T06:49:24Z</time>
      </trkpt>
      <trkpt lat="46.93872" lon="-0.58336">
        <ele>109</ele>
        <time>2016-04-24T06:49:27Z</time>
      </trkpt>
      <trkpt lat="46.93862" lon="-0.58307">
        <ele>106</ele>
        <time>2016-04-24T06:49:31Z</time>
      </trkpt>
      <trkpt lat="46.93852" lon="-0.58278">
        <ele>105</ele>
        <time>2016-04-24T06:49:35Z</time>
      </trkpt>
      <trkpt lat="46.9384" lon="-0.58249">
        <ele>104</ele>
        <time>2016-04-24T06:49:39Z</time>
      </trkpt>
      <trkpt lat="46.93832" lon="-0.58221">
        <ele>105</ele>
        <time>2016-04-24T06:49:43Z</time>
      </trkpt>
      <trkpt lat="46.93821" lon="-0.58196">
        <ele>107</ele>
        <time>2016-04-24T06:49:47Z</time>
      </trkpt>
      <trkpt lat="46.93811" lon="-0.58169">
        <ele>108</ele>
        <time>2016-04-24T06:49:51Z</time>
      </trkpt>
      <trkpt lat="46.93796" lon="-0.58134">
        <ele>110</ele>
        <time>2016-04-24T06:49:56Z</time>
      </trkpt>
      <trkpt lat="46.93783" lon="-0.58105">
        <ele>110</ele>
        <time>2016-04-24T06:50:00Z</time>
      </trkpt>
      <trkpt lat="46.9377" lon="-0.58079">
        <ele>108</ele>
        <time>2016-04-24T06:50:04Z</time>
      </trkpt>
      <trkpt lat="46.93761" lon="-0.58053">
        <ele>107</ele>
        <time>2016-04-24T06:50:08Z</time>
      </trkpt>
      <trkpt lat="46.93749" lon="-0.58019">
        <ele>105</ele>
        <time>2016-04-24T06:50:13Z</time>
      </trkpt>
      <trkpt lat="46.93737" lon="-0.5799">
        <ele>103</ele>
        <time>2016-04-24T06:50:17Z</time>
      </trkpt>
      <trkpt lat="46.93724" lon="-0.57955">
        <ele>103</ele>
        <time>2016-04-24T06:50:22Z</time>
      </trkpt>
      <trkpt lat="46.93712" lon="-0.57927">
        <ele>104</ele>
        <time>2016-04-24T06:50:26Z</time>
      </trkpt>
      <trkpt lat="46.937" lon="-0.57898">
        <ele>104</ele>
        <time>2016-04-24T06:50:30Z</time>
      </trkpt>
      <trkpt lat="46.93685" lon="-0.57862">
        <ele>103</ele>
        <time>2016-04-24T06:50:35Z</time>
      </trkpt>
      <trkpt lat="46.93674" lon="-0.57834">
        <ele>103</ele>
        <time>2016-04-24T06:50:39Z</time>
      </trkpt>
      <trkpt lat="46.93659" lon="-0.578">
        <ele>105</ele>
        <time>2016-04-24T06:50:44Z</time>
      </trkpt>
      <trkpt lat="46.93648" lon="-0.5777">
        <ele>104</ele>
        <time>2016-04-24T06:50:48Z</time>
      </trkpt>
      <trkpt lat="46.9364" lon="-0.57736">
        <ele>102</ele>
        <time>2016-04-24T06:50:52Z</time>
      </trkpt>
      <trkpt lat="46.93628" lon="-0.57706">
        <ele>103</ele>
        <time>2016-04-24T06:50:56Z</time>
      </trkpt>
      <trkpt lat="46.9362" lon="-0.57675">
        <ele>99</ele>
        <time>2016-04-24T06:51:00Z</time>
      </trkpt>
      <trkpt lat="46.93609" lon="-0.57645">
        <ele>101</ele>
        <time>2016-04-24T06:51:04Z</time>
      </trkpt>
      <trkpt lat="46.936" lon="-0.57614">
        <ele>101</ele>
        <time>2016-04-24T06:51:08Z</time>
      </trkpt>
      <trkpt lat="46.93591" lon="-0.57587">
        <ele>105</ele>
        <time>2016-04-24T06:51:12Z</time>
      </trkpt>
      <trkpt lat="46.93582" lon="-0.57559">
        <ele>103</ele>
        <time>2016-04-24T06:51:16Z</time>
      </trkpt>
      <trkpt lat="46.93575" lon="-0.5753">
        <ele>105</ele>
        <time>2016-04-24T06:51:20Z</time>
      </trkpt>
      <trkpt lat="46.93569" lon="-0.57492">
        <ele>104</ele>
        <time>2016-04-24T06:51:25Z</time>
      </trkpt>
      <trkpt lat="46.93561" lon="-0.57466">
        <ele>103</ele>
        <time>2016-04-24T06:51:29Z</time>
      </trkpt>
      <trkpt lat="46.93554" lon="-0.57438">
        <ele>104</ele>
        <time>2016-04-24T06:51:33Z</time>
      </trkpt>
      <trkpt lat="46.93545" lon="-0.5741">
        <ele>106</ele>
        <time>2016-04-24T06:51:37Z</time>
      </trkpt>
      <trkpt lat="46.93539" lon="-0.57383">
        <ele>107</ele>
        <time>2016-04-24T06:51:41Z</time>
      </trkpt>
      <trkpt lat="46.93533" lon="-0.57356">
        <ele>108</ele>
        <time>2016-04-24T06:51:45Z</time>
      </trkpt>
      <trkpt lat="46.93527" lon="-0.57326">
        <ele>110</ele>
        <time>2016-04-24T06:51:49Z</time>
      </trkpt>
      <trkpt lat="46.93521" lon="-0.57296">
        <ele>109</ele>
        <time>2016-04-24T06:51:53Z</time>
      </trkpt>
      <trkpt lat="46.93514" lon="-0.57269">
        <ele>109</ele>
        <time>2016-04-24T06:51:57Z</time>
      </trkpt>
      <trkpt lat="46.93507" lon="-0.57246">
        <ele>109</ele>
        <time>2016-04-24T06:52:01Z</time>
      </trkpt>
      <trkpt lat="46.93501" lon="-0.57216">
        <ele>108</ele>
        <time>2016-04-24T06:52:05Z</time>
      </trkpt>
      <trkpt lat="46.93495" lon="-0.5719">
        <ele>109</ele>
        <time>2016-04-24T06:52:09Z</time>
      </trkpt>
      <trkpt lat="46.93489" lon="-0.57161">
        <ele>108</ele>
        <time>2016-04-24T06:52:13Z</time>
      </trkpt>
      <trkpt lat="46.93485" lon="-0.57134">
        <ele>107</ele>
        <time>2016-04-24T06:52:17Z</time>
      </trkpt>
      <trkpt lat="46.93478" lon="-0.57107">
        <ele>107</ele>
        <time>2016-04-24T06:52:21Z</time>
      </trkpt>
      <trkpt lat="46.93471" lon="-0.57083">
        <ele>109</ele>
        <time>2016-04-24T06:52:25Z</time>
      </trkpt>
      <trkpt lat="46.93466" lon="-0.57063">
        <ele>109</ele>
        <time>2016-04-24T06:52:29Z</time>
      </trkpt>
      <trkpt lat="46.93462" lon="-0.57052">
        <ele>111</ele>
        <time>2016-04-24T06:52:33Z</time>
      </trkpt>
      <trkpt lat="46.93447" lon="-0.57057">
        <ele>113</ele>
        <time>2016-04-24T06:52:38Z</time>
      </trkpt>
      <trkpt lat="46.93433" lon="-0.57057">
        <ele>112</ele>
        <time>2016-04-24T06:52:42Z</time>
      </trkpt>
      <trkpt lat="46.9342" lon="-0.57053">
        <ele>113</ele>
        <time>2016-04-24T06:52:46Z</time>
      </trkpt>
      <trkpt lat="46.93407" lon="-0.57046">
        <ele>114</ele>
        <time>2016-04-24T06:52:50Z</time>
      </trkpt>
      <trkpt lat="46.93392" lon="-0.57039">
        <ele>115</ele>
        <time>2016-04-24T06:52:54Z</time>
      </trkpt>
      <trkpt lat="46.93377" lon="-0.57041">
        <ele>116</ele>
        <time>2016-04-24T06:52:58Z</time>
      </trkpt>
      <trkpt lat="46.93361" lon="-0.57043">
        <ele>117</ele>
        <time>2016-04-24T06:53:02Z</time>
      </trkpt>
      <trkpt lat="46.93343" lon="-0.57043">
        <ele>116</ele>
        <time>2016-04-24T06:53:06Z</time>
      </trkpt>
      <trkpt lat="46.93327" lon="-0.57041">
        <ele>117</ele>
        <time>2016-04-24T06:53:10Z</time>
      </trkpt>
      <trkpt lat="46.9331" lon="-0.57043">
        <ele>118</ele>
        <time>2016-04-24T06:53:14Z</time>
      </trkpt>
      <trkpt lat="46.93292" lon="-0.5705">
        <ele>119</ele>
        <time>2016-04-24T06:53:18Z</time>
      </trkpt>
      <trkpt lat="46.93276" lon="-0.57057">
        <ele>117</ele>
        <time>2016-04-24T06:53:22Z</time>
      </trkpt>
      <trkpt lat="46.93253" lon="-0.57064">
        <ele>117</ele>
        <time>2016-04-24T06:53:26Z</time>
      </trkpt>
      <trkpt lat="46.93231" lon="-0.5705">
        <ele>115</ele>
        <time>2016-04-24T06:53:30Z</time>
      </trkpt>
      <trkpt lat="46.93218" lon="-0.57017">
        <ele>113</ele>
        <time>2016-04-24T06:53:34Z</time>
      </trkpt>
      <trkpt lat="46.93211" lon="-0.57002">
        <ele>109</ele>
        <time>2016-04-24T06:53:38Z</time>
      </trkpt>
      <trkpt lat="46.93203" lon="-0.57005">
        <ele>110</ele>
        <time>2016-04-24T06:53:42Z</time>
      </trkpt>
      <trkpt lat="46.9319" lon="-0.57021">
        <ele>108</ele>
        <time>2016-04-24T06:53:46Z</time>
      </trkpt>
      <trkpt lat="46.93175" lon="-0.57041">
        <ele>108</ele>
        <time>2016-04-24T06:53:51Z</time>
      </trkpt>
      <trkpt lat="46.93162" lon="-0.57056">
        <ele>107</ele>
        <time>2016-04-24T06:53:55Z</time>
      </trkpt>
      <trkpt lat="46.93151" lon="-0.57071">
        <ele>109</ele>
        <time>2016-04-24T06:53:59Z</time>
      </trkpt>
      <trkpt lat="46.93138" lon="-0.57085">
        <ele>108</ele>
        <time>2016-04-24T06:54:03Z</time>
      </trkpt>
      <trkpt lat="46.93126" lon="-0.57099">
        <ele>108</ele>
        <time>2016-04-24T06:54:07Z</time>
      </trkpt>
      <trkpt lat="46.93112" lon="-0.5711">
        <ele>108</ele>
        <time>2016-04-24T06:54:11Z</time>
      </trkpt>
      <trkpt lat="46.93098" lon="-0.57119">
        <ele>109</ele>
        <time>2016-04-24T06:54:15Z</time>
      </trkpt>
      <trkpt lat="46.93085" lon="-0.57128">
        <ele>113</ele>
        <time>2016-04-24T06:54:19Z</time>
      </trkpt>
      <trkpt lat="46.93073" lon="-0.57137">
        <ele>114</ele>
        <time>2016-04-24T06:54:23Z</time>
      </trkpt>
      <trkpt lat="46.9306" lon="-0.5715">
        <ele>114</ele>
        <time>2016-04-24T06:54:27Z</time>
      </trkpt>
      <trkpt lat="46.9304" lon="-0.57163">
        <ele>111</ele>
        <time>2016-04-24T06:54:32Z</time>
      </trkpt>
      <trkpt lat="46.93025" lon="-0.57174">
        <ele>111</ele>
        <time>2016-04-24T06:54:36Z</time>
      </trkpt>
      <trkpt lat="46.9301" lon="-0.57183">
        <ele>113</ele>
        <time>2016-04-24T06:54:40Z</time>
      </trkpt>
      <trkpt lat="46.92996" lon="-0.57191">
        <ele>115</ele>
        <time>2016-04-24T06:54:44Z</time>
      </trkpt>
      <trkpt lat="46.92983" lon="-0.57199">
        <ele>117</ele>
        <time>2016-04-24T06:54:48Z</time>
      </trkpt>
      <trkpt lat="46.92965" lon="-0.57207">
        <ele>119</ele>
        <time>2016-04-24T06:54:52Z</time>
      </trkpt>
      <trkpt lat="46.9295" lon="-0.57214">
        <ele>118</ele>
        <time>2016-04-24T06:54:56Z</time>
      </trkpt>
      <trkpt lat="46.92936" lon="-0.57216">
        <ele>121</ele>
        <time>2016-04-24T06:55:01Z</time>
      </trkpt>
      <trkpt lat="46.92925" lon="-0.57225">
        <ele>123</ele>
        <time>2016-04-24T06:55:05Z</time>
      </trkpt>
      <trkpt lat="46.92915" lon="-0.57237">
        <ele>124</ele>
        <time>2016-04-24T06:55:09Z</time>
      </trkpt>
      <trkpt lat="46.92905" lon="-0.5725">
        <ele>125</ele>
        <time>2016-04-24T06:55:13Z</time>
      </trkpt>
      <trkpt lat="46.92892" lon="-0.57264">
        <ele>124</ele>
        <time>2016-04-24T06:55:17Z</time>
      </trkpt>
      <trkpt lat="46.92882" lon="-0.57277">
        <ele>125</ele>
        <time>2016-04-24T06:55:21Z</time>
      </trkpt>
      <trkpt lat="46.92873" lon="-0.5729">
        <ele>125</ele>
        <time>2016-04-24T06:55:25Z</time>
      </trkpt>
      <trkpt lat="46.92863" lon="-0.57305">
        <ele>126</ele>
        <time>2016-04-24T06:55:29Z</time>
      </trkpt>
      <trkpt lat="46.92853" lon="-0.57319">
        <ele>127</ele>
        <time>2016-04-24T06:55:33Z</time>
      </trkpt>
      <trkpt lat="46.92845" lon="-0.57332">
        <ele>127</ele>
        <time>2016-04-24T06:55:37Z</time>
      </trkpt>
      <trkpt lat="46.92835" lon="-0.57343">
        <ele>127</ele>
        <time>2016-04-24T06:55:41Z</time>
      </trkpt>
      <trkpt lat="46.9282" lon="-0.57356">
        <ele>127</ele>
        <time>2016-04-24T06:55:46Z</time>
      </trkpt>
      <trkpt lat="46.92807" lon="-0.57365">
        <ele>127</ele>
        <time>2016-04-24T06:55:50Z</time>
      </trkpt>
      <trkpt lat="46.92794" lon="-0.57373">
        <ele>127</ele>
        <time>2016-04-24T06:55:54Z</time>
      </trkpt>
      <trkpt lat="46.92776" lon="-0.57384">
        <ele>127</ele>
        <time>2016-04-24T06:55:59Z</time>
      </trkpt>
      <trkpt lat="46.92761" lon="-0.57391">
        <ele>127</ele>
        <time>2016-04-24T06:56:03Z</time>
      </trkpt>
      <trkpt lat="46.92748" lon="-0.57399">
        <ele>127</ele>
        <time>2016-04-24T06:56:07Z</time>
      </trkpt>
      <trkpt lat="46.92734" lon="-0.57405">
        <ele>128</ele>
        <time>2016-04-24T06:56:11Z</time>
      </trkpt>
      <trkpt lat="46.92718" lon="-0.57413">
        <ele>129</ele>
        <time>2016-04-24T06:56:16Z</time>
      </trkpt>
      <trkpt lat="46.92706" lon="-0.57419">
        <ele>129</ele>
        <time>2016-04-24T06:56:20Z</time>
      </trkpt>
      <trkpt lat="46.92696" lon="-0.57423">
        <ele>130</ele>
        <time>2016-04-24T06:56:24Z</time>
      </trkpt>
      <trkpt lat="46.92683" lon="-0.57429">
        <ele>130</ele>
        <time>2016-04-24T06:56:28Z</time>
      </trkpt>
      <trkpt lat="46.92669" lon="-0.57437">
        <ele>130</ele>
        <time>2016-04-24T06:56:32Z</time>
      </trkpt>
      <trkpt lat="46.92654" lon="-0.57454">
        <ele>131</ele>
        <time>2016-04-24T06:56:37Z</time>
      </trkpt>
      <trkpt lat="46.92649" lon="-0.57464">
        <ele>130</ele>
        <time>2016-04-24T06:56:41Z</time>
      </trkpt>
      <trkpt lat="46.92654" lon="-0.57455">
        <ele>126</ele>
        <time>2016-04-24T06:57:10Z</time>
      </trkpt>
      <trkpt lat="46.92663" lon="-0.57444">
        <ele>125</ele>
        <time>2016-04-24T06:57:14Z</time>
      </trkpt>
      <trkpt lat="46.92671" lon="-0.57434">
        <ele>125</ele>
        <time>2016-04-24T06:57:18Z</time>
      </trkpt>
      <trkpt lat="46.92684" lon="-0.57426">
        <ele>125</ele>
        <time>2016-04-24T06:57:22Z</time>
      </trkpt>
      <trkpt lat="46.92696" lon="-0.57421">
        <ele>125</ele>
        <time>2016-04-24T06:57:26Z</time>
      </trkpt>
      <trkpt lat="46.92711" lon="-0.57413">
        <ele>123</ele>
        <time>2016-04-24T06:57:31Z</time>
      </trkpt>
      <trkpt lat="46.9272" lon="-0.57407">
        <ele>124</ele>
        <time>2016-04-24T06:57:35Z</time>
      </trkpt>
      <trkpt lat="46.92714" lon="-0.57409">
        <ele>129</ele>
        <time>2016-04-24T07:09:41Z</time>
      </trkpt>
      <trkpt lat="46.92706" lon="-0.57414">
        <ele>128</ele>
        <time>2016-04-24T07:09:45Z</time>
      </trkpt>
      <trkpt lat="46.92694" lon="-0.57421">
        <ele>129</ele>
        <time>2016-04-24T07:09:49Z</time>
      </trkpt>
      <trkpt lat="46.9268" lon="-0.57428">
        <ele>129</ele>
        <time>2016-04-24T07:09:53Z</time>
      </trkpt>
      <trkpt lat="46.92665" lon="-0.57438">
        <ele>129</ele>
        <time>2016-04-24T07:09:57Z</time>
      </trkpt>
      <trkpt lat="46.92651" lon="-0.57454">
        <ele>128</ele>
        <time>2016-04-24T07:10:01Z</time>
      </trkpt>
      <trkpt lat="46.92644" lon="-0.57472">
        <ele>127</ele>
        <time>2016-04-24T07:10:05Z</time>
      </trkpt>
      <trkpt lat="46.9263" lon="-0.57478">
        <ele>125</ele>
        <time>2016-04-24T07:10:09Z</time>
      </trkpt>
      <trkpt lat="46.92615" lon="-0.57471">
        <ele>124</ele>
        <time>2016-04-24T07:10:13Z</time>
      </trkpt>
      <trkpt lat="46.926" lon="-0.57466">
        <ele>125</ele>
        <time>2016-04-24T07:10:17Z</time>
      </trkpt>
      <trkpt lat="46.92587" lon="-0.57456">
        <ele>124</ele>
        <time>2016-04-24T07:10:21Z</time>
      </trkpt>
      <trkpt lat="46.92574" lon="-0.57446">
        <ele>123</ele>
        <time>2016-04-24T07:10:25Z</time>
      </trkpt>
      <trkpt lat="46.92558" lon="-0.5743">
        <ele>123</ele>
        <time>2016-04-24T07:10:30Z</time>
      </trkpt>
      <trkpt lat="46.92546" lon="-0.57419">
        <ele>123</ele>
        <time>2016-04-24T07:10:34Z</time>
      </trkpt>
      <trkpt lat="46.92535" lon="-0.57435">
        <ele>126</ele>
        <time>2016-04-24T07:10:39Z</time>
      </trkpt>
      <trkpt lat="46.92525" lon="-0.57455">
        <ele>125</ele>
        <time>2016-04-24T07:10:43Z</time>
      </trkpt>
      <trkpt lat="46.92518" lon="-0.57469">
        <ele>124</ele>
        <time>2016-04-24T07:10:47Z</time>
      </trkpt>
      <trkpt lat="46.92508" lon="-0.57492">
        <ele>125</ele>
        <time>2016-04-24T07:10:52Z</time>
      </trkpt>
      <trkpt lat="46.925" lon="-0.57509">
        <ele>126</ele>
        <time>2016-04-24T07:10:56Z</time>
      </trkpt>
      <trkpt lat="46.92489" lon="-0.5753">
        <ele>127</ele>
        <time>2016-04-24T07:11:01Z</time>
      </trkpt>
      <trkpt lat="46.9248" lon="-0.57534">
        <ele>125</ele>
        <time>2016-04-24T07:11:05Z</time>
      </trkpt>
      <trkpt lat="46.92467" lon="-0.57537">
        <ele>126</ele>
        <time>2016-04-24T07:11:09Z</time>
      </trkpt>
      <trkpt lat="46.92453" lon="-0.57541">
        <ele>126</ele>
        <time>2016-04-24T07:11:13Z</time>
      </trkpt>
      <trkpt lat="46.92435" lon="-0.57546">
        <ele>126</ele>
        <time>2016-04-24T07:11:18Z</time>
      </trkpt>
      <trkpt lat="46.92421" lon="-0.5755">
        <ele>125</ele>
        <time>2016-04-24T07:11:22Z</time>
      </trkpt>
      <trkpt lat="46.92411" lon="-0.57565">
        <ele>125</ele>
        <time>2016-04-24T07:11:26Z</time>
      </trkpt>
      <trkpt lat="46.92405" lon="-0.57584">
        <ele>124</ele>
        <time>2016-04-24T07:11:30Z</time>
      </trkpt>
      <trkpt lat="46.92398" lon="-0.57608">
        <ele>125</ele>
        <time>2016-04-24T07:11:35Z</time>
      </trkpt>
      <trkpt lat="46.92395" lon="-0.57627">
        <ele>124</ele>
        <time>2016-04-24T07:11:39Z</time>
      </trkpt>
      <trkpt lat="46.92392" lon="-0.57642">
        <ele>124</ele>
        <time>2016-04-24T07:11:42Z</time>
      </trkpt>
      <trkpt lat="46.92389" lon="-0.57663">
        <ele>127</ele>
        <time>2016-04-24T07:11:46Z</time>
      </trkpt>
      <trkpt lat="46.92387" lon="-0.57682">
        <ele>127</ele>
        <time>2016-04-24T07:11:50Z</time>
      </trkpt>
      <trkpt lat="46.92384" lon="-0.577">
        <ele>127</ele>
        <time>2016-04-24T07:11:54Z</time>
      </trkpt>
      <trkpt lat="46.9238" lon="-0.57719">
        <ele>129</ele>
        <time>2016-04-24T07:11:58Z</time>
      </trkpt>
      <trkpt lat="46.92371" lon="-0.57732">
        <ele>132</ele>
        <time>2016-04-24T07:12:02Z</time>
      </trkpt>
      <trkpt lat="46.92363" lon="-0.57744">
        <ele>133</ele>
        <time>2016-04-24T07:12:06Z</time>
      </trkpt>
      <trkpt lat="46.92354" lon="-0.57759">
        <ele>133</ele>
        <time>2016-04-24T07:12:10Z</time>
      </trkpt>
      <trkpt lat="46.92347" lon="-0.57771">
        <ele>133</ele>
        <time>2016-04-24T07:12:14Z</time>
      </trkpt>
      <trkpt lat="46.92356" lon="-0.5778">
        <ele>134</ele>
        <time>2016-04-24T07:12:18Z</time>
      </trkpt>
      <trkpt lat="46.92368" lon="-0.57788">
        <ele>134</ele>
        <time>2016-04-24T07:12:22Z</time>
      </trkpt>
      <trkpt lat="46.92381" lon="-0.57794">
        <ele>134</ele>
        <time>2016-04-24T07:12:26Z</time>
      </trkpt>
      <trkpt lat="46.92393" lon="-0.57802">
        <ele>135</ele>
        <time>2016-04-24T07:12:30Z</time>
      </trkpt>
      <trkpt lat="46.92405" lon="-0.5781">
        <ele>134</ele>
        <time>2016-04-24T07:12:34Z</time>
      </trkpt>
      <trkpt lat="46.9242" lon="-0.5782">
        <ele>134</ele>
        <time>2016-04-24T07:12:39Z</time>
      </trkpt>
      <trkpt lat="46.92435" lon="-0.57829">
        <ele>137</ele>
        <time>2016-04-24T07:12:44Z</time>
      </trkpt>
      <trkpt lat="46.92446" lon="-0.57838">
        <ele>135</ele>
        <time>2016-04-24T07:12:48Z</time>
      </trkpt>
      <trkpt lat="46.92458" lon="-0.57845">
        <ele>135</ele>
        <time>2016-04-24T07:12:52Z</time>
      </trkpt>
      <trkpt lat="46.92467" lon="-0.57854">
        <ele>137</ele>
        <time>2016-04-24T07:12:56Z</time>
      </trkpt>
      <trkpt lat="46.92467" lon="-0.57867">
        <ele>137</ele>
        <time>2016-04-24T07:13:01Z</time>
      </trkpt>
      <trkpt lat="46.92461" lon="-0.57878">
        <ele>136</ele>
        <time>2016-04-24T07:13:05Z</time>
      </trkpt>
      <trkpt lat="46.92455" lon="-0.57891">
        <ele>136</ele>
        <time>2016-04-24T07:13:09Z</time>
      </trkpt>
      <trkpt lat="46.92448" lon="-0.57902">
        <ele>137</ele>
        <time>2016-04-24T07:13:13Z</time>
      </trkpt>
      <trkpt lat="46.9244" lon="-0.57914">
        <ele>137</ele>
        <time>2016-04-24T07:13:17Z</time>
      </trkpt>
      <trkpt lat="46.92431" lon="-0.57928">
        <ele>135</ele>
        <time>2016-04-24T07:13:21Z</time>
      </trkpt>
      <trkpt lat="46.92424" lon="-0.5794">
        <ele>135</ele>
        <time>2016-04-24T07:13:25Z</time>
      </trkpt>
      <trkpt lat="46.92418" lon="-0.57954">
        <ele>137</ele>
        <time>2016-04-24T07:13:29Z</time>
      </trkpt>
      <trkpt lat="46.92412" lon="-0.57967">
        <ele>138</ele>
        <time>2016-04-24T07:13:33Z</time>
      </trkpt>
      <trkpt lat="46.92408" lon="-0.57982">
        <ele>138</ele>
        <time>2016-04-24T07:13:37Z</time>
      </trkpt>
      <trkpt lat="46.92401" lon="-0.57998">
        <ele>138</ele>
        <time>2016-04-24T07:13:41Z</time>
      </trkpt>
      <trkpt lat="46.92396" lon="-0.58015">
        <ele>138</ele>
        <time>2016-04-24T07:13:45Z</time>
      </trkpt>
      <trkpt lat="46.92391" lon="-0.58033">
        <ele>137</ele>
        <time>2016-04-24T07:13:49Z</time>
      </trkpt>
      <trkpt lat="46.92386" lon="-0.58054">
        <ele>135</ele>
        <time>2016-04-24T07:13:54Z</time>
      </trkpt>
      <trkpt lat="46.9238" lon="-0.58068">
        <ele>138</ele>
        <time>2016-04-24T07:13:58Z</time>
      </trkpt>
      <trkpt lat="46.92372" lon="-0.58086">
        <ele>141</ele>
        <time>2016-04-24T07:14:03Z</time>
      </trkpt>
      <trkpt lat="46.92364" lon="-0.58099">
        <ele>142</ele>
        <time>2016-04-24T07:14:07Z</time>
      </trkpt>
      <trkpt lat="46.92355" lon="-0.58111">
        <ele>143</ele>
        <time>2016-04-24T07:14:11Z</time>
      </trkpt>
      <trkpt lat="46.92347" lon="-0.58125">
        <ele>145</ele>
        <time>2016-04-24T07:14:15Z</time>
      </trkpt>
      <trkpt lat="46.92338" lon="-0.58139">
        <ele>145</ele>
        <time>2016-04-24T07:14:19Z</time>
      </trkpt>
      <trkpt lat="46.92328" lon="-0.58154">
        <ele>144</ele>
        <time>2016-04-24T07:14:23Z</time>
      </trkpt>
      <trkpt lat="46.92316" lon="-0.58169">
        <ele>143</ele>
        <time>2016-04-24T07:14:27Z</time>
      </trkpt>
      <trkpt lat="46.92305" lon="-0.58186">
        <ele>144</ele>
        <time>2016-04-24T07:14:31Z</time>
      </trkpt>
      <trkpt lat="46.92292" lon="-0.58208">
        <ele>145</ele>
        <time>2016-04-24T07:14:36Z</time>
      </trkpt>
      <trkpt lat="46.92285" lon="-0.58229">
        <ele>145</ele>
        <time>2016-04-24T07:14:40Z</time>
      </trkpt>
      <trkpt lat="46.92279" lon="-0.58251">
        <ele>146</ele>
        <time>2016-04-24T07:14:44Z</time>
      </trkpt>
      <trkpt lat="46.92273" lon="-0.58271">
        <ele>145</ele>
        <time>2016-04-24T07:14:48Z</time>
      </trkpt>
      <trkpt lat="46.92267" lon="-0.58292">
        <ele>145</ele>
        <time>2016-04-24T07:14:52Z</time>
      </trkpt>
      <trkpt lat="46.92261" lon="-0.58313">
        <ele>146</ele>
        <time>2016-04-24T07:14:56Z</time>
      </trkpt>
      <trkpt lat="46.92253" lon="-0.58334">
        <ele>148</ele>
        <time>2016-04-24T07:15:00Z</time>
      </trkpt>
      <trkpt lat="46.92247" lon="-0.58357">
        <ele>147</ele>
        <time>2016-04-24T07:15:04Z</time>
      </trkpt>
      <trkpt lat="46.92238" lon="-0.58382">
        <ele>148</ele>
        <time>2016-04-24T07:15:09Z</time>
      </trkpt>
      <trkpt lat="46.92231" lon="-0.58403">
        <ele>148</ele>
        <time>2016-04-24T07:15:13Z</time>
      </trkpt>
      <trkpt lat="46.92221" lon="-0.58421">
        <ele>149</ele>
        <time>2016-04-24T07:15:17Z</time>
      </trkpt>
      <trkpt lat="46.92212" lon="-0.58437">
        <ele>148</ele>
        <time>2016-04-24T07:15:21Z</time>
      </trkpt>
      <trkpt lat="46.92203" lon="-0.58454">
        <ele>146</ele>
        <time>2016-04-24T07:15:25Z</time>
      </trkpt>
      <trkpt lat="46.92193" lon="-0.58458">
        <ele>146</ele>
        <time>2016-04-24T07:15:29Z</time>
      </trkpt>
      <trkpt lat="46.92183" lon="-0.58445">
        <ele>145</ele>
        <time>2016-04-24T07:15:33Z</time>
      </trkpt>
      <trkpt lat="46.92171" lon="-0.58431">
        <ele>146</ele>
        <time>2016-04-24T07:15:37Z</time>
      </trkpt>
      <trkpt lat="46.92158" lon="-0.58418">
        <ele>146</ele>
        <time>2016-04-24T07:15:41Z</time>
      </trkpt>
      <trkpt lat="46.92143" lon="-0.58404">
        <ele>146</ele>
        <time>2016-04-24T07:15:46Z</time>
      </trkpt>
      <trkpt lat="46.92131" lon="-0.58396">
        <ele>147</ele>
        <time>2016-04-24T07:15:50Z</time>
      </trkpt>
      <trkpt lat="46.92119" lon="-0.5838">
        <ele>150</ele>
        <time>2016-04-24T07:15:55Z</time>
      </trkpt>
      <trkpt lat="46.92109" lon="-0.58372">
        <ele>149</ele>
        <time>2016-04-24T07:15:58Z</time>
      </trkpt>
      <trkpt lat="46.92094" lon="-0.58361">
        <ele>149</ele>
        <time>2016-04-24T07:16:02Z</time>
      </trkpt>
      <trkpt lat="46.9208" lon="-0.58356">
        <ele>147</ele>
        <time>2016-04-24T07:16:06Z</time>
      </trkpt>
      <trkpt lat="46.92067" lon="-0.58349">
        <ele>147</ele>
        <time>2016-04-24T07:16:10Z</time>
      </trkpt>
      <trkpt lat="46.92051" lon="-0.58346">
        <ele>146</ele>
        <time>2016-04-24T07:16:14Z</time>
      </trkpt>
      <trkpt lat="46.92036" lon="-0.58337">
        <ele>147</ele>
        <time>2016-04-24T07:16:18Z</time>
      </trkpt>
      <trkpt lat="46.92024" lon="-0.5833">
        <ele>151</ele>
        <time>2016-04-24T07:16:22Z</time>
      </trkpt>
      <trkpt lat="46.9201" lon="-0.58323">
        <ele>152</ele>
        <time>2016-04-24T07:16:26Z</time>
      </trkpt>
      <trkpt lat="46.91995" lon="-0.58316">
        <ele>154</ele>
        <time>2016-04-24T07:16:30Z</time>
      </trkpt>
      <trkpt lat="46.91983" lon="-0.58303">
        <ele>154</ele>
        <time>2016-04-24T07:16:34Z</time>
      </trkpt>
      <trkpt lat="46.91967" lon="-0.58291">
        <ele>152</ele>
        <time>2016-04-24T07:16:38Z</time>
      </trkpt>
      <trkpt lat="46.91954" lon="-0.58277">
        <ele>150</ele>
        <time>2016-04-24T07:16:42Z</time>
      </trkpt>
      <trkpt lat="46.91939" lon="-0.58266">
        <ele>151</ele>
        <time>2016-04-24T07:16:46Z</time>
      </trkpt>
      <trkpt lat="46.91926" lon="-0.58252">
        <ele>152</ele>
        <time>2016-04-24T07:16:50Z</time>
      </trkpt>
      <trkpt lat="46.91911" lon="-0.58239">
        <ele>154</ele>
        <time>2016-04-24T07:16:54Z</time>
      </trkpt>
      <trkpt lat="46.91897" lon="-0.58228">
        <ele>155</ele>
        <time>2016-04-24T07:16:58Z</time>
      </trkpt>
      <trkpt lat="46.91882" lon="-0.58216">
        <ele>154</ele>
        <time>2016-04-24T07:17:02Z</time>
      </trkpt>
      <trkpt lat="46.91868" lon="-0.582">
        <ele>150</ele>
        <time>2016-04-24T07:17:06Z</time>
      </trkpt>
      <trkpt lat="46.91855" lon="-0.58183">
        <ele>149</ele>
        <time>2016-04-24T07:17:10Z</time>
      </trkpt>
      <trkpt lat="46.9184" lon="-0.58169">
        <ele>151</ele>
        <time>2016-04-24T07:17:14Z</time>
      </trkpt>
      <trkpt lat="46.91825" lon="-0.58158">
        <ele>151</ele>
        <time>2016-04-24T07:17:18Z</time>
      </trkpt>
      <trkpt lat="46.91811" lon="-0.5815">
        <ele>157</ele>
        <time>2016-04-24T07:17:22Z</time>
      </trkpt>
      <trkpt lat="46.91798" lon="-0.58142">
        <ele>158</ele>
        <time>2016-04-24T07:17:26Z</time>
      </trkpt>
      <trkpt lat="46.91787" lon="-0.58136">
        <ele>157</ele>
        <time>2016-04-24T07:17:29Z</time>
      </trkpt>
      <trkpt lat="46.91775" lon="-0.58129">
        <ele>162</ele>
        <time>2016-04-24T07:17:33Z</time>
      </trkpt>
      <trkpt lat="46.91762" lon="-0.58127">
        <ele>161</ele>
        <time>2016-04-24T07:17:37Z</time>
      </trkpt>
      <trkpt lat="46.91743" lon="-0.58138">
        <ele>161</ele>
        <time>2016-04-24T07:17:42Z</time>
      </trkpt>
      <trkpt lat="46.91729" lon="-0.58139">
        <ele>163</ele>
        <time>2016-04-24T07:17:46Z</time>
      </trkpt>
      <trkpt lat="46.91714" lon="-0.58136">
        <ele>163</ele>
        <time>2016-04-24T07:17:50Z</time>
      </trkpt>
      <trkpt lat="46.91701" lon="-0.58137">
        <ele>163</ele>
        <time>2016-04-24T07:17:54Z</time>
      </trkpt>
      <trkpt lat="46.91687" lon="-0.58139">
        <ele>164</ele>
        <time>2016-04-24T07:17:58Z</time>
      </trkpt>
      <trkpt lat="46.91671" lon="-0.58143">
        <ele>163</ele>
        <time>2016-04-24T07:18:02Z</time>
      </trkpt>
      <trkpt lat="46.91659" lon="-0.58142">
        <ele>162</ele>
        <time>2016-04-24T07:18:06Z</time>
      </trkpt>
      <trkpt lat="46.91647" lon="-0.58144">
        <ele>161</ele>
        <time>2016-04-24T07:18:10Z</time>
      </trkpt>
      <trkpt lat="46.91635" lon="-0.58144">
        <ele>160</ele>
        <time>2016-04-24T07:18:14Z</time>
      </trkpt>
      <trkpt lat="46.91621" lon="-0.58146">
        <ele>160</ele>
        <time>2016-04-24T07:18:18Z</time>
      </trkpt>
      <trkpt lat="46.91609" lon="-0.58147">
        <ele>161</ele>
        <time>2016-04-24T07:18:22Z</time>
      </trkpt>
      <trkpt lat="46.91596" lon="-0.58148">
        <ele>161</ele>
        <time>2016-04-24T07:18:26Z</time>
      </trkpt>
      <trkpt lat="46.91585" lon="-0.58148">
        <ele>161</ele>
        <time>2016-04-24T07:18:30Z</time>
      </trkpt>
      <trkpt lat="46.91573" lon="-0.58148">
        <ele>162</ele>
        <time>2016-04-24T07:18:34Z</time>
      </trkpt>
      <trkpt lat="46.91557" lon="-0.58151">
        <ele>164</ele>
        <time>2016-04-24T07:18:39Z</time>
      </trkpt>
      <trkpt lat="46.91545" lon="-0.58153">
        <ele>165</ele>
        <time>2016-04-24T07:18:43Z</time>
      </trkpt>
      <trkpt lat="46.91532" lon="-0.58161">
        <ele>166</ele>
        <time>2016-04-24T07:18:47Z</time>
      </trkpt>
      <trkpt lat="46.9152" lon="-0.58171">
        <ele>166</ele>
        <time>2016-04-24T07:18:51Z</time>
      </trkpt>
      <trkpt lat="46.91506" lon="-0.58185">
        <ele>161</ele>
        <time>2016-04-24T07:18:55Z</time>
      </trkpt>
      <trkpt lat="46.91494" lon="-0.58195">
        <ele>162</ele>
        <time>2016-04-24T07:18:59Z</time>
      </trkpt>
      <trkpt lat="46.91482" lon="-0.58203">
        <ele>163</ele>
        <time>2016-04-24T07:19:03Z</time>
      </trkpt>
      <trkpt lat="46.9147" lon="-0.58211">
        <ele>163</ele>
        <time>2016-04-24T07:19:08Z</time>
      </trkpt>
      <trkpt lat="46.9146" lon="-0.58217">
        <ele>165</ele>
        <time>2016-04-24T07:19:12Z</time>
      </trkpt>
      <trkpt lat="46.9145" lon="-0.58223">
        <ele>167</ele>
        <time>2016-04-24T07:19:16Z</time>
      </trkpt>
      <trkpt lat="46.91439" lon="-0.5823">
        <ele>168</ele>
        <time>2016-04-24T07:19:20Z</time>
      </trkpt>
      <trkpt lat="46.91429" lon="-0.58236">
        <ele>169</ele>
        <time>2016-04-24T07:19:24Z</time>
      </trkpt>
      <trkpt lat="46.91417" lon="-0.58241">
        <ele>167</ele>
        <time>2016-04-24T07:19:28Z</time>
      </trkpt>
      <trkpt lat="46.91404" lon="-0.58247">
        <ele>166</ele>
        <time>2016-04-24T07:19:32Z</time>
      </trkpt>
      <trkpt lat="46.9139" lon="-0.58252">
        <ele>165</ele>
        <time>2016-04-24T07:19:37Z</time>
      </trkpt>
      <trkpt lat="46.91379" lon="-0.58258">
        <ele>165</ele>
        <time>2016-04-24T07:19:41Z</time>
      </trkpt>
      <trkpt lat="46.91369" lon="-0.5826">
        <ele>167</ele>
        <time>2016-04-24T07:19:45Z</time>
      </trkpt>
      <trkpt lat="46.91357" lon="-0.58263">
        <ele>165</ele>
        <time>2016-04-24T07:19:50Z</time>
      </trkpt>
      <trkpt lat="46.91345" lon="-0.58267">
        <ele>168</ele>
        <time>2016-04-24T07:19:55Z</time>
      </trkpt>
      <trkpt lat="46.91334" lon="-0.58269">
        <ele>169</ele>
        <time>2016-04-24T07:19:59Z</time>
      </trkpt>
      <trkpt lat="46.91322" lon="-0.58275">
        <ele>169</ele>
        <time>2016-04-24T07:20:03Z</time>
      </trkpt>
      <trkpt lat="46.91311" lon="-0.58278">
        <ele>170</ele>
        <time>2016-04-24T07:20:07Z</time>
      </trkpt>
      <trkpt lat="46.91303" lon="-0.5828">
        <ele>169</ele>
        <time>2016-04-24T07:20:11Z</time>
      </trkpt>
      <trkpt lat="46.91292" lon="-0.58283">
        <ele>169</ele>
        <time>2016-04-24T07:20:15Z</time>
      </trkpt>
      <trkpt lat="46.91284" lon="-0.58285">
        <ele>170</ele>
        <time>2016-04-24T07:20:19Z</time>
      </trkpt>
      <trkpt lat="46.91275" lon="-0.58286">
        <ele>171</ele>
        <time>2016-04-24T07:20:27Z</time>
      </trkpt>
      <trkpt lat="46.91268" lon="-0.58285">
        <ele>171</ele>
        <time>2016-04-24T07:20:55Z</time>
      </trkpt>
      <trkpt lat="46.9126" lon="-0.58278">
        <ele>172</ele>
        <time>2016-04-24T07:21:00Z</time>
      </trkpt>
      <trkpt lat="46.91248" lon="-0.58273">
        <ele>170</ele>
        <time>2016-04-24T07:21:04Z</time>
      </trkpt>
      <trkpt lat="46.91239" lon="-0.58267">
        <ele>171</ele>
        <time>2016-04-24T07:21:08Z</time>
      </trkpt>
      <trkpt lat="46.9123" lon="-0.58264">
        <ele>174</ele>
        <time>2016-04-24T07:21:12Z</time>
      </trkpt>
      <trkpt lat="46.9122" lon="-0.58257">
        <ele>176</ele>
        <time>2016-04-24T07:21:16Z</time>
      </trkpt>
      <trkpt lat="46.91213" lon="-0.58256">
        <ele>180</ele>
        <time>2016-04-24T07:21:20Z</time>
      </trkpt>
      <trkpt lat="46.91201" lon="-0.58247">
        <ele>179</ele>
        <time>2016-04-24T07:21:24Z</time>
      </trkpt>
      <trkpt lat="46.91192" lon="-0.5824">
        <ele>181</ele>
        <time>2016-04-24T07:21:28Z</time>
      </trkpt>
      <trkpt lat="46.91183" lon="-0.58229">
        <ele>179</ele>
        <time>2016-04-24T07:21:32Z</time>
      </trkpt>
      <trkpt lat="46.91173" lon="-0.58217">
        <ele>179</ele>
        <time>2016-04-24T07:21:36Z</time>
      </trkpt>
      <trkpt lat="46.91163" lon="-0.58207">
        <ele>179</ele>
        <time>2016-04-24T07:21:40Z</time>
      </trkpt>
      <trkpt lat="46.91153" lon="-0.58194">
        <ele>179</ele>
        <time>2016-04-24T07:21:45Z</time>
      </trkpt>
      <trkpt lat="46.91142" lon="-0.58179">
        <ele>179</ele>
        <time>2016-04-24T07:21:49Z</time>
      </trkpt>
      <trkpt lat="46.91125" lon="-0.58164">
        <ele>177</ele>
        <time>2016-04-24T07:21:53Z</time>
      </trkpt>
      <trkpt lat="46.91108" lon="-0.58144">
        <ele>179</ele>
        <time>2016-04-24T07:21:57Z</time>
      </trkpt>
      <trkpt lat="46.91091" lon="-0.58125">
        <ele>178</ele>
        <time>2016-04-24T07:22:01Z</time>
      </trkpt>
      <trkpt lat="46.91073" lon="-0.58106">
        <ele>177</ele>
        <time>2016-04-24T07:22:05Z</time>
      </trkpt>
      <trkpt lat="46.91051" lon="-0.58083">
        <ele>177</ele>
        <time>2016-04-24T07:22:10Z</time>
      </trkpt>
      <trkpt lat="46.91028" lon="-0.58062">
        <ele>176</ele>
        <time>2016-04-24T07:22:14Z</time>
      </trkpt>
      <trkpt lat="46.90995" lon="-0.5805">
        <ele>176</ele>
        <time>2016-04-24T07:22:19Z</time>
      </trkpt>
      <trkpt lat="46.90968" lon="-0.58043">
        <ele>175</ele>
        <time>2016-04-24T07:22:23Z</time>
      </trkpt>
      <trkpt lat="46.90928" lon="-0.58027">
        <ele>173</ele>
        <time>2016-04-24T07:22:28Z</time>
      </trkpt>
      <trkpt lat="46.90896" lon="-0.58015">
        <ele>169</ele>
        <time>2016-04-24T07:22:32Z</time>
      </trkpt>
      <trkpt lat="46.90867" lon="-0.58015">
        <ele>171</ele>
        <time>2016-04-24T07:22:36Z</time>
      </trkpt>
      <trkpt lat="46.90833" lon="-0.58011">
        <ele>169</ele>
        <time>2016-04-24T07:22:40Z</time>
      </trkpt>
      <trkpt lat="46.90796" lon="-0.58003">
        <ele>164</ele>
        <time>2016-04-24T07:22:44Z</time>
      </trkpt>
      <trkpt lat="46.90767" lon="-0.57981">
        <ele>162</ele>
        <time>2016-04-24T07:22:48Z</time>
      </trkpt>
      <trkpt lat="46.90742" lon="-0.57958">
        <ele>156</ele>
        <time>2016-04-24T07:22:52Z</time>
      </trkpt>
      <trkpt lat="46.90712" lon="-0.57935">
        <ele>154</ele>
        <time>2016-04-24T07:22:56Z</time>
      </trkpt>
      <trkpt lat="46.9068" lon="-0.57903">
        <ele>152</ele>
        <time>2016-04-24T07:23:00Z</time>
      </trkpt>
      <trkpt lat="46.90652" lon="-0.57897">
        <ele>150</ele>
        <time>2016-04-24T07:23:05Z</time>
      </trkpt>
      <trkpt lat="46.90628" lon="-0.5791">
        <ele>147</ele>
        <time>2016-04-24T07:23:09Z</time>
      </trkpt>
      <trkpt lat="46.90598" lon="-0.57905">
        <ele>148</ele>
        <time>2016-04-24T07:23:13Z</time>
      </trkpt>
      <trkpt lat="46.90573" lon="-0.57874">
        <ele>148</ele>
        <time>2016-04-24T07:23:17Z</time>
      </trkpt>
      <trkpt lat="46.90541" lon="-0.57844">
        <ele>148</ele>
        <time>2016-04-24T07:23:22Z</time>
      </trkpt>
      <trkpt lat="46.90515" lon="-0.57826">
        <ele>148</ele>
        <time>2016-04-24T07:23:26Z</time>
      </trkpt>
      <trkpt lat="46.90491" lon="-0.57821">
        <ele>150</ele>
        <time>2016-04-24T07:23:30Z</time>
      </trkpt>
      <trkpt lat="46.90466" lon="-0.57811">
        <ele>150</ele>
        <time>2016-04-24T07:23:34Z</time>
      </trkpt>
      <trkpt lat="46.90442" lon="-0.57795">
        <ele>150</ele>
        <time>2016-04-24T07:23:39Z</time>
      </trkpt>
      <trkpt lat="46.90424" lon="-0.57788">
        <ele>149</ele>
        <time>2016-04-24T07:23:43Z</time>
      </trkpt>
      <trkpt lat="46.90399" lon="-0.57777">
        <ele>146</ele>
        <time>2016-04-24T07:23:48Z</time>
      </trkpt>
      <trkpt lat="46.90385" lon="-0.57768">
        <ele>147</ele>
        <time>2016-04-24T07:23:52Z</time>
      </trkpt>
      <trkpt lat="46.90375" lon="-0.57763">
        <ele>148</ele>
        <time>2016-04-24T07:23:56Z</time>
      </trkpt>
      <trkpt lat="46.90364" lon="-0.57756">
        <ele>147</ele>
        <time>2016-04-24T07:24:00Z</time>
      </trkpt>
      <trkpt lat="46.90357" lon="-0.57746">
        <ele>147</ele>
        <time>2016-04-24T07:24:04Z</time>
      </trkpt>
      <trkpt lat="46.90351" lon="-0.57733">
        <ele>147</ele>
        <time>2016-04-24T07:24:08Z</time>
      </trkpt>
      <trkpt lat="46.90355" lon="-0.57721">
        <ele>147</ele>
        <time>2016-04-24T07:24:12Z</time>
      </trkpt>
      <trkpt lat="46.90362" lon="-0.57729">
        <ele>149</ele>
        <time>2016-04-24T07:24:16Z</time>
      </trkpt>
      <trkpt lat="46.90359" lon="-0.5774">
        <ele>151</ele>
        <time>2016-04-24T07:24:20Z</time>
      </trkpt>
      <trkpt lat="46.90352" lon="-0.57737">
        <ele>151</ele>
        <time>2016-04-24T07:24:24Z</time>
      </trkpt>
      <trkpt lat="46.90343" lon="-0.57721">
        <ele>150</ele>
        <time>2016-04-24T07:24:28Z</time>
      </trkpt>
      <trkpt lat="46.90328" lon="-0.57715">
        <ele>152</ele>
        <time>2016-04-24T07:24:32Z</time>
      </trkpt>
      <trkpt lat="46.90313" lon="-0.57707">
        <ele>151</ele>
        <time>2016-04-24T07:24:36Z</time>
      </trkpt>
      <trkpt lat="46.90297" lon="-0.57698">
        <ele>151</ele>
        <time>2016-04-24T07:24:41Z</time>
      </trkpt>
      <trkpt lat="46.90286" lon="-0.57698">
        <ele>150</ele>
        <time>2016-04-24T07:24:45Z</time>
      </trkpt>
      <trkpt lat="46.90273" lon="-0.57701">
        <ele>149</ele>
        <time>2016-04-24T07:24:49Z</time>
      </trkpt>
      <trkpt lat="46.90258" lon="-0.57705">
        <ele>147</ele>
        <time>2016-04-24T07:24:53Z</time>
      </trkpt>
      <trkpt lat="46.90241" lon="-0.57693">
        <ele>144</ele>
        <time>2016-04-24T07:24:57Z</time>
      </trkpt>
      <trkpt lat="46.90206" lon="-0.57667">
        <ele>143</ele>
        <time>2016-04-24T07:25:02Z</time>
      </trkpt>
      <trkpt lat="46.90186" lon="-0.57638">
        <ele>140</ele>
        <time>2016-04-24T07:25:06Z</time>
      </trkpt>
      <trkpt lat="46.90167" lon="-0.57605">
        <ele>137</ele>
        <time>2016-04-24T07:25:10Z</time>
      </trkpt>
      <trkpt lat="46.90151" lon="-0.57576">
        <ele>135</ele>
        <time>2016-04-24T07:25:14Z</time>
      </trkpt>
      <trkpt lat="46.90139" lon="-0.57536">
        <ele>136</ele>
        <time>2016-04-24T07:25:19Z</time>
      </trkpt>
      <trkpt lat="46.90126" lon="-0.57514">
        <ele>135</ele>
        <time>2016-04-24T07:25:23Z</time>
      </trkpt>
      <trkpt lat="46.90098" lon="-0.57503">
        <ele>134</ele>
        <time>2016-04-24T07:25:28Z</time>
      </trkpt>
      <trkpt lat="46.90075" lon="-0.57499">
        <ele>134</ele>
        <time>2016-04-24T07:25:32Z</time>
      </trkpt>
      <trkpt lat="46.90067" lon="-0.57475">
        <ele>133</ele>
        <time>2016-04-24T07:25:36Z</time>
      </trkpt>
      <trkpt lat="46.9007" lon="-0.57445">
        <ele>133</ele>
        <time>2016-04-24T07:25:41Z</time>
      </trkpt>
      <trkpt lat="46.90075" lon="-0.57416">
        <ele>134</ele>
        <time>2016-04-24T07:25:46Z</time>
      </trkpt>
      <trkpt lat="46.90081" lon="-0.57388">
        <ele>133</ele>
        <time>2016-04-24T07:25:51Z</time>
      </trkpt>
      <trkpt lat="46.90083" lon="-0.57366">
        <ele>134</ele>
        <time>2016-04-24T07:25:55Z</time>
      </trkpt>
      <trkpt lat="46.90086" lon="-0.57342">
        <ele>136</ele>
        <time>2016-04-24T07:25:59Z</time>
      </trkpt>
      <trkpt lat="46.90087" lon="-0.57319">
        <ele>134</ele>
        <time>2016-04-24T07:26:03Z</time>
      </trkpt>
      <trkpt lat="46.90085" lon="-0.57293">
        <ele>132</ele>
        <time>2016-04-24T07:26:07Z</time>
      </trkpt>
      <trkpt lat="46.9008" lon="-0.5727">
        <ele>131</ele>
        <time>2016-04-24T07:26:11Z</time>
      </trkpt>
      <trkpt lat="46.90073" lon="-0.57243">
        <ele>131</ele>
        <time>2016-04-24T07:26:16Z</time>
      </trkpt>
      <trkpt lat="46.9007" lon="-0.57222">
        <ele>133</ele>
        <time>2016-04-24T07:26:20Z</time>
      </trkpt>
      <trkpt lat="46.90062" lon="-0.57201">
        <ele>133</ele>
        <time>2016-04-24T07:26:24Z</time>
      </trkpt>
      <trkpt lat="46.90056" lon="-0.5718">
        <ele>136</ele>
        <time>2016-04-24T07:26:28Z</time>
      </trkpt>
      <trkpt lat="46.90051" lon="-0.57155">
        <ele>137</ele>
        <time>2016-04-24T07:26:33Z</time>
      </trkpt>
      <trkpt lat="46.90046" lon="-0.57138">
        <ele>140</ele>
        <time>2016-04-24T07:26:37Z</time>
      </trkpt>
      <trkpt lat="46.90043" lon="-0.57122">
        <ele>142</ele>
        <time>2016-04-24T07:26:41Z</time>
      </trkpt>
      <trkpt lat="46.90038" lon="-0.57105">
        <ele>146</ele>
        <time>2016-04-24T07:26:46Z</time>
      </trkpt>
      <trkpt lat="46.90032" lon="-0.57092">
        <ele>147</ele>
        <time>2016-04-24T07:26:50Z</time>
      </trkpt>
      <trkpt lat="46.90023" lon="-0.57079">
        <ele>148</ele>
        <time>2016-04-24T07:26:55Z</time>
      </trkpt>
      <trkpt lat="46.90014" lon="-0.57068">
        <ele>146</ele>
        <time>2016-04-24T07:26:59Z</time>
      </trkpt>
      <trkpt lat="46.89999" lon="-0.57056">
        <ele>146</ele>
        <time>2016-04-24T07:27:04Z</time>
      </trkpt>
      <trkpt lat="46.89991" lon="-0.57037">
        <ele>147</ele>
        <time>2016-04-24T07:27:08Z</time>
      </trkpt>
      <trkpt lat="46.8998" lon="-0.57009">
        <ele>145</ele>
        <time>2016-04-24T07:27:13Z</time>
      </trkpt>
      <trkpt lat="46.89972" lon="-0.56987">
        <ele>145</ele>
        <time>2016-04-24T07:27:17Z</time>
      </trkpt>
      <trkpt lat="46.89965" lon="-0.56965">
        <ele>145</ele>
        <time>2016-04-24T07:27:21Z</time>
      </trkpt>
      <trkpt lat="46.89957" lon="-0.56945">
        <ele>145</ele>
        <time>2016-04-24T07:27:25Z</time>
      </trkpt>
      <trkpt lat="46.89945" lon="-0.56927">
        <ele>146</ele>
        <time>2016-04-24T07:27:29Z</time>
      </trkpt>
      <trkpt lat="46.89933" lon="-0.56909">
        <ele>148</ele>
        <time>2016-04-24T07:27:33Z</time>
      </trkpt>
      <trkpt lat="46.89921" lon="-0.56891">
        <ele>150</ele>
        <time>2016-04-24T07:27:37Z</time>
      </trkpt>
      <trkpt lat="46.89906" lon="-0.5687">
        <ele>150</ele>
        <time>2016-04-24T07:27:42Z</time>
      </trkpt>
      <trkpt lat="46.89891" lon="-0.56848">
        <ele>150</ele>
        <time>2016-04-24T07:27:47Z</time>
      </trkpt>
      <trkpt lat="46.89881" lon="-0.5683">
        <ele>150</ele>
        <time>2016-04-24T07:27:51Z</time>
      </trkpt>
      <trkpt lat="46.89866" lon="-0.56809">
        <ele>150</ele>
        <time>2016-04-24T07:27:56Z</time>
      </trkpt>
      <trkpt lat="46.89854" lon="-0.56791">
        <ele>153</ele>
        <time>2016-04-24T07:28:00Z</time>
      </trkpt>
      <trkpt lat="46.89843" lon="-0.56774">
        <ele>155</ele>
        <time>2016-04-24T07:28:04Z</time>
      </trkpt>
      <trkpt lat="46.89829" lon="-0.56758">
        <ele>156</ele>
        <time>2016-04-24T07:28:08Z</time>
      </trkpt>
      <trkpt lat="46.89815" lon="-0.56743">
        <ele>157</ele>
        <time>2016-04-24T07:28:12Z</time>
      </trkpt>
      <trkpt lat="46.89801" lon="-0.56729">
        <ele>156</ele>
        <time>2016-04-24T07:28:16Z</time>
      </trkpt>
      <trkpt lat="46.89787" lon="-0.56716">
        <ele>155</ele>
        <time>2016-04-24T07:28:20Z</time>
      </trkpt>
      <trkpt lat="46.89772" lon="-0.56705">
        <ele>155</ele>
        <time>2016-04-24T07:28:24Z</time>
      </trkpt>
      <trkpt lat="46.89757" lon="-0.56697">
        <ele>156</ele>
        <time>2016-04-24T07:28:28Z</time>
      </trkpt>
      <trkpt lat="46.8974" lon="-0.56688">
        <ele>158</ele>
        <time>2016-04-24T07:28:32Z</time>
      </trkpt>
      <trkpt lat="46.89721" lon="-0.56678">
        <ele>156</ele>
        <time>2016-04-24T07:28:36Z</time>
      </trkpt>
      <trkpt lat="46.89704" lon="-0.56672">
        <ele>157</ele>
        <time>2016-04-24T07:28:40Z</time>
      </trkpt>
      <trkpt lat="46.89687" lon="-0.56663">
        <ele>157</ele>
        <time>2016-04-24T07:28:44Z</time>
      </trkpt>
      <trkpt lat="46.89667" lon="-0.56651">
        <ele>158</ele>
        <time>2016-04-24T07:28:49Z</time>
      </trkpt>
      <trkpt lat="46.89656" lon="-0.56634">
        <ele>158</ele>
        <time>2016-04-24T07:28:53Z</time>
      </trkpt>
      <trkpt lat="46.8965" lon="-0.56609">
        <ele>157</ele>
        <time>2016-04-24T07:28:57Z</time>
      </trkpt>
      <trkpt lat="46.89645" lon="-0.5658">
        <ele>155</ele>
        <time>2016-04-24T07:29:02Z</time>
      </trkpt>
      <trkpt lat="46.89643" lon="-0.5656">
        <ele>154</ele>
        <time>2016-04-24T07:29:06Z</time>
      </trkpt>
      <trkpt lat="46.89638" lon="-0.56536">
        <ele>153</ele>
        <time>2016-04-24T07:29:10Z</time>
      </trkpt>
      <trkpt lat="46.89634" lon="-0.56507">
        <ele>151</ele>
        <time>2016-04-24T07:29:15Z</time>
      </trkpt>
      <trkpt lat="46.89631" lon="-0.56488">
        <ele>151</ele>
        <time>2016-04-24T07:29:19Z</time>
      </trkpt>
      <trkpt lat="46.89623" lon="-0.56488">
        <ele>152</ele>
        <time>2016-04-24T07:29:25Z</time>
      </trkpt>
      <trkpt lat="46.89613" lon="-0.56476">
        <ele>151</ele>
        <time>2016-04-24T07:29:29Z</time>
      </trkpt>
      <trkpt lat="46.8959" lon="-0.56457">
        <ele>149</ele>
        <time>2016-04-24T07:29:34Z</time>
      </trkpt>
      <trkpt lat="46.89568" lon="-0.5645">
        <ele>147</ele>
        <time>2016-04-24T07:29:38Z</time>
      </trkpt>
      <trkpt lat="46.89551" lon="-0.56452">
        <ele>150</ele>
        <time>2016-04-24T07:29:42Z</time>
      </trkpt>
      <trkpt lat="46.89534" lon="-0.56454">
        <ele>152</ele>
        <time>2016-04-24T07:29:47Z</time>
      </trkpt>
      <trkpt lat="46.89517" lon="-0.56457">
        <ele>155</ele>
        <time>2016-04-24T07:29:52Z</time>
      </trkpt>
      <trkpt lat="46.89501" lon="-0.56459">
        <ele>156</ele>
        <time>2016-04-24T07:29:56Z</time>
      </trkpt>
      <trkpt lat="46.89488" lon="-0.5646">
        <ele>157</ele>
        <time>2016-04-24T07:30:00Z</time>
      </trkpt>
      <trkpt lat="46.89475" lon="-0.56459">
        <ele>159</ele>
        <time>2016-04-24T07:30:04Z</time>
      </trkpt>
      <trkpt lat="46.89467" lon="-0.56459">
        <ele>158</ele>
        <time>2016-04-24T07:30:16Z</time>
      </trkpt>
      <trkpt lat="46.89465" lon="-0.56449">
        <ele>157</ele>
        <time>2016-04-24T07:32:45Z</time>
      </trkpt>
      <trkpt lat="46.8947" lon="-0.56437">
        <ele>157</ele>
        <time>2016-04-24T07:32:49Z</time>
      </trkpt>
      <trkpt lat="46.89481" lon="-0.56419">
        <ele>156</ele>
        <time>2016-04-24T07:32:53Z</time>
      </trkpt>
      <trkpt lat="46.89496" lon="-0.56393">
        <ele>155</ele>
        <time>2016-04-24T07:32:57Z</time>
      </trkpt>
      <trkpt lat="46.89515" lon="-0.56358">
        <ele>153</ele>
        <time>2016-04-24T07:33:01Z</time>
      </trkpt>
      <trkpt lat="46.89539" lon="-0.56304">
        <ele>149</ele>
        <time>2016-04-24T07:33:06Z</time>
      </trkpt>
      <trkpt lat="46.89552" lon="-0.56251">
        <ele>144</ele>
        <time>2016-04-24T07:33:10Z</time>
      </trkpt>
      <trkpt lat="46.89559" lon="-0.56191">
        <ele>143</ele>
        <time>2016-04-24T07:33:14Z</time>
      </trkpt>
      <trkpt lat="46.89558" lon="-0.56138">
        <ele>144</ele>
        <time>2016-04-24T07:33:18Z</time>
      </trkpt>
      <trkpt lat="46.89536" lon="-0.56079">
        <ele>143</ele>
        <time>2016-04-24T07:33:23Z</time>
      </trkpt>
      <trkpt lat="46.89516" lon="-0.56045">
        <ele>142</ele>
        <time>2016-04-24T07:33:27Z</time>
      </trkpt>
      <trkpt lat="46.89504" lon="-0.55999">
        <ele>142</ele>
        <time>2016-04-24T07:33:32Z</time>
      </trkpt>
      <trkpt lat="46.89504" lon="-0.55953">
        <ele>139</ele>
        <time>2016-04-24T07:33:36Z</time>
      </trkpt>
      <trkpt lat="46.89506" lon="-0.55908">
        <ele>138</ele>
        <time>2016-04-24T07:33:40Z</time>
      </trkpt>
      <trkpt lat="46.89509" lon="-0.55872">
        <ele>137</ele>
        <time>2016-04-24T07:33:44Z</time>
      </trkpt>
      <trkpt lat="46.89509" lon="-0.55838">
        <ele>137</ele>
        <time>2016-04-24T07:33:48Z</time>
      </trkpt>
      <trkpt lat="46.89498" lon="-0.55808">
        <ele>138</ele>
        <time>2016-04-24T07:33:52Z</time>
      </trkpt>
      <trkpt lat="46.89486" lon="-0.55775">
        <ele>137</ele>
        <time>2016-04-24T07:33:56Z</time>
      </trkpt>
      <trkpt lat="46.89473" lon="-0.55745">
        <ele>139</ele>
        <time>2016-04-24T07:34:00Z</time>
      </trkpt>
      <trkpt lat="46.89461" lon="-0.55718">
        <ele>140</ele>
        <time>2016-04-24T07:34:04Z</time>
      </trkpt>
      <trkpt lat="46.89446" lon="-0.55691">
        <ele>141</ele>
        <time>2016-04-24T07:34:08Z</time>
      </trkpt>
      <trkpt lat="46.89426" lon="-0.55656">
        <ele>141</ele>
        <time>2016-04-24T07:34:13Z</time>
      </trkpt>
      <trkpt lat="46.89405" lon="-0.55619">
        <ele>141</ele>
        <time>2016-04-24T07:34:18Z</time>
      </trkpt>
      <trkpt lat="46.89392" lon="-0.55584">
        <ele>142</ele>
        <time>2016-04-24T07:34:22Z</time>
      </trkpt>
      <trkpt lat="46.89383" lon="-0.55553">
        <ele>141</ele>
        <time>2016-04-24T07:34:26Z</time>
      </trkpt>
      <trkpt lat="46.89373" lon="-0.55532">
        <ele>144</ele>
        <time>2016-04-24T07:34:30Z</time>
      </trkpt>
      <trkpt lat="46.89357" lon="-0.55511">
        <ele>146</ele>
        <time>2016-04-24T07:34:35Z</time>
      </trkpt>
      <trkpt lat="46.89345" lon="-0.55493">
        <ele>147</ele>
        <time>2016-04-24T07:34:39Z</time>
      </trkpt>
      <trkpt lat="46.89332" lon="-0.55482">
        <ele>150</ele>
        <time>2016-04-24T07:34:43Z</time>
      </trkpt>
      <trkpt lat="46.89322" lon="-0.5547">
        <ele>152</ele>
        <time>2016-04-24T07:34:47Z</time>
      </trkpt>
      <trkpt lat="46.89307" lon="-0.55458">
        <ele>154</ele>
        <time>2016-04-24T07:34:51Z</time>
      </trkpt>
      <trkpt lat="46.89294" lon="-0.55447">
        <ele>155</ele>
        <time>2016-04-24T07:34:55Z</time>
      </trkpt>
      <trkpt lat="46.89281" lon="-0.55438">
        <ele>158</ele>
        <time>2016-04-24T07:34:59Z</time>
      </trkpt>
      <trkpt lat="46.89272" lon="-0.55432">
        <ele>157</ele>
        <time>2016-04-24T07:35:03Z</time>
      </trkpt>
      <trkpt lat="46.89262" lon="-0.55422">
        <ele>159</ele>
        <time>2016-04-24T07:35:07Z</time>
      </trkpt>
      <trkpt lat="46.8925" lon="-0.55415">
        <ele>160</ele>
        <time>2016-04-24T07:35:11Z</time>
      </trkpt>
      <trkpt lat="46.89242" lon="-0.55404">
        <ele>160</ele>
        <time>2016-04-24T07:35:15Z</time>
      </trkpt>
      <trkpt lat="46.89232" lon="-0.55396">
        <ele>163</ele>
        <time>2016-04-24T07:35:19Z</time>
      </trkpt>
      <trkpt lat="46.89222" lon="-0.55386">
        <ele>164</ele>
        <time>2016-04-24T07:35:23Z</time>
      </trkpt>
      <trkpt lat="46.89213" lon="-0.55377">
        <ele>165</ele>
        <time>2016-04-24T07:35:27Z</time>
      </trkpt>
      <trkpt lat="46.89203" lon="-0.55368">
        <ele>164</ele>
        <time>2016-04-24T07:35:31Z</time>
      </trkpt>
      <trkpt lat="46.89195" lon="-0.55359">
        <ele>166</ele>
        <time>2016-04-24T07:35:35Z</time>
      </trkpt>
      <trkpt lat="46.89186" lon="-0.55348">
        <ele>167</ele>
        <time>2016-04-24T07:35:39Z</time>
      </trkpt>
      <trkpt lat="46.89176" lon="-0.55335">
        <ele>168</ele>
        <time>2016-04-24T07:35:44Z</time>
      </trkpt>
      <trkpt lat="46.89169" lon="-0.55326">
        <ele>168</ele>
        <time>2016-04-24T07:35:48Z</time>
      </trkpt>
      <trkpt lat="46.89159" lon="-0.55314">
        <ele>166</ele>
        <time>2016-04-24T07:35:52Z</time>
      </trkpt>
      <trkpt lat="46.8915" lon="-0.55303">
        <ele>166</ele>
        <time>2016-04-24T07:35:56Z</time>
      </trkpt>
      <trkpt lat="46.89136" lon="-0.55293">
        <ele>168</ele>
        <time>2016-04-24T07:36:01Z</time>
      </trkpt>
      <trkpt lat="46.89125" lon="-0.55288">
        <ele>169</ele>
        <time>2016-04-24T07:36:05Z</time>
      </trkpt>
      <trkpt lat="46.89113" lon="-0.55285">
        <ele>169</ele>
        <time>2016-04-24T07:36:09Z</time>
      </trkpt>
      <trkpt lat="46.89102" lon="-0.55284">
        <ele>170</ele>
        <time>2016-04-24T07:36:13Z</time>
      </trkpt>
      <trkpt lat="46.89089" lon="-0.55282">
        <ele>171</ele>
        <time>2016-04-24T07:36:17Z</time>
      </trkpt>
      <trkpt lat="46.89081" lon="-0.55281">
        <ele>173</ele>
        <time>2016-04-24T07:36:21Z</time>
      </trkpt>
      <trkpt lat="46.89077" lon="-0.5528">
        <ele>175</ele>
        <time>2016-04-24T07:36:25Z</time>
      </trkpt>
      <trkpt lat="46.89071" lon="-0.5527">
        <ele>169</ele>
        <time>2016-04-24T07:36:29Z</time>
      </trkpt>
      <trkpt lat="46.89064" lon="-0.55272">
        <ele>167</ele>
        <time>2016-04-24T07:36:43Z</time>
      </trkpt>
      <trkpt lat="46.89049" lon="-0.55269">
        <ele>168</ele>
        <time>2016-04-24T07:36:48Z</time>
      </trkpt>
      <trkpt lat="46.89034" lon="-0.55262">
        <ele>167</ele>
        <time>2016-04-24T07:36:52Z</time>
      </trkpt>
      <trkpt lat="46.89021" lon="-0.55258">
        <ele>168</ele>
        <time>2016-04-24T07:36:56Z</time>
      </trkpt>
      <trkpt lat="46.89011" lon="-0.55256">
        <ele>169</ele>
        <time>2016-04-24T07:37:00Z</time>
      </trkpt>
      <trkpt lat="46.88998" lon="-0.55252">
        <ele>170</ele>
        <time>2016-04-24T07:37:04Z</time>
      </trkpt>
      <trkpt lat="46.88981" lon="-0.55249">
        <ele>171</ele>
        <time>2016-04-24T07:37:09Z</time>
      </trkpt>
      <trkpt lat="46.88967" lon="-0.55248">
        <ele>171</ele>
        <time>2016-04-24T07:37:13Z</time>
      </trkpt>
      <trkpt lat="46.88954" lon="-0.55245">
        <ele>172</ele>
        <time>2016-04-24T07:37:17Z</time>
      </trkpt>
      <trkpt lat="46.88937" lon="-0.55244">
        <ele>171</ele>
        <time>2016-04-24T07:37:21Z</time>
      </trkpt>
      <trkpt lat="46.88925" lon="-0.55242">
        <ele>173</ele>
        <time>2016-04-24T07:37:25Z</time>
      </trkpt>
      <trkpt lat="46.88912" lon="-0.55242">
        <ele>174</ele>
        <time>2016-04-24T07:37:29Z</time>
      </trkpt>
      <trkpt lat="46.88897" lon="-0.55242">
        <ele>174</ele>
        <time>2016-04-24T07:37:33Z</time>
      </trkpt>
      <trkpt lat="46.88884" lon="-0.55243">
        <ele>174</ele>
        <time>2016-04-24T07:37:37Z</time>
      </trkpt>
      <trkpt lat="46.88872" lon="-0.55246">
        <ele>176</ele>
        <time>2016-04-24T07:37:41Z</time>
      </trkpt>
      <trkpt lat="46.88858" lon="-0.55246">
        <ele>175</ele>
        <time>2016-04-24T07:37:45Z</time>
      </trkpt>
      <trkpt lat="46.88845" lon="-0.55249">
        <ele>176</ele>
        <time>2016-04-24T07:37:49Z</time>
      </trkpt>
      <trkpt lat="46.88833" lon="-0.5525">
        <ele>176</ele>
        <time>2016-04-24T07:37:53Z</time>
      </trkpt>
      <trkpt lat="46.88821" lon="-0.55252">
        <ele>177</ele>
        <time>2016-04-24T07:37:57Z</time>
      </trkpt>
      <trkpt lat="46.88809" lon="-0.55252">
        <ele>175</ele>
        <time>2016-04-24T07:38:01Z</time>
      </trkpt>
      <trkpt lat="46.888" lon="-0.55252">
        <ele>173</ele>
        <time>2016-04-24T07:38:05Z</time>
      </trkpt>
      <trkpt lat="46.8879" lon="-0.55253">
        <ele>174</ele>
        <time>2016-04-24T07:38:09Z</time>
      </trkpt>
      <trkpt lat="46.8878" lon="-0.55251">
        <ele>177</ele>
        <time>2016-04-24T07:38:13Z</time>
      </trkpt>
      <trkpt lat="46.8877" lon="-0.55244">
        <ele>178</ele>
        <time>2016-04-24T07:38:17Z</time>
      </trkpt>
      <trkpt lat="46.88759" lon="-0.55241">
        <ele>179</ele>
        <time>2016-04-24T07:38:21Z</time>
      </trkpt>
      <trkpt lat="46.88746" lon="-0.55241">
        <ele>180</ele>
        <time>2016-04-24T07:38:25Z</time>
      </trkpt>
      <trkpt lat="46.88735" lon="-0.55245">
        <ele>182</ele>
        <time>2016-04-24T07:38:29Z</time>
      </trkpt>
      <trkpt lat="46.88723" lon="-0.55248">
        <ele>183</ele>
        <time>2016-04-24T07:38:33Z</time>
      </trkpt>
      <trkpt lat="46.88712" lon="-0.55252">
        <ele>186</ele>
        <time>2016-04-24T07:38:37Z</time>
      </trkpt>
      <trkpt lat="46.88701" lon="-0.55253">
        <ele>184</ele>
        <time>2016-04-24T07:38:41Z</time>
      </trkpt>
      <trkpt lat="46.88692" lon="-0.55256">
        <ele>186</ele>
        <time>2016-04-24T07:38:45Z</time>
      </trkpt>
      <trkpt lat="46.88681" lon="-0.55261">
        <ele>188</ele>
        <time>2016-04-24T07:38:49Z</time>
      </trkpt>
      <trkpt lat="46.88666" lon="-0.55266">
        <ele>187</ele>
        <time>2016-04-24T07:38:53Z</time>
      </trkpt>
      <trkpt lat="46.88656" lon="-0.5527">
        <ele>188</ele>
        <time>2016-04-24T07:38:57Z</time>
      </trkpt>
      <trkpt lat="46.88643" lon="-0.55277">
        <ele>188</ele>
        <time>2016-04-24T07:39:01Z</time>
      </trkpt>
      <trkpt lat="46.8863" lon="-0.55282">
        <ele>190</ele>
        <time>2016-04-24T07:39:06Z</time>
      </trkpt>
      <trkpt lat="46.88619" lon="-0.55286">
        <ele>190</ele>
        <time>2016-04-24T07:39:10Z</time>
      </trkpt>
      <trkpt lat="46.88604" lon="-0.55292">
        <ele>190</ele>
        <time>2016-04-24T07:39:15Z</time>
      </trkpt>
      <trkpt lat="46.88592" lon="-0.55295">
        <ele>189</ele>
        <time>2016-04-24T07:39:19Z</time>
      </trkpt>
      <trkpt lat="46.88581" lon="-0.55302">
        <ele>190</ele>
        <time>2016-04-24T07:39:23Z</time>
      </trkpt>
      <trkpt lat="46.88569" lon="-0.5531">
        <ele>193</ele>
        <time>2016-04-24T07:39:27Z</time>
      </trkpt>
      <trkpt lat="46.88555" lon="-0.55321">
        <ele>191</ele>
        <time>2016-04-24T07:39:31Z</time>
      </trkpt>
      <trkpt lat="46.88539" lon="-0.55335">
        <ele>190</ele>
        <time>2016-04-24T07:39:35Z</time>
      </trkpt>
      <trkpt lat="46.88525" lon="-0.55352">
        <ele>187</ele>
        <time>2016-04-24T07:39:39Z</time>
      </trkpt>
      <trkpt lat="46.88509" lon="-0.55365">
        <ele>186</ele>
        <time>2016-04-24T07:39:43Z</time>
      </trkpt>
      <trkpt lat="46.88497" lon="-0.55379">
        <ele>187</ele>
        <time>2016-04-24T07:39:47Z</time>
      </trkpt>
      <trkpt lat="46.88484" lon="-0.55392">
        <ele>189</ele>
        <time>2016-04-24T07:39:51Z</time>
      </trkpt>
      <trkpt lat="46.88469" lon="-0.55405">
        <ele>188</ele>
        <time>2016-04-24T07:39:55Z</time>
      </trkpt>
      <trkpt lat="46.88451" lon="-0.55418">
        <ele>186</ele>
        <time>2016-04-24T07:39:59Z</time>
      </trkpt>
      <trkpt lat="46.88436" lon="-0.55431">
        <ele>186</ele>
        <time>2016-04-24T07:40:03Z</time>
      </trkpt>
      <trkpt lat="46.8842" lon="-0.55444">
        <ele>185</ele>
        <time>2016-04-24T07:40:07Z</time>
      </trkpt>
      <trkpt lat="46.88405" lon="-0.55453">
        <ele>185</ele>
        <time>2016-04-24T07:40:11Z</time>
      </trkpt>
      <trkpt lat="46.88391" lon="-0.55463">
        <ele>188</ele>
        <time>2016-04-24T07:40:15Z</time>
      </trkpt>
      <trkpt lat="46.88373" lon="-0.55476">
        <ele>188</ele>
        <time>2016-04-24T07:40:19Z</time>
      </trkpt>
      <trkpt lat="46.88349" lon="-0.55492">
        <ele>186</ele>
        <time>2016-04-24T07:40:24Z</time>
      </trkpt>
      <trkpt lat="46.88336" lon="-0.55506">
        <ele>183</ele>
        <time>2016-04-24T07:40:27Z</time>
      </trkpt>
      <trkpt lat="46.8832" lon="-0.55525">
        <ele>182</ele>
        <time>2016-04-24T07:40:31Z</time>
      </trkpt>
      <trkpt lat="46.88302" lon="-0.55539">
        <ele>182</ele>
        <time>2016-04-24T07:40:35Z</time>
      </trkpt>
      <trkpt lat="46.88284" lon="-0.55553">
        <ele>183</ele>
        <time>2016-04-24T07:40:39Z</time>
      </trkpt>
      <trkpt lat="46.8827" lon="-0.55573">
        <ele>182</ele>
        <time>2016-04-24T07:40:43Z</time>
      </trkpt>
      <trkpt lat="46.88259" lon="-0.55594">
        <ele>181</ele>
        <time>2016-04-24T07:40:47Z</time>
      </trkpt>
      <trkpt lat="46.88248" lon="-0.55612">
        <ele>182</ele>
        <time>2016-04-24T07:40:51Z</time>
      </trkpt>
      <trkpt lat="46.88237" lon="-0.55628">
        <ele>181</ele>
        <time>2016-04-24T07:40:55Z</time>
      </trkpt>
      <trkpt lat="46.88228" lon="-0.55643">
        <ele>183</ele>
        <time>2016-04-24T07:40:59Z</time>
      </trkpt>
      <trkpt lat="46.88219" lon="-0.55657">
        <ele>184</ele>
        <time>2016-04-24T07:41:03Z</time>
      </trkpt>
      <trkpt lat="46.8821" lon="-0.55675">
        <ele>185</ele>
        <time>2016-04-24T07:41:08Z</time>
      </trkpt>
      <trkpt lat="46.88207" lon="-0.55689">
        <ele>185</ele>
        <time>2016-04-24T07:41:12Z</time>
      </trkpt>
      <trkpt lat="46.88202" lon="-0.55706">
        <ele>184</ele>
        <time>2016-04-24T07:41:16Z</time>
      </trkpt>
      <trkpt lat="46.88189" lon="-0.55707">
        <ele>186</ele>
        <time>2016-04-24T07:41:20Z</time>
      </trkpt>
      <trkpt lat="46.88171" lon="-0.55718">
        <ele>186</ele>
        <time>2016-04-24T07:41:25Z</time>
      </trkpt>
      <trkpt lat="46.88157" lon="-0.55732">
        <ele>189</ele>
        <time>2016-04-24T07:41:29Z</time>
      </trkpt>
      <trkpt lat="46.88142" lon="-0.55754">
        <ele>189</ele>
        <time>2016-04-24T07:41:34Z</time>
      </trkpt>
      <trkpt lat="46.88132" lon="-0.55772">
        <ele>189</ele>
        <time>2016-04-24T07:41:38Z</time>
      </trkpt>
      <trkpt lat="46.88123" lon="-0.55791">
        <ele>191</ele>
        <time>2016-04-24T07:41:42Z</time>
      </trkpt>
      <trkpt lat="46.88113" lon="-0.55805">
        <ele>191</ele>
        <time>2016-04-24T07:41:46Z</time>
      </trkpt>
      <trkpt lat="46.88097" lon="-0.55813">
        <ele>192</ele>
        <time>2016-04-24T07:41:51Z</time>
      </trkpt>
      <trkpt lat="46.88082" lon="-0.55811">
        <ele>191</ele>
        <time>2016-04-24T07:41:55Z</time>
      </trkpt>
      <trkpt lat="46.88067" lon="-0.55805">
        <ele>192</ele>
        <time>2016-04-24T07:42:00Z</time>
      </trkpt>
      <trkpt lat="46.88057" lon="-0.55803">
        <ele>193</ele>
        <time>2016-04-24T07:42:04Z</time>
      </trkpt>
      <trkpt lat="46.88046" lon="-0.55799">
        <ele>195</ele>
        <time>2016-04-24T07:42:08Z</time>
      </trkpt>
      <trkpt lat="46.88032" lon="-0.55797">
        <ele>197</ele>
        <time>2016-04-24T07:42:12Z</time>
      </trkpt>
      <trkpt lat="46.88017" lon="-0.55801">
        <ele>198</ele>
        <time>2016-04-24T07:42:16Z</time>
      </trkpt>
      <trkpt lat="46.88001" lon="-0.5581">
        <ele>197</ele>
        <time>2016-04-24T07:42:20Z</time>
      </trkpt>
      <trkpt lat="46.87988" lon="-0.55822">
        <ele>197</ele>
        <time>2016-04-24T07:42:24Z</time>
      </trkpt>
      <trkpt lat="46.87975" lon="-0.55835">
        <ele>198</ele>
        <time>2016-04-24T07:42:28Z</time>
      </trkpt>
      <trkpt lat="46.87962" lon="-0.55847">
        <ele>197</ele>
        <time>2016-04-24T07:42:32Z</time>
      </trkpt>
      <trkpt lat="46.8795" lon="-0.55861">
        <ele>196</ele>
        <time>2016-04-24T07:42:36Z</time>
      </trkpt>
      <trkpt lat="46.87939" lon="-0.55877">
        <ele>197</ele>
        <time>2016-04-24T07:42:40Z</time>
      </trkpt>
      <trkpt lat="46.87927" lon="-0.55895">
        <ele>198</ele>
        <time>2016-04-24T07:42:45Z</time>
      </trkpt>
      <trkpt lat="46.87916" lon="-0.55902">
        <ele>200</ele>
        <time>2016-04-24T07:42:49Z</time>
      </trkpt>
      <trkpt lat="46.87907" lon="-0.55891">
        <ele>200</ele>
        <time>2016-04-24T07:42:53Z</time>
      </trkpt>
      <trkpt lat="46.87904" lon="-0.5588">
        <ele>200</ele>
        <time>2016-04-24T07:42:57Z</time>
      </trkpt>
      <trkpt lat="46.87901" lon="-0.5587">
        <ele>200</ele>
        <time>2016-04-24T07:43:02Z</time>
      </trkpt>
      <trkpt lat="46.879" lon="-0.55857">
        <ele>198</ele>
        <time>2016-04-24T07:43:16Z</time>
      </trkpt>
      <trkpt lat="46.879" lon="-0.55837">
        <ele>199</ele>
        <time>2016-04-24T07:43:21Z</time>
      </trkpt>
      <trkpt lat="46.87901" lon="-0.55824">
        <ele>200</ele>
        <time>2016-04-24T07:43:25Z</time>
      </trkpt>
      <trkpt lat="46.87902" lon="-0.55809">
        <ele>200</ele>
        <time>2016-04-24T07:43:29Z</time>
      </trkpt>
      <trkpt lat="46.87902" lon="-0.55793">
        <ele>200</ele>
        <time>2016-04-24T07:43:33Z</time>
      </trkpt>
      <trkpt lat="46.87904" lon="-0.55775">
        <ele>200</ele>
        <time>2016-04-24T07:43:37Z</time>
      </trkpt>
      <trkpt lat="46.87903" lon="-0.55756">
        <ele>200</ele>
        <time>2016-04-24T07:43:41Z</time>
      </trkpt>
      <trkpt lat="46.87897" lon="-0.55734">
        <ele>202</ele>
        <time>2016-04-24T07:43:46Z</time>
      </trkpt>
      <trkpt lat="46.87893" lon="-0.55714">
        <ele>201</ele>
        <time>2016-04-24T07:43:50Z</time>
      </trkpt>
      <trkpt lat="46.87884" lon="-0.55692">
        <ele>202</ele>
        <time>2016-04-24T07:43:55Z</time>
      </trkpt>
      <trkpt lat="46.8788" lon="-0.5567">
        <ele>202</ele>
        <time>2016-04-24T07:43:59Z</time>
      </trkpt>
      <trkpt lat="46.87871" lon="-0.55649">
        <ele>202</ele>
        <time>2016-04-24T07:44:04Z</time>
      </trkpt>
      <trkpt lat="46.87865" lon="-0.5563">
        <ele>202</ele>
        <time>2016-04-24T07:44:08Z</time>
      </trkpt>
      <trkpt lat="46.87858" lon="-0.55611">
        <ele>203</ele>
        <time>2016-04-24T07:44:12Z</time>
      </trkpt>
      <trkpt lat="46.8785" lon="-0.55593">
        <ele>204</ele>
        <time>2016-04-24T07:44:16Z</time>
      </trkpt>
      <trkpt lat="46.87843" lon="-0.55572">
        <ele>204</ele>
        <time>2016-04-24T07:44:20Z</time>
      </trkpt>
      <trkpt lat="46.87832" lon="-0.55546">
        <ele>204</ele>
        <time>2016-04-24T07:44:25Z</time>
      </trkpt>
      <trkpt lat="46.87826" lon="-0.55531">
        <ele>205</ele>
        <time>2016-04-24T07:44:28Z</time>
      </trkpt>
      <trkpt lat="46.87818" lon="-0.55515">
        <ele>209</ele>
        <time>2016-04-24T07:44:32Z</time>
      </trkpt>
      <trkpt lat="46.87808" lon="-0.55496">
        <ele>209</ele>
        <time>2016-04-24T07:44:36Z</time>
      </trkpt>
      <trkpt lat="46.87797" lon="-0.55473">
        <ele>210</ele>
        <time>2016-04-24T07:44:41Z</time>
      </trkpt>
      <trkpt lat="46.87787" lon="-0.55457">
        <ele>210</ele>
        <time>2016-04-24T07:44:45Z</time>
      </trkpt>
      <trkpt lat="46.87777" lon="-0.5544">
        <ele>209</ele>
        <time>2016-04-24T07:44:49Z</time>
      </trkpt>
      <trkpt lat="46.87763" lon="-0.55418">
        <ele>210</ele>
        <time>2016-04-24T07:44:54Z</time>
      </trkpt>
      <trkpt lat="46.87755" lon="-0.55405">
        <ele>210</ele>
        <time>2016-04-24T07:44:57Z</time>
      </trkpt>
      <trkpt lat="46.87743" lon="-0.55386">
        <ele>209</ele>
        <time>2016-04-24T07:45:01Z</time>
      </trkpt>
      <trkpt lat="46.87733" lon="-0.55369">
        <ele>206</ele>
        <time>2016-04-24T07:45:05Z</time>
      </trkpt>
      <trkpt lat="46.87722" lon="-0.55351">
        <ele>204</ele>
        <time>2016-04-24T07:45:09Z</time>
      </trkpt>
      <trkpt lat="46.87712" lon="-0.55329">
        <ele>204</ele>
        <time>2016-04-24T07:45:13Z</time>
      </trkpt>
      <trkpt lat="46.877" lon="-0.55306">
        <ele>205</ele>
        <time>2016-04-24T07:45:17Z</time>
      </trkpt>
      <trkpt lat="46.87686" lon="-0.5528">
        <ele>205</ele>
        <time>2016-04-24T07:45:21Z</time>
      </trkpt>
      <trkpt lat="46.87671" lon="-0.55248">
        <ele>203</ele>
        <time>2016-04-24T07:45:25Z</time>
      </trkpt>
      <trkpt lat="46.87654" lon="-0.55219">
        <ele>203</ele>
        <time>2016-04-24T07:45:29Z</time>
      </trkpt>
      <trkpt lat="46.87638" lon="-0.55188">
        <ele>201</ele>
        <time>2016-04-24T07:45:33Z</time>
      </trkpt>
      <trkpt lat="46.87623" lon="-0.55154">
        <ele>200</ele>
        <time>2016-04-24T07:45:37Z</time>
      </trkpt>
      <trkpt lat="46.87606" lon="-0.5512">
        <ele>198</ele>
        <time>2016-04-24T07:45:41Z</time>
      </trkpt>
      <trkpt lat="46.87589" lon="-0.55091">
        <ele>201</ele>
        <time>2016-04-24T07:45:45Z</time>
      </trkpt>
      <trkpt lat="46.87569" lon="-0.55052">
        <ele>201</ele>
        <time>2016-04-24T07:45:50Z</time>
      </trkpt>
      <trkpt lat="46.87548" lon="-0.55017">
        <ele>199</ele>
        <time>2016-04-24T07:45:55Z</time>
      </trkpt>
      <trkpt lat="46.87533" lon="-0.54989">
        <ele>198</ele>
        <time>2016-04-24T07:45:59Z</time>
      </trkpt>
      <trkpt lat="46.87513" lon="-0.5496">
        <ele>196</ele>
        <time>2016-04-24T07:46:03Z</time>
      </trkpt>
      <trkpt lat="46.87484" lon="-0.54938">
        <ele>195</ele>
        <time>2016-04-24T07:46:08Z</time>
      </trkpt>
      <trkpt lat="46.87461" lon="-0.54933">
        <ele>196</ele>
        <time>2016-04-24T07:46:12Z</time>
      </trkpt>
      <trkpt lat="46.87442" lon="-0.54928">
        <ele>200</ele>
        <time>2016-04-24T07:46:16Z</time>
      </trkpt>
      <trkpt lat="46.87422" lon="-0.54924">
        <ele>202</ele>
        <time>2016-04-24T07:46:20Z</time>
      </trkpt>
      <trkpt lat="46.87399" lon="-0.5491">
        <ele>203</ele>
        <time>2016-04-24T07:46:25Z</time>
      </trkpt>
      <trkpt lat="46.87381" lon="-0.54895">
        <ele>204</ele>
        <time>2016-04-24T07:46:29Z</time>
      </trkpt>
      <trkpt lat="46.8737" lon="-0.54875">
        <ele>205</ele>
        <time>2016-04-24T07:46:33Z</time>
      </trkpt>
      <trkpt lat="46.87357" lon="-0.54858">
        <ele>207</ele>
        <time>2016-04-24T07:46:37Z</time>
      </trkpt>
      <trkpt lat="46.87346" lon="-0.54842">
        <ele>208</ele>
        <time>2016-04-24T07:46:41Z</time>
      </trkpt>
      <trkpt lat="46.87335" lon="-0.54856">
        <ele>209</ele>
        <time>2016-04-24T07:46:45Z</time>
      </trkpt>
      <trkpt lat="46.87321" lon="-0.54878">
        <ele>206</ele>
        <time>2016-04-24T07:46:50Z</time>
      </trkpt>
      <trkpt lat="46.87317" lon="-0.54894">
        <ele>205</ele>
        <time>2016-04-24T07:46:54Z</time>
      </trkpt>
      <trkpt lat="46.87315" lon="-0.54914">
        <ele>204</ele>
        <time>2016-04-24T07:46:58Z</time>
      </trkpt>
      <trkpt lat="46.87313" lon="-0.54937">
        <ele>204</ele>
        <time>2016-04-24T07:47:02Z</time>
      </trkpt>
      <trkpt lat="46.87313" lon="-0.54961">
        <ele>204</ele>
        <time>2016-04-24T07:47:06Z</time>
      </trkpt>
      <trkpt lat="46.87311" lon="-0.54985">
        <ele>204</ele>
        <time>2016-04-24T07:47:10Z</time>
      </trkpt>
      <trkpt lat="46.8731" lon="-0.5501">
        <ele>204</ele>
        <time>2016-04-24T07:47:14Z</time>
      </trkpt>
      <trkpt lat="46.87307" lon="-0.55036">
        <ele>204</ele>
        <time>2016-04-24T07:47:18Z</time>
      </trkpt>
      <trkpt lat="46.87305" lon="-0.55061">
        <ele>204</ele>
        <time>2016-04-24T07:47:22Z</time>
      </trkpt>
      <trkpt lat="46.87303" lon="-0.55093">
        <ele>205</ele>
        <time>2016-04-24T07:47:27Z</time>
      </trkpt>
      <trkpt lat="46.87299" lon="-0.5512">
        <ele>204</ele>
        <time>2016-04-24T07:47:31Z</time>
      </trkpt>
      <trkpt lat="46.87298" lon="-0.55146">
        <ele>204</ele>
        <time>2016-04-24T07:47:35Z</time>
      </trkpt>
      <trkpt lat="46.87296" lon="-0.55172">
        <ele>205</ele>
        <time>2016-04-24T07:47:39Z</time>
      </trkpt>
      <trkpt lat="46.87294" lon="-0.55198">
        <ele>204</ele>
        <time>2016-04-24T07:47:43Z</time>
      </trkpt>
      <trkpt lat="46.87293" lon="-0.55221">
        <ele>206</ele>
        <time>2016-04-24T07:47:47Z</time>
      </trkpt>
      <trkpt lat="46.87293" lon="-0.55246">
        <ele>206</ele>
        <time>2016-04-24T07:47:51Z</time>
      </trkpt>
      <trkpt lat="46.87291" lon="-0.5527">
        <ele>206</ele>
        <time>2016-04-24T07:47:55Z</time>
      </trkpt>
      <trkpt lat="46.87291" lon="-0.5529">
        <ele>209</ele>
        <time>2016-04-24T07:47:59Z</time>
      </trkpt>
      <trkpt lat="46.87289" lon="-0.55313">
        <ele>208</ele>
        <time>2016-04-24T07:48:03Z</time>
      </trkpt>
      <trkpt lat="46.87287" lon="-0.5534">
        <ele>208</ele>
        <time>2016-04-24T07:48:08Z</time>
      </trkpt>
      <trkpt lat="46.87285" lon="-0.55358">
        <ele>209</ele>
        <time>2016-04-24T07:48:12Z</time>
      </trkpt>
      <trkpt lat="46.87284" lon="-0.55381">
        <ele>207</ele>
        <time>2016-04-24T07:48:16Z</time>
      </trkpt>
      <trkpt lat="46.87281" lon="-0.55407">
        <ele>206</ele>
        <time>2016-04-24T07:48:21Z</time>
      </trkpt>
      <trkpt lat="46.87272" lon="-0.55423">
        <ele>207</ele>
        <time>2016-04-24T07:48:25Z</time>
      </trkpt>
      <trkpt lat="46.87255" lon="-0.55423">
        <ele>209</ele>
        <time>2016-04-24T07:48:29Z</time>
      </trkpt>
      <trkpt lat="46.87237" lon="-0.55424">
        <ele>210</ele>
        <time>2016-04-24T07:48:33Z</time>
      </trkpt>
      <trkpt lat="46.87212" lon="-0.55435">
        <ele>212</ele>
        <time>2016-04-24T07:48:38Z</time>
      </trkpt>
      <trkpt lat="46.87192" lon="-0.55452">
        <ele>211</ele>
        <time>2016-04-24T07:48:42Z</time>
      </trkpt>
      <trkpt lat="46.8717" lon="-0.55472">
        <ele>211</ele>
        <time>2016-04-24T07:48:46Z</time>
      </trkpt>
      <trkpt lat="46.87142" lon="-0.55499">
        <ele>209</ele>
        <time>2016-04-24T07:48:51Z</time>
      </trkpt>
      <trkpt lat="46.87122" lon="-0.55519">
        <ele>206</ele>
        <time>2016-04-24T07:48:54Z</time>
      </trkpt>
      <trkpt lat="46.87101" lon="-0.55546">
        <ele>208</ele>
        <time>2016-04-24T07:48:58Z</time>
      </trkpt>
      <trkpt lat="46.87083" lon="-0.55573">
        <ele>208</ele>
        <time>2016-04-24T07:49:02Z</time>
      </trkpt>
      <trkpt lat="46.87067" lon="-0.55603">
        <ele>207</ele>
        <time>2016-04-24T07:49:06Z</time>
      </trkpt>
      <trkpt lat="46.87051" lon="-0.5563">
        <ele>207</ele>
        <time>2016-04-24T07:49:10Z</time>
      </trkpt>
      <trkpt lat="46.87038" lon="-0.55655">
        <ele>207</ele>
        <time>2016-04-24T07:49:14Z</time>
      </trkpt>
      <trkpt lat="46.87027" lon="-0.55684">
        <ele>203</ele>
        <time>2016-04-24T07:49:18Z</time>
      </trkpt>
      <trkpt lat="46.87024" lon="-0.55711">
        <ele>203</ele>
        <time>2016-04-24T07:49:22Z</time>
      </trkpt>
      <trkpt lat="46.8702" lon="-0.55736">
        <ele>204</ele>
        <time>2016-04-24T07:49:26Z</time>
      </trkpt>
      <trkpt lat="46.87018" lon="-0.55763">
        <ele>204</ele>
        <time>2016-04-24T07:49:30Z</time>
      </trkpt>
      <trkpt lat="46.87016" lon="-0.55787">
        <ele>204</ele>
        <time>2016-04-24T07:49:34Z</time>
      </trkpt>
      <trkpt lat="46.87012" lon="-0.5581">
        <ele>204</ele>
        <time>2016-04-24T07:49:38Z</time>
      </trkpt>
      <trkpt lat="46.87006" lon="-0.55833">
        <ele>204</ele>
        <time>2016-04-24T07:49:42Z</time>
      </trkpt>
      <trkpt lat="46.86996" lon="-0.55851">
        <ele>204</ele>
        <time>2016-04-24T07:49:46Z</time>
      </trkpt>
      <trkpt lat="46.86989" lon="-0.55871">
        <ele>202</ele>
        <time>2016-04-24T07:49:50Z</time>
      </trkpt>
      <trkpt lat="46.86983" lon="-0.55882">
        <ele>207</ele>
        <time>2016-04-24T07:49:54Z</time>
      </trkpt>
      <trkpt lat="46.86975" lon="-0.55898">
        <ele>208</ele>
        <time>2016-04-24T07:49:58Z</time>
      </trkpt>
      <trkpt lat="46.86965" lon="-0.55921">
        <ele>208</ele>
        <time>2016-04-24T07:50:02Z</time>
      </trkpt>
      <trkpt lat="46.86955" lon="-0.55947">
        <ele>209</ele>
        <time>2016-04-24T07:50:07Z</time>
      </trkpt>
      <trkpt lat="46.86948" lon="-0.55961">
        <ele>210</ele>
        <time>2016-04-24T07:50:10Z</time>
      </trkpt>
      <trkpt lat="46.86938" lon="-0.55978">
        <ele>209</ele>
        <time>2016-04-24T07:50:14Z</time>
      </trkpt>
      <trkpt lat="46.86927" lon="-0.55997">
        <ele>208</ele>
        <time>2016-04-24T07:50:18Z</time>
      </trkpt>
      <trkpt lat="46.86919" lon="-0.56016">
        <ele>210</ele>
        <time>2016-04-24T07:50:22Z</time>
      </trkpt>
      <trkpt lat="46.86911" lon="-0.56038">
        <ele>209</ele>
        <time>2016-04-24T07:50:26Z</time>
      </trkpt>
      <trkpt lat="46.86905" lon="-0.56067">
        <ele>207</ele>
        <time>2016-04-24T07:50:31Z</time>
      </trkpt>
      <trkpt lat="46.86896" lon="-0.56093">
        <ele>208</ele>
        <time>2016-04-24T07:50:36Z</time>
      </trkpt>
      <trkpt lat="46.8689" lon="-0.5611">
        <ele>211</ele>
        <time>2016-04-24T07:50:40Z</time>
      </trkpt>
      <trkpt lat="46.86885" lon="-0.56125">
        <ele>213</ele>
        <time>2016-04-24T07:50:43Z</time>
      </trkpt>
      <trkpt lat="46.86878" lon="-0.56146">
        <ele>212</ele>
        <time>2016-04-24T07:50:47Z</time>
      </trkpt>
      <trkpt lat="46.86872" lon="-0.56164">
        <ele>215</ele>
        <time>2016-04-24T07:50:51Z</time>
      </trkpt>
      <trkpt lat="46.86867" lon="-0.56184">
        <ele>215</ele>
        <time>2016-04-24T07:50:55Z</time>
      </trkpt>
      <trkpt lat="46.86856" lon="-0.56197">
        <ele>215</ele>
        <time>2016-04-24T07:50:59Z</time>
      </trkpt>
      <trkpt lat="46.86837" lon="-0.56186">
        <ele>215</ele>
        <time>2016-04-24T07:51:04Z</time>
      </trkpt>
      <trkpt lat="46.86817" lon="-0.56175">
        <ele>213</ele>
        <time>2016-04-24T07:51:08Z</time>
      </trkpt>
      <trkpt lat="46.86797" lon="-0.56162">
        <ele>212</ele>
        <time>2016-04-24T07:51:12Z</time>
      </trkpt>
      <trkpt lat="46.8678" lon="-0.56151">
        <ele>215</ele>
        <time>2016-04-24T07:51:16Z</time>
      </trkpt>
      <trkpt lat="46.86768" lon="-0.5616">
        <ele>213</ele>
        <time>2016-04-24T07:51:20Z</time>
      </trkpt>
      <trkpt lat="46.86756" lon="-0.56186">
        <ele>214</ele>
        <time>2016-04-24T07:51:24Z</time>
      </trkpt>
      <trkpt lat="46.86743" lon="-0.56209">
        <ele>215</ele>
        <time>2016-04-24T07:51:28Z</time>
      </trkpt>
      <trkpt lat="46.86729" lon="-0.56224">
        <ele>217</ele>
        <time>2016-04-24T07:51:32Z</time>
      </trkpt>
      <trkpt lat="46.86711" lon="-0.56235">
        <ele>214</ele>
        <time>2016-04-24T07:51:36Z</time>
      </trkpt>
      <trkpt lat="46.86697" lon="-0.56248">
        <ele>213</ele>
        <time>2016-04-24T07:51:40Z</time>
      </trkpt>
      <trkpt lat="46.86688" lon="-0.56263">
        <ele>216</ele>
        <time>2016-04-24T07:51:44Z</time>
      </trkpt>
      <trkpt lat="46.86679" lon="-0.56274">
        <ele>218</ele>
        <time>2016-04-24T07:51:48Z</time>
      </trkpt>
      <trkpt lat="46.86669" lon="-0.56283">
        <ele>216</ele>
        <time>2016-04-24T07:51:52Z</time>
      </trkpt>
      <trkpt lat="46.86659" lon="-0.56298">
        <ele>218</ele>
        <time>2016-04-24T07:51:57Z</time>
      </trkpt>
      <trkpt lat="46.8665" lon="-0.56313">
        <ele>219</ele>
        <time>2016-04-24T07:52:01Z</time>
      </trkpt>
      <trkpt lat="46.86641" lon="-0.56326">
        <ele>222</ele>
        <time>2016-04-24T07:52:05Z</time>
      </trkpt>
      <trkpt lat="46.86633" lon="-0.56339">
        <ele>221</ele>
        <time>2016-04-24T07:52:09Z</time>
      </trkpt>
      <trkpt lat="46.86621" lon="-0.56352">
        <ele>220</ele>
        <time>2016-04-24T07:52:13Z</time>
      </trkpt>
      <trkpt lat="46.86613" lon="-0.56364">
        <ele>219</ele>
        <time>2016-04-24T07:52:17Z</time>
      </trkpt>
      <trkpt lat="46.86603" lon="-0.56374">
        <ele>218</ele>
        <time>2016-04-24T07:52:21Z</time>
      </trkpt>
      <trkpt lat="46.8659" lon="-0.56388">
        <ele>216</ele>
        <time>2016-04-24T07:52:26Z</time>
      </trkpt>
      <trkpt lat="46.86581" lon="-0.56396">
        <ele>218</ele>
        <time>2016-04-24T07:52:30Z</time>
      </trkpt>
      <trkpt lat="46.86572" lon="-0.56404">
        <ele>218</ele>
        <time>2016-04-24T07:52:34Z</time>
      </trkpt>
      <trkpt lat="46.86563" lon="-0.56413">
        <ele>218</ele>
        <time>2016-04-24T07:52:38Z</time>
      </trkpt>
      <trkpt lat="46.86554" lon="-0.5642">
        <ele>218</ele>
        <time>2016-04-24T07:52:42Z</time>
      </trkpt>
      <trkpt lat="46.86546" lon="-0.56425">
        <ele>218</ele>
        <time>2016-04-24T07:52:46Z</time>
      </trkpt>
      <trkpt lat="46.86537" lon="-0.56431">
        <ele>219</ele>
        <time>2016-04-24T07:52:50Z</time>
      </trkpt>
      <trkpt lat="46.86528" lon="-0.56433">
        <ele>218</ele>
        <time>2016-04-24T07:52:54Z</time>
      </trkpt>
      <trkpt lat="46.86517" lon="-0.56437">
        <ele>218</ele>
        <time>2016-04-24T07:52:58Z</time>
      </trkpt>
      <trkpt lat="46.86508" lon="-0.5644">
        <ele>221</ele>
        <time>2016-04-24T07:53:02Z</time>
      </trkpt>
      <trkpt lat="46.86501" lon="-0.56441">
        <ele>221</ele>
        <time>2016-04-24T07:53:05Z</time>
      </trkpt>
      <trkpt lat="46.86493" lon="-0.56443">
        <ele>224</ele>
        <time>2016-04-24T07:53:09Z</time>
      </trkpt>
      <trkpt lat="46.86485" lon="-0.56443">
        <ele>225</ele>
        <time>2016-04-24T07:53:13Z</time>
      </trkpt>
      <trkpt lat="46.86477" lon="-0.56444">
        <ele>226</ele>
        <time>2016-04-24T07:53:17Z</time>
      </trkpt>
      <trkpt lat="46.86468" lon="-0.56443">
        <ele>226</ele>
        <time>2016-04-24T07:53:21Z</time>
      </trkpt>
      <trkpt lat="46.8646" lon="-0.56443">
        <ele>226</ele>
        <time>2016-04-24T07:53:25Z</time>
      </trkpt>
      <trkpt lat="46.86451" lon="-0.56442">
        <ele>223</ele>
        <time>2016-04-24T07:53:29Z</time>
      </trkpt>
      <trkpt lat="46.86445" lon="-0.5644">
        <ele>224</ele>
        <time>2016-04-24T07:53:33Z</time>
      </trkpt>
      <trkpt lat="46.86438" lon="-0.56436">
        <ele>223</ele>
        <time>2016-04-24T07:53:37Z</time>
      </trkpt>
      <trkpt lat="46.8643" lon="-0.56433">
        <ele>225</ele>
        <time>2016-04-24T07:53:44Z</time>
      </trkpt>
      <trkpt lat="46.86423" lon="-0.56437">
        <ele>226</ele>
        <time>2016-04-24T07:53:49Z</time>
      </trkpt>
      <trkpt lat="46.86418" lon="-0.56442">
        <ele>229</ele>
        <time>2016-04-24T07:53:54Z</time>
      </trkpt>
      <trkpt lat="46.86412" lon="-0.56447">
        <ele>229</ele>
        <time>2016-04-24T07:53:58Z</time>
      </trkpt>
      <trkpt lat="46.86404" lon="-0.56451">
        <ele>230</ele>
        <time>2016-04-24T07:54:02Z</time>
      </trkpt>
      <trkpt lat="46.86395" lon="-0.5645">
        <ele>230</ele>
        <time>2016-04-24T07:54:07Z</time>
      </trkpt>
      <trkpt lat="46.86386" lon="-0.56448">
        <ele>232</ele>
        <time>2016-04-24T07:54:12Z</time>
      </trkpt>
      <trkpt lat="46.86377" lon="-0.56453">
        <ele>231</ele>
        <time>2016-04-24T07:54:16Z</time>
      </trkpt>
      <trkpt lat="46.8637" lon="-0.5646">
        <ele>229</ele>
        <time>2016-04-24T07:54:21Z</time>
      </trkpt>
      <trkpt lat="46.86374" lon="-0.56449">
        <ele>220</ele>
        <time>2016-04-24T07:55:39Z</time>
      </trkpt>
      <trkpt lat="46.86385" lon="-0.56451">
        <ele>220</ele>
        <time>2016-04-24T07:55:43Z</time>
      </trkpt>
      <trkpt lat="46.86392" lon="-0.56472">
        <ele>218</ele>
        <time>2016-04-24T07:55:48Z</time>
      </trkpt>
      <trkpt lat="46.86381" lon="-0.56485">
        <ele>220</ele>
        <time>2016-04-24T07:55:53Z</time>
      </trkpt>
      <trkpt lat="46.86389" lon="-0.56479">
        <ele>218</ele>
        <time>2016-04-24T08:03:35Z</time>
      </trkpt>
      <trkpt lat="46.86391" lon="-0.56491">
        <ele>218</ele>
        <time>2016-04-24T08:03:42Z</time>
      </trkpt>
      <trkpt lat="46.86383" lon="-0.56511">
        <ele>218</ele>
        <time>2016-04-24T08:03:47Z</time>
      </trkpt>
      <trkpt lat="46.86377" lon="-0.56523">
        <ele>218</ele>
        <time>2016-04-24T08:03:51Z</time>
      </trkpt>
      <trkpt lat="46.86371" lon="-0.56533">
        <ele>219</ele>
        <time>2016-04-24T08:03:55Z</time>
      </trkpt>
      <trkpt lat="46.86362" lon="-0.56539">
        <ele>222</ele>
        <time>2016-04-24T08:03:59Z</time>
      </trkpt>
      <trkpt lat="46.86348" lon="-0.56548">
        <ele>218</ele>
        <time>2016-04-24T08:04:03Z</time>
      </trkpt>
      <trkpt lat="46.86337" lon="-0.56561">
        <ele>218</ele>
        <time>2016-04-24T08:04:07Z</time>
      </trkpt>
      <trkpt lat="46.8633" lon="-0.56575">
        <ele>220</ele>
        <time>2016-04-24T08:04:11Z</time>
      </trkpt>
      <trkpt lat="46.8632" lon="-0.56589">
        <ele>220</ele>
        <time>2016-04-24T08:04:15Z</time>
      </trkpt>
      <trkpt lat="46.8631" lon="-0.56603">
        <ele>221</ele>
        <time>2016-04-24T08:04:19Z</time>
      </trkpt>
      <trkpt lat="46.86299" lon="-0.56618">
        <ele>221</ele>
        <time>2016-04-24T08:04:23Z</time>
      </trkpt>
      <trkpt lat="46.86289" lon="-0.56633">
        <ele>221</ele>
        <time>2016-04-24T08:04:27Z</time>
      </trkpt>
      <trkpt lat="46.86278" lon="-0.56648">
        <ele>222</ele>
        <time>2016-04-24T08:04:31Z</time>
      </trkpt>
      <trkpt lat="46.86266" lon="-0.56663">
        <ele>221</ele>
        <time>2016-04-24T08:04:35Z</time>
      </trkpt>
      <trkpt lat="46.86262" lon="-0.56685">
        <ele>223</ele>
        <time>2016-04-24T08:04:39Z</time>
      </trkpt>
      <trkpt lat="46.8626" lon="-0.56705">
        <ele>225</ele>
        <time>2016-04-24T08:04:43Z</time>
      </trkpt>
      <trkpt lat="46.86253" lon="-0.56725">
        <ele>226</ele>
        <time>2016-04-24T08:04:47Z</time>
      </trkpt>
      <trkpt lat="46.86246" lon="-0.56739">
        <ele>227</ele>
        <time>2016-04-24T08:04:50Z</time>
      </trkpt>
      <trkpt lat="46.86237" lon="-0.56759">
        <ele>225</ele>
        <time>2016-04-24T08:04:54Z</time>
      </trkpt>
      <trkpt lat="46.86229" lon="-0.56778">
        <ele>226</ele>
        <time>2016-04-24T08:04:58Z</time>
      </trkpt>
      <trkpt lat="46.86221" lon="-0.56797">
        <ele>226</ele>
        <time>2016-04-24T08:05:02Z</time>
      </trkpt>
      <trkpt lat="46.86214" lon="-0.56814">
        <ele>226</ele>
        <time>2016-04-24T08:05:06Z</time>
      </trkpt>
      <trkpt lat="46.86206" lon="-0.56832">
        <ele>226</ele>
        <time>2016-04-24T08:05:10Z</time>
      </trkpt>
      <trkpt lat="46.86198" lon="-0.5685">
        <ele>227</ele>
        <time>2016-04-24T08:05:14Z</time>
      </trkpt>
      <trkpt lat="46.86191" lon="-0.56867">
        <ele>228</ele>
        <time>2016-04-24T08:05:18Z</time>
      </trkpt>
      <trkpt lat="46.86183" lon="-0.56883">
        <ele>228</ele>
        <time>2016-04-24T08:05:22Z</time>
      </trkpt>
      <trkpt lat="46.86176" lon="-0.569">
        <ele>230</ele>
        <time>2016-04-24T08:05:26Z</time>
      </trkpt>
      <trkpt lat="46.86169" lon="-0.56916">
        <ele>230</ele>
        <time>2016-04-24T08:05:30Z</time>
      </trkpt>
      <trkpt lat="46.8616" lon="-0.56938">
        <ele>230</ele>
        <time>2016-04-24T08:05:35Z</time>
      </trkpt>
      <trkpt lat="46.86155" lon="-0.56951">
        <ele>231</ele>
        <time>2016-04-24T08:05:38Z</time>
      </trkpt>
      <trkpt lat="46.86149" lon="-0.5697">
        <ele>231</ele>
        <time>2016-04-24T08:05:42Z</time>
      </trkpt>
      <trkpt lat="46.86143" lon="-0.56995">
        <ele>231</ele>
        <time>2016-04-24T08:05:47Z</time>
      </trkpt>
      <trkpt lat="46.8614" lon="-0.57016">
        <ele>230</ele>
        <time>2016-04-24T08:05:51Z</time>
      </trkpt>
      <trkpt lat="46.86137" lon="-0.57041">
        <ele>230</ele>
        <time>2016-04-24T08:05:56Z</time>
      </trkpt>
      <trkpt lat="46.86136" lon="-0.57057">
        <ele>229</ele>
        <time>2016-04-24T08:05:59Z</time>
      </trkpt>
      <trkpt lat="46.86134" lon="-0.57079">
        <ele>230</ele>
        <time>2016-04-24T08:06:03Z</time>
      </trkpt>
      <trkpt lat="46.86131" lon="-0.57099">
        <ele>230</ele>
        <time>2016-04-24T08:06:07Z</time>
      </trkpt>
      <trkpt lat="46.86128" lon="-0.57122">
        <ele>230</ele>
        <time>2016-04-24T08:06:11Z</time>
      </trkpt>
      <trkpt lat="46.86127" lon="-0.5714">
        <ele>229</ele>
        <time>2016-04-24T08:06:15Z</time>
      </trkpt>
      <trkpt lat="46.86122" lon="-0.57154">
        <ele>231</ele>
        <time>2016-04-24T08:06:19Z</time>
      </trkpt>
      <trkpt lat="46.86117" lon="-0.57168">
        <ele>232</ele>
        <time>2016-04-24T08:06:23Z</time>
      </trkpt>
      <trkpt lat="46.86109" lon="-0.57182">
        <ele>231</ele>
        <time>2016-04-24T08:06:27Z</time>
      </trkpt>
      <trkpt lat="46.86105" lon="-0.57197">
        <ele>231</ele>
        <time>2016-04-24T08:06:31Z</time>
      </trkpt>
      <trkpt lat="46.86099" lon="-0.57207">
        <ele>231</ele>
        <time>2016-04-24T08:06:35Z</time>
      </trkpt>
      <trkpt lat="46.86099" lon="-0.57195">
        <ele>231</ele>
        <time>2016-04-24T08:06:42Z</time>
      </trkpt>
      <trkpt lat="46.86105" lon="-0.57188">
        <ele>231</ele>
        <time>2016-04-24T08:06:49Z</time>
      </trkpt>
      <trkpt lat="46.86111" lon="-0.57176">
        <ele>231</ele>
        <time>2016-04-24T08:06:54Z</time>
      </trkpt>
      <trkpt lat="46.86111" lon="-0.57187">
        <ele>231</ele>
        <time>2016-04-24T08:06:59Z</time>
      </trkpt>
      <trkpt lat="46.86105" lon="-0.57196">
        <ele>230</ele>
        <time>2016-04-24T08:07:03Z</time>
      </trkpt>
      <trkpt lat="46.86099" lon="-0.57208">
        <ele>230</ele>
        <time>2016-04-24T08:07:07Z</time>
      </trkpt>
      <trkpt lat="46.86089" lon="-0.57222">
        <ele>230</ele>
        <time>2016-04-24T08:07:11Z</time>
      </trkpt>
      <trkpt lat="46.86073" lon="-0.57235">
        <ele>228</ele>
        <time>2016-04-24T08:07:15Z</time>
      </trkpt>
      <trkpt lat="46.86059" lon="-0.57253">
        <ele>228</ele>
        <time>2016-04-24T08:07:19Z</time>
      </trkpt>
      <trkpt lat="46.86046" lon="-0.57265">
        <ele>229</ele>
        <time>2016-04-24T08:07:23Z</time>
      </trkpt>
      <trkpt lat="46.86034" lon="-0.57278">
        <ele>228</ele>
        <time>2016-04-24T08:07:27Z</time>
      </trkpt>
      <trkpt lat="46.86022" lon="-0.57292">
        <ele>230</ele>
        <time>2016-04-24T08:07:31Z</time>
      </trkpt>
      <trkpt lat="46.86009" lon="-0.57308">
        <ele>231</ele>
        <time>2016-04-24T08:07:35Z</time>
      </trkpt>
      <trkpt lat="46.85998" lon="-0.57323">
        <ele>231</ele>
        <time>2016-04-24T08:07:39Z</time>
      </trkpt>
      <trkpt lat="46.85982" lon="-0.5734">
        <ele>230</ele>
        <time>2016-04-24T08:07:43Z</time>
      </trkpt>
      <trkpt lat="46.85968" lon="-0.57356">
        <ele>229</ele>
        <time>2016-04-24T08:07:47Z</time>
      </trkpt>
      <trkpt lat="46.85952" lon="-0.57372">
        <ele>229</ele>
        <time>2016-04-24T08:07:51Z</time>
      </trkpt>
      <trkpt lat="46.85933" lon="-0.5739">
        <ele>227</ele>
        <time>2016-04-24T08:07:55Z</time>
      </trkpt>
      <trkpt lat="46.85917" lon="-0.57407">
        <ele>227</ele>
        <time>2016-04-24T08:07:59Z</time>
      </trkpt>
      <trkpt lat="46.85899" lon="-0.57423">
        <ele>227</ele>
        <time>2016-04-24T08:08:03Z</time>
      </trkpt>
      <trkpt lat="46.8588" lon="-0.57438">
        <ele>226</ele>
        <time>2016-04-24T08:08:07Z</time>
      </trkpt>
      <trkpt lat="46.85863" lon="-0.57463">
        <ele>227</ele>
        <time>2016-04-24T08:08:11Z</time>
      </trkpt>
      <trkpt lat="46.85845" lon="-0.57495">
        <ele>228</ele>
        <time>2016-04-24T08:08:16Z</time>
      </trkpt>
      <trkpt lat="46.8583" lon="-0.57527">
        <ele>228</ele>
        <time>2016-04-24T08:08:21Z</time>
      </trkpt>
      <trkpt lat="46.85821" lon="-0.57539">
        <ele>229</ele>
        <time>2016-04-24T08:08:25Z</time>
      </trkpt>
      <trkpt lat="46.8582" lon="-0.57552">
        <ele>230</ele>
        <time>2016-04-24T08:08:28Z</time>
      </trkpt>
      <trkpt lat="46.85812" lon="-0.57569">
        <ele>230</ele>
        <time>2016-04-24T08:08:32Z</time>
      </trkpt>
      <trkpt lat="46.85801" lon="-0.57599">
        <ele>231</ele>
        <time>2016-04-24T08:08:37Z</time>
      </trkpt>
      <trkpt lat="46.85793" lon="-0.57623">
        <ele>231</ele>
        <time>2016-04-24T08:08:41Z</time>
      </trkpt>
      <trkpt lat="46.85783" lon="-0.57651">
        <ele>232</ele>
        <time>2016-04-24T08:08:45Z</time>
      </trkpt>
      <trkpt lat="46.85773" lon="-0.57676">
        <ele>235</ele>
        <time>2016-04-24T08:08:49Z</time>
      </trkpt>
      <trkpt lat="46.85759" lon="-0.57709">
        <ele>237</ele>
        <time>2016-04-24T08:08:54Z</time>
      </trkpt>
      <trkpt lat="46.85748" lon="-0.57734">
        <ele>236</ele>
        <time>2016-04-24T08:08:58Z</time>
      </trkpt>
      <trkpt lat="46.85737" lon="-0.57757">
        <ele>237</ele>
        <time>2016-04-24T08:09:02Z</time>
      </trkpt>
      <trkpt lat="46.85727" lon="-0.57783">
        <ele>236</ele>
        <time>2016-04-24T08:09:06Z</time>
      </trkpt>
      <trkpt lat="46.85715" lon="-0.57815">
        <ele>235</ele>
        <time>2016-04-24T08:09:11Z</time>
      </trkpt>
      <trkpt lat="46.85706" lon="-0.57838">
        <ele>237</ele>
        <time>2016-04-24T08:09:15Z</time>
      </trkpt>
      <trkpt lat="46.85699" lon="-0.57857">
        <ele>237</ele>
        <time>2016-04-24T08:09:19Z</time>
      </trkpt>
      <trkpt lat="46.85706" lon="-0.57861">
        <ele>236</ele>
        <time>2016-04-24T08:09:28Z</time>
      </trkpt>
      <trkpt lat="46.85713" lon="-0.57883">
        <ele>234</ele>
        <time>2016-04-24T08:09:32Z</time>
      </trkpt>
      <trkpt lat="46.85719" lon="-0.57901">
        <ele>233</ele>
        <time>2016-04-24T08:09:36Z</time>
      </trkpt>
      <trkpt lat="46.85726" lon="-0.57919">
        <ele>233</ele>
        <time>2016-04-24T08:09:40Z</time>
      </trkpt>
      <trkpt lat="46.85732" lon="-0.57938">
        <ele>232</ele>
        <time>2016-04-24T08:09:44Z</time>
      </trkpt>
      <trkpt lat="46.85739" lon="-0.57961">
        <ele>231</ele>
        <time>2016-04-24T08:09:49Z</time>
      </trkpt>
      <trkpt lat="46.85744" lon="-0.57979">
        <ele>231</ele>
        <time>2016-04-24T08:09:53Z</time>
      </trkpt>
      <trkpt lat="46.85751" lon="-0.57996">
        <ele>231</ele>
        <time>2016-04-24T08:09:57Z</time>
      </trkpt>
      <trkpt lat="46.85757" lon="-0.58016">
        <ele>231</ele>
        <time>2016-04-24T08:10:01Z</time>
      </trkpt>
      <trkpt lat="46.85763" lon="-0.58043">
        <ele>231</ele>
        <time>2016-04-24T08:10:05Z</time>
      </trkpt>
      <trkpt lat="46.85768" lon="-0.58064">
        <ele>229</ele>
        <time>2016-04-24T08:10:09Z</time>
      </trkpt>
      <trkpt lat="46.85774" lon="-0.58087">
        <ele>229</ele>
        <time>2016-04-24T08:10:13Z</time>
      </trkpt>
      <trkpt lat="46.85779" lon="-0.58114">
        <ele>230</ele>
        <time>2016-04-24T08:10:17Z</time>
      </trkpt>
      <trkpt lat="46.85787" lon="-0.58139">
        <ele>229</ele>
        <time>2016-04-24T08:10:21Z</time>
      </trkpt>
      <trkpt lat="46.85794" lon="-0.58163">
        <ele>229</ele>
        <time>2016-04-24T08:10:25Z</time>
      </trkpt>
      <trkpt lat="46.858" lon="-0.58187">
        <ele>228</ele>
        <time>2016-04-24T08:10:29Z</time>
      </trkpt>
      <trkpt lat="46.85807" lon="-0.58217">
        <ele>230</ele>
        <time>2016-04-24T08:10:34Z</time>
      </trkpt>
      <trkpt lat="46.85813" lon="-0.58241">
        <ele>232</ele>
        <time>2016-04-24T08:10:38Z</time>
      </trkpt>
      <trkpt lat="46.85819" lon="-0.58265">
        <ele>232</ele>
        <time>2016-04-24T08:10:42Z</time>
      </trkpt>
      <trkpt lat="46.85824" lon="-0.58288">
        <ele>231</ele>
        <time>2016-04-24T08:10:45Z</time>
      </trkpt>
      <trkpt lat="46.8583" lon="-0.58313">
        <ele>233</ele>
        <time>2016-04-24T08:10:50Z</time>
      </trkpt>
      <trkpt lat="46.85828" lon="-0.58333">
        <ele>233</ele>
        <time>2016-04-24T08:10:55Z</time>
      </trkpt>
      <trkpt lat="46.85827" lon="-0.58353">
        <ele>232</ele>
        <time>2016-04-24T08:10:59Z</time>
      </trkpt>
      <trkpt lat="46.85826" lon="-0.58374">
        <ele>236</ele>
        <time>2016-04-24T08:11:03Z</time>
      </trkpt>
      <trkpt lat="46.85825" lon="-0.58389">
        <ele>240</ele>
        <time>2016-04-24T08:11:07Z</time>
      </trkpt>
      <trkpt lat="46.85825" lon="-0.58417">
        <ele>236</ele>
        <time>2016-04-24T08:11:11Z</time>
      </trkpt>
      <trkpt lat="46.85825" lon="-0.58445">
        <ele>234</ele>
        <time>2016-04-24T08:11:15Z</time>
      </trkpt>
      <trkpt lat="46.85825" lon="-0.58469">
        <ele>235</ele>
        <time>2016-04-24T08:11:19Z</time>
      </trkpt>
      <trkpt lat="46.85825" lon="-0.58503">
        <ele>234</ele>
        <time>2016-04-24T08:11:24Z</time>
      </trkpt>
      <trkpt lat="46.85826" lon="-0.58536">
        <ele>233</ele>
        <time>2016-04-24T08:11:28Z</time>
      </trkpt>
      <trkpt lat="46.85825" lon="-0.58564">
        <ele>234</ele>
        <time>2016-04-24T08:11:32Z</time>
      </trkpt>
      <trkpt lat="46.85822" lon="-0.58592">
        <ele>234</ele>
        <time>2016-04-24T08:11:36Z</time>
      </trkpt>
      <trkpt lat="46.85821" lon="-0.58619">
        <ele>235</ele>
        <time>2016-04-24T08:11:40Z</time>
      </trkpt>
      <trkpt lat="46.8582" lon="-0.58638">
        <ele>237</ele>
        <time>2016-04-24T08:11:44Z</time>
      </trkpt>
      <trkpt lat="46.85819" lon="-0.58667">
        <ele>239</ele>
        <time>2016-04-24T08:11:48Z</time>
      </trkpt>
      <trkpt lat="46.85819" lon="-0.58696">
        <ele>238</ele>
        <time>2016-04-24T08:11:52Z</time>
      </trkpt>
      <trkpt lat="46.85816" lon="-0.58739">
        <ele>239</ele>
        <time>2016-04-24T08:11:57Z</time>
      </trkpt>
      <trkpt lat="46.85816" lon="-0.58769">
        <ele>236</ele>
        <time>2016-04-24T08:12:01Z</time>
      </trkpt>
      <trkpt lat="46.85813" lon="-0.58804">
        <ele>234</ele>
        <time>2016-04-24T08:12:05Z</time>
      </trkpt>
      <trkpt lat="46.85815" lon="-0.58837">
        <ele>233</ele>
        <time>2016-04-24T08:12:10Z</time>
      </trkpt>
      <trkpt lat="46.85814" lon="-0.58869">
        <ele>233</ele>
        <time>2016-04-24T08:12:15Z</time>
      </trkpt>
      <trkpt lat="46.85815" lon="-0.58896">
        <ele>233</ele>
        <time>2016-04-24T08:12:19Z</time>
      </trkpt>
      <trkpt lat="46.85819" lon="-0.58918">
        <ele>233</ele>
        <time>2016-04-24T08:12:22Z</time>
      </trkpt>
      <trkpt lat="46.85823" lon="-0.58949">
        <ele>233</ele>
        <time>2016-04-24T08:12:26Z</time>
      </trkpt>
      <trkpt lat="46.85825" lon="-0.58975">
        <ele>231</ele>
        <time>2016-04-24T08:12:30Z</time>
      </trkpt>
      <trkpt lat="46.85826" lon="-0.58998">
        <ele>232</ele>
        <time>2016-04-24T08:12:34Z</time>
      </trkpt>
      <trkpt lat="46.85831" lon="-0.59022">
        <ele>232</ele>
        <time>2016-04-24T08:12:38Z</time>
      </trkpt>
      <trkpt lat="46.85833" lon="-0.5905">
        <ele>232</ele>
        <time>2016-04-24T08:12:42Z</time>
      </trkpt>
      <trkpt lat="46.85837" lon="-0.59076">
        <ele>231</ele>
        <time>2016-04-24T08:12:46Z</time>
      </trkpt>
      <trkpt lat="46.85839" lon="-0.59099">
        <ele>230</ele>
        <time>2016-04-24T08:12:50Z</time>
      </trkpt>
      <trkpt lat="46.85846" lon="-0.59122">
        <ele>232</ele>
        <time>2016-04-24T08:12:54Z</time>
      </trkpt>
      <trkpt lat="46.85855" lon="-0.59145">
        <ele>234</ele>
        <time>2016-04-24T08:12:59Z</time>
      </trkpt>
      <trkpt lat="46.85859" lon="-0.59163">
        <ele>233</ele>
        <time>2016-04-24T08:13:03Z</time>
      </trkpt>
      <trkpt lat="46.85849" lon="-0.59172">
        <ele>236</ele>
        <time>2016-04-24T08:13:07Z</time>
      </trkpt>
      <trkpt lat="46.85834" lon="-0.59168">
        <ele>236</ele>
        <time>2016-04-24T08:13:11Z</time>
      </trkpt>
      <trkpt lat="46.85828" lon="-0.59184">
        <ele>237</ele>
        <time>2016-04-24T08:13:15Z</time>
      </trkpt>
      <trkpt lat="46.85825" lon="-0.59208">
        <ele>236</ele>
        <time>2016-04-24T08:13:19Z</time>
      </trkpt>
      <trkpt lat="46.85821" lon="-0.59232">
        <ele>236</ele>
        <time>2016-04-24T08:13:23Z</time>
      </trkpt>
      <trkpt lat="46.85816" lon="-0.59256">
        <ele>235</ele>
        <time>2016-04-24T08:13:27Z</time>
      </trkpt>
      <trkpt lat="46.85813" lon="-0.5928">
        <ele>235</ele>
        <time>2016-04-24T08:13:31Z</time>
      </trkpt>
      <trkpt lat="46.85809" lon="-0.59308">
        <ele>235</ele>
        <time>2016-04-24T08:13:36Z</time>
      </trkpt>
      <trkpt lat="46.85808" lon="-0.59321">
        <ele>235</ele>
        <time>2016-04-24T08:13:40Z</time>
      </trkpt>
      <trkpt lat="46.85816" lon="-0.59327">
        <ele>232</ele>
        <time>2016-04-24T08:13:48Z</time>
      </trkpt>
      <trkpt lat="46.85824" lon="-0.5933">
        <ele>234</ele>
        <time>2016-04-24T08:13:55Z</time>
      </trkpt>
      <trkpt lat="46.85832" lon="-0.59332">
        <ele>233</ele>
        <time>2016-04-24T08:14:01Z</time>
      </trkpt>
      <trkpt lat="46.85838" lon="-0.59335">
        <ele>233</ele>
        <time>2016-04-24T08:14:05Z</time>
      </trkpt>
      <trkpt lat="46.85846" lon="-0.59338">
        <ele>232</ele>
        <time>2016-04-24T08:14:10Z</time>
      </trkpt>
      <trkpt lat="46.85855" lon="-0.59343">
        <ele>231</ele>
        <time>2016-04-24T08:14:14Z</time>
      </trkpt>
      <trkpt lat="46.85862" lon="-0.59346">
        <ele>234</ele>
        <time>2016-04-24T08:14:18Z</time>
      </trkpt>
      <trkpt lat="46.85871" lon="-0.59349">
        <ele>232</ele>
        <time>2016-04-24T08:14:22Z</time>
      </trkpt>
      <trkpt lat="46.85881" lon="-0.59353">
        <ele>232</ele>
        <time>2016-04-24T08:14:26Z</time>
      </trkpt>
      <trkpt lat="46.85892" lon="-0.59359">
        <ele>232</ele>
        <time>2016-04-24T08:14:30Z</time>
      </trkpt>
      <trkpt lat="46.85902" lon="-0.59364">
        <ele>233</ele>
        <time>2016-04-24T08:14:34Z</time>
      </trkpt>
      <trkpt lat="46.85913" lon="-0.5937">
        <ele>232</ele>
        <time>2016-04-24T08:14:38Z</time>
      </trkpt>
      <trkpt lat="46.85921" lon="-0.59373">
        <ele>239</ele>
        <time>2016-04-24T08:14:42Z</time>
      </trkpt>
      <trkpt lat="46.85935" lon="-0.59378">
        <ele>239</ele>
        <time>2016-04-24T08:14:46Z</time>
      </trkpt>
      <trkpt lat="46.85951" lon="-0.59385">
        <ele>238</ele>
        <time>2016-04-24T08:14:50Z</time>
      </trkpt>
      <trkpt lat="46.85967" lon="-0.59391">
        <ele>237</ele>
        <time>2016-04-24T08:14:54Z</time>
      </trkpt>
      <trkpt lat="46.85983" lon="-0.59398">
        <ele>236</ele>
        <time>2016-04-24T08:14:58Z</time>
      </trkpt>
      <trkpt lat="46.85998" lon="-0.59412">
        <ele>235</ele>
        <time>2016-04-24T08:15:02Z</time>
      </trkpt>
      <trkpt lat="46.8601" lon="-0.59435">
        <ele>232</ele>
        <time>2016-04-24T08:15:06Z</time>
      </trkpt>
      <trkpt lat="46.86022" lon="-0.59458">
        <ele>230</ele>
        <time>2016-04-24T08:15:10Z</time>
      </trkpt>
      <trkpt lat="46.86033" lon="-0.59487">
        <ele>226</ele>
        <time>2016-04-24T08:15:14Z</time>
      </trkpt>
      <trkpt lat="46.86041" lon="-0.5951">
        <ele>225</ele>
        <time>2016-04-24T08:15:18Z</time>
      </trkpt>
      <trkpt lat="46.86053" lon="-0.59538">
        <ele>224</ele>
        <time>2016-04-24T08:15:23Z</time>
      </trkpt>
      <trkpt lat="46.86052" lon="-0.59558">
        <ele>224</ele>
        <time>2016-04-24T08:15:27Z</time>
      </trkpt>
      <trkpt lat="46.86034" lon="-0.59572">
        <ele>226</ele>
        <time>2016-04-24T08:15:32Z</time>
      </trkpt>
      <trkpt lat="46.86013" lon="-0.59593">
        <ele>226</ele>
        <time>2016-04-24T08:15:37Z</time>
      </trkpt>
      <trkpt lat="46.85995" lon="-0.59608">
        <ele>225</ele>
        <time>2016-04-24T08:15:41Z</time>
      </trkpt>
      <trkpt lat="46.85971" lon="-0.59631">
        <ele>222</ele>
        <time>2016-04-24T08:15:46Z</time>
      </trkpt>
      <trkpt lat="46.85951" lon="-0.59653">
        <ele>221</ele>
        <time>2016-04-24T08:15:50Z</time>
      </trkpt>
      <trkpt lat="46.85933" lon="-0.5967">
        <ele>224</ele>
        <time>2016-04-24T08:15:54Z</time>
      </trkpt>
      <trkpt lat="46.85911" lon="-0.59694">
        <ele>223</ele>
        <time>2016-04-24T08:15:58Z</time>
      </trkpt>
      <trkpt lat="46.85891" lon="-0.59716">
        <ele>225</ele>
        <time>2016-04-24T08:16:02Z</time>
      </trkpt>
      <trkpt lat="46.85871" lon="-0.5974">
        <ele>227</ele>
        <time>2016-04-24T08:16:06Z</time>
      </trkpt>
      <trkpt lat="46.85848" lon="-0.59764">
        <ele>226</ele>
        <time>2016-04-24T08:16:10Z</time>
      </trkpt>
      <trkpt lat="46.85826" lon="-0.59787">
        <ele>225</ele>
        <time>2016-04-24T08:16:14Z</time>
      </trkpt>
      <trkpt lat="46.85804" lon="-0.59803">
        <ele>227</ele>
        <time>2016-04-24T08:16:18Z</time>
      </trkpt>
      <trkpt lat="46.85783" lon="-0.59824">
        <ele>229</ele>
        <time>2016-04-24T08:16:22Z</time>
      </trkpt>
      <trkpt lat="46.85762" lon="-0.59847">
        <ele>225</ele>
        <time>2016-04-24T08:16:26Z</time>
      </trkpt>
      <trkpt lat="46.85741" lon="-0.59881">
        <ele>225</ele>
        <time>2016-04-24T08:16:31Z</time>
      </trkpt>
      <trkpt lat="46.85721" lon="-0.59911">
        <ele>223</ele>
        <time>2016-04-24T08:16:35Z</time>
      </trkpt>
      <trkpt lat="46.85704" lon="-0.59941">
        <ele>222</ele>
        <time>2016-04-24T08:16:39Z</time>
      </trkpt>
      <trkpt lat="46.85687" lon="-0.5997">
        <ele>222</ele>
        <time>2016-04-24T08:16:43Z</time>
      </trkpt>
      <trkpt lat="46.85674" lon="-0.60001">
        <ele>222</ele>
        <time>2016-04-24T08:16:47Z</time>
      </trkpt>
      <trkpt lat="46.85661" lon="-0.60032">
        <ele>222</ele>
        <time>2016-04-24T08:16:51Z</time>
      </trkpt>
      <trkpt lat="46.85648" lon="-0.60059">
        <ele>223</ele>
        <time>2016-04-24T08:16:55Z</time>
      </trkpt>
      <trkpt lat="46.85637" lon="-0.60083">
        <ele>223</ele>
        <time>2016-04-24T08:16:59Z</time>
      </trkpt>
      <trkpt lat="46.85628" lon="-0.60104">
        <ele>224</ele>
        <time>2016-04-24T08:17:03Z</time>
      </trkpt>
      <trkpt lat="46.85622" lon="-0.60124">
        <ele>225</ele>
        <time>2016-04-24T08:17:07Z</time>
      </trkpt>
      <trkpt lat="46.85614" lon="-0.60142">
        <ele>225</ele>
        <time>2016-04-24T08:17:11Z</time>
      </trkpt>
      <trkpt lat="46.85608" lon="-0.60157">
        <ele>224</ele>
        <time>2016-04-24T08:17:15Z</time>
      </trkpt>
      <trkpt lat="46.85603" lon="-0.6017">
        <ele>222</ele>
        <time>2016-04-24T08:17:18Z</time>
      </trkpt>
      <trkpt lat="46.85594" lon="-0.60187">
        <ele>223</ele>
        <time>2016-04-24T08:17:22Z</time>
      </trkpt>
      <trkpt lat="46.85584" lon="-0.60218">
        <ele>229</ele>
        <time>2016-04-24T08:17:27Z</time>
      </trkpt>
      <trkpt lat="46.85573" lon="-0.6025">
        <ele>230</ele>
        <time>2016-04-24T08:17:31Z</time>
      </trkpt>
      <trkpt lat="46.85564" lon="-0.60285">
        <ele>229</ele>
        <time>2016-04-24T08:17:35Z</time>
      </trkpt>
      <trkpt lat="46.85556" lon="-0.60322">
        <ele>230</ele>
        <time>2016-04-24T08:17:40Z</time>
      </trkpt>
      <trkpt lat="46.85552" lon="-0.60352">
        <ele>226</ele>
        <time>2016-04-24T08:17:45Z</time>
      </trkpt>
      <trkpt lat="46.85547" lon="-0.6037">
        <ele>226</ele>
        <time>2016-04-24T08:17:50Z</time>
      </trkpt>
      <trkpt lat="46.85542" lon="-0.6038">
        <ele>230</ele>
        <time>2016-04-24T08:17:55Z</time>
      </trkpt>
      <trkpt lat="46.85538" lon="-0.60393">
        <ele>230</ele>
        <time>2016-04-24T08:17:59Z</time>
      </trkpt>
      <trkpt lat="46.85534" lon="-0.60404">
        <ele>231</ele>
        <time>2016-04-24T08:18:03Z</time>
      </trkpt>
      <trkpt lat="46.85531" lon="-0.60413">
        <ele>227</ele>
        <time>2016-04-24T08:18:08Z</time>
      </trkpt>
      <trkpt lat="46.85527" lon="-0.60425">
        <ele>225</ele>
        <time>2016-04-24T08:18:29Z</time>
      </trkpt>
      <trkpt lat="46.85522" lon="-0.60435">
        <ele>228</ele>
        <time>2016-04-24T08:18:50Z</time>
      </trkpt>
      <trkpt lat="46.85519" lon="-0.60445">
        <ele>229</ele>
        <time>2016-04-24T08:18:58Z</time>
      </trkpt>
      <trkpt lat="46.85517" lon="-0.60456">
        <ele>230</ele>
        <time>2016-04-24T08:19:02Z</time>
      </trkpt>
      <trkpt lat="46.85514" lon="-0.60469">
        <ele>235</ele>
        <time>2016-04-24T08:19:06Z</time>
      </trkpt>
      <trkpt lat="46.8551" lon="-0.60489">
        <ele>237</ele>
        <time>2016-04-24T08:19:10Z</time>
      </trkpt>
      <trkpt lat="46.85503" lon="-0.60512">
        <ele>238</ele>
        <time>2016-04-24T08:19:15Z</time>
      </trkpt>
      <trkpt lat="46.85496" lon="-0.60527">
        <ele>235</ele>
        <time>2016-04-24T08:19:19Z</time>
      </trkpt>
      <trkpt lat="46.85489" lon="-0.60546">
        <ele>234</ele>
        <time>2016-04-24T08:19:23Z</time>
      </trkpt>
      <trkpt lat="46.8548" lon="-0.60566">
        <ele>232</ele>
        <time>2016-04-24T08:19:27Z</time>
      </trkpt>
      <trkpt lat="46.85474" lon="-0.60576">
        <ele>232</ele>
        <time>2016-04-24T08:19:31Z</time>
      </trkpt>
      <trkpt lat="46.85462" lon="-0.60597">
        <ele>231</ele>
        <time>2016-04-24T08:19:35Z</time>
      </trkpt>
      <trkpt lat="46.8545" lon="-0.60618">
        <ele>231</ele>
        <time>2016-04-24T08:19:39Z</time>
      </trkpt>
      <trkpt lat="46.85439" lon="-0.60633">
        <ele>233</ele>
        <time>2016-04-24T08:19:43Z</time>
      </trkpt>
      <trkpt lat="46.8544" lon="-0.60656">
        <ele>232</ele>
        <time>2016-04-24T08:19:47Z</time>
      </trkpt>
      <trkpt lat="46.8544" lon="-0.60678">
        <ele>232</ele>
        <time>2016-04-24T08:19:51Z</time>
      </trkpt>
      <trkpt lat="46.85435" lon="-0.60714">
        <ele>229</ele>
        <time>2016-04-24T08:19:55Z</time>
      </trkpt>
      <trkpt lat="46.8542" lon="-0.60748">
        <ele>228</ele>
        <time>2016-04-24T08:20:00Z</time>
      </trkpt>
      <trkpt lat="46.8542" lon="-0.60767">
        <ele>228</ele>
        <time>2016-04-24T08:20:03Z</time>
      </trkpt>
      <trkpt lat="46.85411" lon="-0.60783">
        <ele>233</ele>
        <time>2016-04-24T08:20:07Z</time>
      </trkpt>
      <trkpt lat="46.85401" lon="-0.60798">
        <ele>233</ele>
        <time>2016-04-24T08:20:11Z</time>
      </trkpt>
      <trkpt lat="46.8539" lon="-0.60815">
        <ele>229</ele>
        <time>2016-04-24T08:20:15Z</time>
      </trkpt>
      <trkpt lat="46.8538" lon="-0.60826">
        <ele>226</ele>
        <time>2016-04-24T08:20:19Z</time>
      </trkpt>
      <trkpt lat="46.85367" lon="-0.60835">
        <ele>221</ele>
        <time>2016-04-24T08:20:23Z</time>
      </trkpt>
      <trkpt lat="46.85362" lon="-0.60843">
        <ele>225</ele>
        <time>2016-04-24T08:20:27Z</time>
      </trkpt>
      <trkpt lat="46.85353" lon="-0.60855">
        <ele>226</ele>
        <time>2016-04-24T08:20:31Z</time>
      </trkpt>
      <trkpt lat="46.85348" lon="-0.60864">
        <ele>223</ele>
        <time>2016-04-24T08:21:21Z</time>
      </trkpt>
      <trkpt lat="46.85352" lon="-0.60853">
        <ele>220</ele>
        <time>2016-04-24T08:23:35Z</time>
      </trkpt>
      <trkpt lat="46.85354" lon="-0.60841">
        <ele>222</ele>
        <time>2016-04-24T08:23:43Z</time>
      </trkpt>
      <trkpt lat="46.85353" lon="-0.60828">
        <ele>223</ele>
        <time>2016-04-24T08:23:52Z</time>
      </trkpt>
      <trkpt lat="46.85355" lon="-0.6084">
        <ele>219</ele>
        <time>2016-04-24T08:24:16Z</time>
      </trkpt>
      <trkpt lat="46.85351" lon="-0.60847">
        <ele>220</ele>
        <time>2016-04-24T08:24:21Z</time>
      </trkpt>
      <trkpt lat="46.85346" lon="-0.60858">
        <ele>219</ele>
        <time>2016-04-24T08:24:26Z</time>
      </trkpt>
      <trkpt lat="46.85343" lon="-0.6087">
        <ele>219</ele>
        <time>2016-04-24T08:24:38Z</time>
      </trkpt>
      <trkpt lat="46.85346" lon="-0.60867">
        <ele>218</ele>
        <time>2016-04-24T08:24:43Z</time>
      </trkpt>
      <trkpt lat="46.85354" lon="-0.60857">
        <ele>219</ele>
        <time>2016-04-24T08:24:47Z</time>
      </trkpt>
      <trkpt lat="46.85347" lon="-0.60862">
        <ele>220</ele>
        <time>2016-04-24T08:26:01Z</time>
      </trkpt>
      <trkpt lat="46.85339" lon="-0.60873">
        <ele>222</ele>
        <time>2016-04-24T08:26:05Z</time>
      </trkpt>
      <trkpt lat="46.85332" lon="-0.60888">
        <ele>222</ele>
        <time>2016-04-24T08:26:09Z</time>
      </trkpt>
      <trkpt lat="46.85326" lon="-0.609">
        <ele>223</ele>
        <time>2016-04-24T08:26:13Z</time>
      </trkpt>
      <trkpt lat="46.85318" lon="-0.60916">
        <ele>224</ele>
        <time>2016-04-24T08:26:18Z</time>
      </trkpt>
      <trkpt lat="46.85314" lon="-0.60928">
        <ele>225</ele>
        <time>2016-04-24T08:26:22Z</time>
      </trkpt>
      <trkpt lat="46.85309" lon="-0.60942">
        <ele>227</ele>
        <time>2016-04-24T08:26:26Z</time>
      </trkpt>
      <trkpt lat="46.85304" lon="-0.60956">
        <ele>228</ele>
        <time>2016-04-24T08:26:30Z</time>
      </trkpt>
      <trkpt lat="46.85296" lon="-0.60968">
        <ele>229</ele>
        <time>2016-04-24T08:26:35Z</time>
      </trkpt>
      <trkpt lat="46.85304" lon="-0.60969">
        <ele>224</ele>
        <time>2016-04-24T08:29:14Z</time>
      </trkpt>
      <trkpt lat="46.85314" lon="-0.60972">
        <ele>224</ele>
        <time>2016-04-24T08:29:18Z</time>
      </trkpt>
      <trkpt lat="46.85321" lon="-0.60986">
        <ele>225</ele>
        <time>2016-04-24T08:29:22Z</time>
      </trkpt>
      <trkpt lat="46.85326" lon="-0.61004">
        <ele>226</ele>
        <time>2016-04-24T08:29:26Z</time>
      </trkpt>
      <trkpt lat="46.8533" lon="-0.61014">
        <ele>228</ele>
        <time>2016-04-24T08:29:30Z</time>
      </trkpt>
      <trkpt lat="46.8534" lon="-0.61025">
        <ele>227</ele>
        <time>2016-04-24T08:29:34Z</time>
      </trkpt>
      <trkpt lat="46.85355" lon="-0.61033">
        <ele>227</ele>
        <time>2016-04-24T08:29:38Z</time>
      </trkpt>
      <trkpt lat="46.85371" lon="-0.61045">
        <ele>226</ele>
        <time>2016-04-24T08:29:42Z</time>
      </trkpt>
      <trkpt lat="46.8539" lon="-0.61057">
        <ele>223</ele>
        <time>2016-04-24T08:29:46Z</time>
      </trkpt>
      <trkpt lat="46.85413" lon="-0.61065">
        <ele>223</ele>
        <time>2016-04-24T08:29:50Z</time>
      </trkpt>
      <trkpt lat="46.85438" lon="-0.61065">
        <ele>223</ele>
        <time>2016-04-24T08:29:54Z</time>
      </trkpt>
      <trkpt lat="46.85459" lon="-0.61056">
        <ele>223</ele>
        <time>2016-04-24T08:29:58Z</time>
      </trkpt>
      <trkpt lat="46.85486" lon="-0.61039">
        <ele>221</ele>
        <time>2016-04-24T08:30:03Z</time>
      </trkpt>
      <trkpt lat="46.85504" lon="-0.61029">
        <ele>222</ele>
        <time>2016-04-24T08:30:07Z</time>
      </trkpt>
      <trkpt lat="46.85521" lon="-0.61054">
        <ele>223</ele>
        <time>2016-04-24T08:30:11Z</time>
      </trkpt>
      <trkpt lat="46.8554" lon="-0.61092">
        <ele>220</ele>
        <time>2016-04-24T08:30:16Z</time>
      </trkpt>
      <trkpt lat="46.85561" lon="-0.61114">
        <ele>218</ele>
        <time>2016-04-24T08:30:20Z</time>
      </trkpt>
      <trkpt lat="46.85582" lon="-0.61128">
        <ele>221</ele>
        <time>2016-04-24T08:30:24Z</time>
      </trkpt>
      <trkpt lat="46.85604" lon="-0.61155">
        <ele>221</ele>
        <time>2016-04-24T08:30:29Z</time>
      </trkpt>
      <trkpt lat="46.85617" lon="-0.61189">
        <ele>218</ele>
        <time>2016-04-24T08:30:33Z</time>
      </trkpt>
      <trkpt lat="46.85628" lon="-0.61218">
        <ele>213</ele>
        <time>2016-04-24T08:30:37Z</time>
      </trkpt>
      <trkpt lat="46.85644" lon="-0.61242">
        <ele>214</ele>
        <time>2016-04-24T08:30:41Z</time>
      </trkpt>
      <trkpt lat="46.8567" lon="-0.61246">
        <ele>215</ele>
        <time>2016-04-24T08:30:45Z</time>
      </trkpt>
      <trkpt lat="46.85697" lon="-0.61241">
        <ele>215</ele>
        <time>2016-04-24T08:30:49Z</time>
      </trkpt>
      <trkpt lat="46.85726" lon="-0.61252">
        <ele>214</ele>
        <time>2016-04-24T08:30:53Z</time>
      </trkpt>
      <trkpt lat="46.85746" lon="-0.61288">
        <ele>212</ele>
        <time>2016-04-24T08:30:57Z</time>
      </trkpt>
      <trkpt lat="46.85771" lon="-0.61328">
        <ele>208</ele>
        <time>2016-04-24T08:31:01Z</time>
      </trkpt>
      <trkpt lat="46.85787" lon="-0.61368">
        <ele>202</ele>
        <time>2016-04-24T08:31:05Z</time>
      </trkpt>
      <trkpt lat="46.85797" lon="-0.61413">
        <ele>202</ele>
        <time>2016-04-24T08:31:09Z</time>
      </trkpt>
      <trkpt lat="46.85804" lon="-0.61453">
        <ele>199</ele>
        <time>2016-04-24T08:31:13Z</time>
      </trkpt>
      <trkpt lat="46.85811" lon="-0.61492">
        <ele>199</ele>
        <time>2016-04-24T08:31:17Z</time>
      </trkpt>
      <trkpt lat="46.85818" lon="-0.61536">
        <ele>196</ele>
        <time>2016-04-24T08:31:21Z</time>
      </trkpt>
      <trkpt lat="46.85828" lon="-0.61571">
        <ele>195</ele>
        <time>2016-04-24T08:31:25Z</time>
      </trkpt>
      <trkpt lat="46.85835" lon="-0.61612">
        <ele>195</ele>
        <time>2016-04-24T08:31:29Z</time>
      </trkpt>
      <trkpt lat="46.85842" lon="-0.6164">
        <ele>200</ele>
        <time>2016-04-24T08:31:33Z</time>
      </trkpt>
      <trkpt lat="46.85858" lon="-0.61667">
        <ele>201</ele>
        <time>2016-04-24T08:31:37Z</time>
      </trkpt>
      <trkpt lat="46.85874" lon="-0.61696">
        <ele>200</ele>
        <time>2016-04-24T08:31:42Z</time>
      </trkpt>
      <trkpt lat="46.85883" lon="-0.61712">
        <ele>199</ele>
        <time>2016-04-24T08:31:45Z</time>
      </trkpt>
      <trkpt lat="46.85881" lon="-0.61736">
        <ele>199</ele>
        <time>2016-04-24T08:31:49Z</time>
      </trkpt>
      <trkpt lat="46.85871" lon="-0.61769">
        <ele>202</ele>
        <time>2016-04-24T08:31:54Z</time>
      </trkpt>
      <trkpt lat="46.85869" lon="-0.61794">
        <ele>206</ele>
        <time>2016-04-24T08:31:58Z</time>
      </trkpt>
      <trkpt lat="46.85866" lon="-0.6182">
        <ele>209</ele>
        <time>2016-04-24T08:32:02Z</time>
      </trkpt>
      <trkpt lat="46.85871" lon="-0.61848">
        <ele>207</ele>
        <time>2016-04-24T08:32:07Z</time>
      </trkpt>
      <trkpt lat="46.85883" lon="-0.61869">
        <ele>207</ele>
        <time>2016-04-24T08:32:11Z</time>
      </trkpt>
      <trkpt lat="46.85896" lon="-0.61888">
        <ele>209</ele>
        <time>2016-04-24T08:32:15Z</time>
      </trkpt>
      <trkpt lat="46.85911" lon="-0.61913">
        <ele>212</ele>
        <time>2016-04-24T08:32:20Z</time>
      </trkpt>
      <trkpt lat="46.85917" lon="-0.6193">
        <ele>212</ele>
        <time>2016-04-24T08:32:23Z</time>
      </trkpt>
      <trkpt lat="46.85928" lon="-0.61948">
        <ele>212</ele>
        <time>2016-04-24T08:32:27Z</time>
      </trkpt>
      <trkpt lat="46.85938" lon="-0.61964">
        <ele>216</ele>
        <time>2016-04-24T08:32:31Z</time>
      </trkpt>
      <trkpt lat="46.85952" lon="-0.61987">
        <ele>215</ele>
        <time>2016-04-24T08:32:35Z</time>
      </trkpt>
      <trkpt lat="46.85968" lon="-0.62016">
        <ele>210</ele>
        <time>2016-04-24T08:32:39Z</time>
      </trkpt>
      <trkpt lat="46.85982" lon="-0.62041">
        <ele>209</ele>
        <time>2016-04-24T08:32:43Z</time>
      </trkpt>
      <trkpt lat="46.85989" lon="-0.62056">
        <ele>211</ele>
        <time>2016-04-24T08:32:47Z</time>
      </trkpt>
      <trkpt lat="46.85998" lon="-0.62089">
        <ele>210</ele>
        <time>2016-04-24T08:32:52Z</time>
      </trkpt>
      <trkpt lat="46.86006" lon="-0.62125">
        <ele>206</ele>
        <time>2016-04-24T08:32:56Z</time>
      </trkpt>
      <trkpt lat="46.8602" lon="-0.62172">
        <ele>205</ele>
        <time>2016-04-24T08:33:01Z</time>
      </trkpt>
      <trkpt lat="46.86021" lon="-0.62219">
        <ele>205</ele>
        <time>2016-04-24T08:33:06Z</time>
      </trkpt>
      <trkpt lat="46.86022" lon="-0.62259">
        <ele>204</ele>
        <time>2016-04-24T08:33:10Z</time>
      </trkpt>
      <trkpt lat="46.8602" lon="-0.62293">
        <ele>202</ele>
        <time>2016-04-24T08:33:14Z</time>
      </trkpt>
      <trkpt lat="46.86014" lon="-0.62332">
        <ele>201</ele>
        <time>2016-04-24T08:33:18Z</time>
      </trkpt>
      <trkpt lat="46.8601" lon="-0.62362">
        <ele>200</ele>
        <time>2016-04-24T08:33:22Z</time>
      </trkpt>
      <trkpt lat="46.86016" lon="-0.62384">
        <ele>198</ele>
        <time>2016-04-24T08:33:26Z</time>
      </trkpt>
      <trkpt lat="46.86019" lon="-0.62395">
        <ele>194</ele>
        <time>2016-04-24T08:33:30Z</time>
      </trkpt>
      <trkpt lat="46.8603" lon="-0.62406">
        <ele>192</ele>
        <time>2016-04-24T08:33:34Z</time>
      </trkpt>
      <trkpt lat="46.86037" lon="-0.62419">
        <ele>191</ele>
        <time>2016-04-24T08:33:38Z</time>
      </trkpt>
      <trkpt lat="46.86046" lon="-0.62445">
        <ele>190</ele>
        <time>2016-04-24T08:33:42Z</time>
      </trkpt>
      <trkpt lat="46.86057" lon="-0.62453">
        <ele>190</ele>
        <time>2016-04-24T08:33:46Z</time>
      </trkpt>
      <trkpt lat="46.86073" lon="-0.62455">
        <ele>191</ele>
        <time>2016-04-24T08:33:50Z</time>
      </trkpt>
      <trkpt lat="46.86082" lon="-0.62454">
        <ele>192</ele>
        <time>2016-04-24T08:33:54Z</time>
      </trkpt>
      <trkpt lat="46.86089" lon="-0.62457">
        <ele>193</ele>
        <time>2016-04-24T08:33:58Z</time>
      </trkpt>
      <trkpt lat="46.86094" lon="-0.62472">
        <ele>190</ele>
        <time>2016-04-24T08:34:03Z</time>
      </trkpt>
      <trkpt lat="46.86101" lon="-0.62468">
        <ele>194</ele>
        <time>2016-04-24T08:34:07Z</time>
      </trkpt>
      <trkpt lat="46.8611" lon="-0.62468">
        <ele>198</ele>
        <time>2016-04-24T08:34:11Z</time>
      </trkpt>
      <trkpt lat="46.86119" lon="-0.62471">
        <ele>200</ele>
        <time>2016-04-24T08:34:15Z</time>
      </trkpt>
      <trkpt lat="46.8613" lon="-0.62469">
        <ele>199</ele>
        <time>2016-04-24T08:34:19Z</time>
      </trkpt>
      <trkpt lat="46.8614" lon="-0.62467">
        <ele>199</ele>
        <time>2016-04-24T08:34:23Z</time>
      </trkpt>
      <trkpt lat="46.86151" lon="-0.62463">
        <ele>197</ele>
        <time>2016-04-24T08:34:27Z</time>
      </trkpt>
      <trkpt lat="46.86161" lon="-0.62459">
        <ele>199</ele>
        <time>2016-04-24T08:34:31Z</time>
      </trkpt>
      <trkpt lat="46.86169" lon="-0.62464">
        <ele>201</ele>
        <time>2016-04-24T08:34:34Z</time>
      </trkpt>
      <trkpt lat="46.86181" lon="-0.62469">
        <ele>198</ele>
        <time>2016-04-24T08:34:38Z</time>
      </trkpt>
      <trkpt lat="46.86193" lon="-0.62487">
        <ele>197</ele>
        <time>2016-04-24T08:34:43Z</time>
      </trkpt>
      <trkpt lat="46.862" lon="-0.62491">
        <ele>196</ele>
        <time>2016-04-24T08:34:48Z</time>
      </trkpt>
      <trkpt lat="46.86205" lon="-0.62495">
        <ele>198</ele>
        <time>2016-04-24T08:34:52Z</time>
      </trkpt>
      <trkpt lat="46.86214" lon="-0.62498">
        <ele>199</ele>
        <time>2016-04-24T08:34:56Z</time>
      </trkpt>
      <trkpt lat="46.8622" lon="-0.62502">
        <ele>197</ele>
        <time>2016-04-24T08:35:00Z</time>
      </trkpt>
      <trkpt lat="46.86227" lon="-0.6251">
        <ele>196</ele>
        <time>2016-04-24T08:35:04Z</time>
      </trkpt>
      <trkpt lat="46.86236" lon="-0.62516">
        <ele>195</ele>
        <time>2016-04-24T08:35:08Z</time>
      </trkpt>
      <trkpt lat="46.86243" lon="-0.62529">
        <ele>198</ele>
        <time>2016-04-24T08:35:12Z</time>
      </trkpt>
      <trkpt lat="46.86253" lon="-0.62535">
        <ele>203</ele>
        <time>2016-04-24T08:35:17Z</time>
      </trkpt>
      <trkpt lat="46.86261" lon="-0.62545">
        <ele>203</ele>
        <time>2016-04-24T08:35:21Z</time>
      </trkpt>
      <trkpt lat="46.86269" lon="-0.62544">
        <ele>205</ele>
        <time>2016-04-24T08:35:26Z</time>
      </trkpt>
      <trkpt lat="46.86274" lon="-0.62548">
        <ele>207</ele>
        <time>2016-04-24T08:35:30Z</time>
      </trkpt>
      <trkpt lat="46.86282" lon="-0.62553">
        <ele>205</ele>
        <time>2016-04-24T08:35:34Z</time>
      </trkpt>
      <trkpt lat="46.86289" lon="-0.62558">
        <ele>203</ele>
        <time>2016-04-24T08:35:42Z</time>
      </trkpt>
      <trkpt lat="46.86295" lon="-0.62565">
        <ele>204</ele>
        <time>2016-04-24T08:35:54Z</time>
      </trkpt>
      <trkpt lat="46.86302" lon="-0.62569">
        <ele>202</ele>
        <time>2016-04-24T08:36:06Z</time>
      </trkpt>
      <trkpt lat="46.86309" lon="-0.62575">
        <ele>204</ele>
        <time>2016-04-24T08:36:10Z</time>
      </trkpt>
      <trkpt lat="46.86316" lon="-0.62587">
        <ele>204</ele>
        <time>2016-04-24T08:36:14Z</time>
      </trkpt>
      <trkpt lat="46.86323" lon="-0.62593">
        <ele>207</ele>
        <time>2016-04-24T08:36:19Z</time>
      </trkpt>
      <trkpt lat="46.86333" lon="-0.62592">
        <ele>207</ele>
        <time>2016-04-24T08:36:24Z</time>
      </trkpt>
      <trkpt lat="46.86341" lon="-0.62607">
        <ele>206</ele>
        <time>2016-04-24T08:36:28Z</time>
      </trkpt>
      <trkpt lat="46.86347" lon="-0.62624">
        <ele>204</ele>
        <time>2016-04-24T08:36:32Z</time>
      </trkpt>
      <trkpt lat="46.86354" lon="-0.62631">
        <ele>206</ele>
        <time>2016-04-24T08:36:37Z</time>
      </trkpt>
      <trkpt lat="46.86366" lon="-0.62629">
        <ele>207</ele>
        <time>2016-04-24T08:36:41Z</time>
      </trkpt>
      <trkpt lat="46.86375" lon="-0.62632">
        <ele>210</ele>
        <time>2016-04-24T08:36:45Z</time>
      </trkpt>
      <trkpt lat="46.86387" lon="-0.62637">
        <ele>213</ele>
        <time>2016-04-24T08:36:49Z</time>
      </trkpt>
      <trkpt lat="46.86398" lon="-0.62643">
        <ele>210</ele>
        <time>2016-04-24T08:36:53Z</time>
      </trkpt>
      <trkpt lat="46.86408" lon="-0.62651">
        <ele>211</ele>
        <time>2016-04-24T08:36:57Z</time>
      </trkpt>
      <trkpt lat="46.86417" lon="-0.62653">
        <ele>217</ele>
        <time>2016-04-24T08:37:01Z</time>
      </trkpt>
      <trkpt lat="46.86427" lon="-0.62656">
        <ele>217</ele>
        <time>2016-04-24T08:37:05Z</time>
      </trkpt>
      <trkpt lat="46.86436" lon="-0.62661">
        <ele>215</ele>
        <time>2016-04-24T08:37:09Z</time>
      </trkpt>
      <trkpt lat="46.86442" lon="-0.62673">
        <ele>215</ele>
        <time>2016-04-24T08:37:13Z</time>
      </trkpt>
      <trkpt lat="46.8645" lon="-0.62681">
        <ele>214</ele>
        <time>2016-04-24T08:37:17Z</time>
      </trkpt>
      <trkpt lat="46.86458" lon="-0.62684">
        <ele>214</ele>
        <time>2016-04-24T08:37:26Z</time>
      </trkpt>
      <trkpt lat="46.86461" lon="-0.62692">
        <ele>213</ele>
        <time>2016-04-24T08:37:33Z</time>
      </trkpt>
      <trkpt lat="46.86466" lon="-0.62703">
        <ele>223</ele>
        <time>2016-04-24T08:40:57Z</time>
      </trkpt>
      <trkpt lat="46.86465" lon="-0.62716">
        <ele>229</ele>
        <time>2016-04-24T08:41:03Z</time>
      </trkpt>
      <trkpt lat="46.86467" lon="-0.6273">
        <ele>231</ele>
        <time>2016-04-24T08:41:07Z</time>
      </trkpt>
      <trkpt lat="46.86469" lon="-0.62742">
        <ele>229</ele>
        <time>2016-04-24T08:41:10Z</time>
      </trkpt>
      <trkpt lat="46.86466" lon="-0.62756">
        <ele>228</ele>
        <time>2016-04-24T08:41:14Z</time>
      </trkpt>
      <trkpt lat="46.86465" lon="-0.62771">
        <ele>229</ele>
        <time>2016-04-24T08:41:18Z</time>
      </trkpt>
      <trkpt lat="46.86464" lon="-0.62789">
        <ele>226</ele>
        <time>2016-04-24T08:41:22Z</time>
      </trkpt>
      <trkpt lat="46.86461" lon="-0.62812">
        <ele>226</ele>
        <time>2016-04-24T08:41:27Z</time>
      </trkpt>
      <trkpt lat="46.86459" lon="-0.6283">
        <ele>225</ele>
        <time>2016-04-24T08:41:31Z</time>
      </trkpt>
      <trkpt lat="46.86457" lon="-0.62848">
        <ele>224</ele>
        <time>2016-04-24T08:41:35Z</time>
      </trkpt>
      <trkpt lat="46.86455" lon="-0.62869">
        <ele>222</ele>
        <time>2016-04-24T08:41:39Z</time>
      </trkpt>
      <trkpt lat="46.86454" lon="-0.6289">
        <ele>222</ele>
        <time>2016-04-24T08:41:43Z</time>
      </trkpt>
      <trkpt lat="46.86452" lon="-0.62913">
        <ele>221</ele>
        <time>2016-04-24T08:41:47Z</time>
      </trkpt>
      <trkpt lat="46.8645" lon="-0.62936">
        <ele>219</ele>
        <time>2016-04-24T08:41:51Z</time>
      </trkpt>
      <trkpt lat="46.86446" lon="-0.6296">
        <ele>217</ele>
        <time>2016-04-24T08:41:55Z</time>
      </trkpt>
      <trkpt lat="46.86444" lon="-0.62982">
        <ele>217</ele>
        <time>2016-04-24T08:41:59Z</time>
      </trkpt>
      <trkpt lat="46.86443" lon="-0.63004">
        <ele>218</ele>
        <time>2016-04-24T08:42:03Z</time>
      </trkpt>
      <trkpt lat="46.8644" lon="-0.63026">
        <ele>219</ele>
        <time>2016-04-24T08:42:07Z</time>
      </trkpt>
      <trkpt lat="46.86437" lon="-0.63048">
        <ele>220</ele>
        <time>2016-04-24T08:42:11Z</time>
      </trkpt>
      <trkpt lat="46.86434" lon="-0.63071">
        <ele>221</ele>
        <time>2016-04-24T08:42:15Z</time>
      </trkpt>
      <trkpt lat="46.8643" lon="-0.63094">
        <ele>221</ele>
        <time>2016-04-24T08:42:19Z</time>
      </trkpt>
      <trkpt lat="46.86425" lon="-0.63124">
        <ele>220</ele>
        <time>2016-04-24T08:42:24Z</time>
      </trkpt>
      <trkpt lat="46.86422" lon="-0.63151">
        <ele>223</ele>
        <time>2016-04-24T08:42:29Z</time>
      </trkpt>
      <trkpt lat="46.86419" lon="-0.63174">
        <ele>224</ele>
        <time>2016-04-24T08:42:33Z</time>
      </trkpt>
      <trkpt lat="46.86416" lon="-0.63197">
        <ele>225</ele>
        <time>2016-04-24T08:42:37Z</time>
      </trkpt>
      <trkpt lat="46.86413" lon="-0.63215">
        <ele>226</ele>
        <time>2016-04-24T08:42:40Z</time>
      </trkpt>
      <trkpt lat="46.86411" lon="-0.63245">
        <ele>227</ele>
        <time>2016-04-24T08:42:45Z</time>
      </trkpt>
      <trkpt lat="46.8641" lon="-0.63271">
        <ele>229</ele>
        <time>2016-04-24T08:42:49Z</time>
      </trkpt>
      <trkpt lat="46.86406" lon="-0.63296">
        <ele>228</ele>
        <time>2016-04-24T08:42:53Z</time>
      </trkpt>
      <trkpt lat="46.86403" lon="-0.63323">
        <ele>225</ele>
        <time>2016-04-24T08:42:57Z</time>
      </trkpt>
      <trkpt lat="46.86401" lon="-0.63348">
        <ele>224</ele>
        <time>2016-04-24T08:43:01Z</time>
      </trkpt>
      <trkpt lat="46.86401" lon="-0.6338">
        <ele>225</ele>
        <time>2016-04-24T08:43:06Z</time>
      </trkpt>
      <trkpt lat="46.86396" lon="-0.63402">
        <ele>224</ele>
        <time>2016-04-24T08:43:10Z</time>
      </trkpt>
      <trkpt lat="46.86391" lon="-0.63427">
        <ele>225</ele>
        <time>2016-04-24T08:43:14Z</time>
      </trkpt>
      <trkpt lat="46.86382" lon="-0.63454">
        <ele>225</ele>
        <time>2016-04-24T08:43:18Z</time>
      </trkpt>
      <trkpt lat="46.86374" lon="-0.63484">
        <ele>225</ele>
        <time>2016-04-24T08:43:22Z</time>
      </trkpt>
      <trkpt lat="46.86362" lon="-0.63516">
        <ele>224</ele>
        <time>2016-04-24T08:43:26Z</time>
      </trkpt>
      <trkpt lat="46.86355" lon="-0.6355">
        <ele>225</ele>
        <time>2016-04-24T08:43:30Z</time>
      </trkpt>
      <trkpt lat="46.86339" lon="-0.63594">
        <ele>224</ele>
        <time>2016-04-24T08:43:35Z</time>
      </trkpt>
      <trkpt lat="46.86319" lon="-0.63632">
        <ele>221</ele>
        <time>2016-04-24T08:43:39Z</time>
      </trkpt>
      <trkpt lat="46.86322" lon="-0.6368">
        <ele>226</ele>
        <time>2016-04-24T08:43:44Z</time>
      </trkpt>
      <trkpt lat="46.86319" lon="-0.63712">
        <ele>225</ele>
        <time>2016-04-24T08:43:48Z</time>
      </trkpt>
      <trkpt lat="46.8632" lon="-0.63745">
        <ele>225</ele>
        <time>2016-04-24T08:43:52Z</time>
      </trkpt>
      <trkpt lat="46.86321" lon="-0.63781">
        <ele>221</ele>
        <time>2016-04-24T08:43:56Z</time>
      </trkpt>
      <trkpt lat="46.86325" lon="-0.63814">
        <ele>218</ele>
        <time>2016-04-24T08:44:00Z</time>
      </trkpt>
      <trkpt lat="46.86325" lon="-0.63847">
        <ele>217</ele>
        <time>2016-04-24T08:44:04Z</time>
      </trkpt>
      <trkpt lat="46.86324" lon="-0.63883">
        <ele>216</ele>
        <time>2016-04-24T08:44:08Z</time>
      </trkpt>
      <trkpt lat="46.86323" lon="-0.63925">
        <ele>217</ele>
        <time>2016-04-24T08:44:13Z</time>
      </trkpt>
      <trkpt lat="46.86324" lon="-0.63975">
        <ele>214</ele>
        <time>2016-04-24T08:44:18Z</time>
      </trkpt>
      <trkpt lat="46.8633" lon="-0.64016">
        <ele>216</ele>
        <time>2016-04-24T08:44:22Z</time>
      </trkpt>
      <trkpt lat="46.86331" lon="-0.64051">
        <ele>214</ele>
        <time>2016-04-24T08:44:26Z</time>
      </trkpt>
      <trkpt lat="46.86333" lon="-0.64087">
        <ele>215</ele>
        <time>2016-04-24T08:44:30Z</time>
      </trkpt>
      <trkpt lat="46.86336" lon="-0.64131">
        <ele>213</ele>
        <time>2016-04-24T08:44:35Z</time>
      </trkpt>
      <trkpt lat="46.86338" lon="-0.64164">
        <ele>213</ele>
        <time>2016-04-24T08:44:39Z</time>
      </trkpt>
      <trkpt lat="46.86344" lon="-0.64197">
        <ele>215</ele>
        <time>2016-04-24T08:44:43Z</time>
      </trkpt>
      <trkpt lat="46.86351" lon="-0.6424">
        <ele>211</ele>
        <time>2016-04-24T08:44:48Z</time>
      </trkpt>
      <trkpt lat="46.86355" lon="-0.64271">
        <ele>211</ele>
        <time>2016-04-24T08:44:52Z</time>
      </trkpt>
      <trkpt lat="46.86359" lon="-0.64304">
        <ele>210</ele>
        <time>2016-04-24T08:44:56Z</time>
      </trkpt>
      <trkpt lat="46.8636" lon="-0.64339">
        <ele>209</ele>
        <time>2016-04-24T08:45:00Z</time>
      </trkpt>
      <trkpt lat="46.86357" lon="-0.64373">
        <ele>209</ele>
        <time>2016-04-24T08:45:04Z</time>
      </trkpt>
      <trkpt lat="46.86351" lon="-0.64406">
        <ele>209</ele>
        <time>2016-04-24T08:45:08Z</time>
      </trkpt>
      <trkpt lat="46.86348" lon="-0.64441">
        <ele>209</ele>
        <time>2016-04-24T08:45:12Z</time>
      </trkpt>
      <trkpt lat="46.86349" lon="-0.64478">
        <ele>208</ele>
        <time>2016-04-24T08:45:16Z</time>
      </trkpt>
      <trkpt lat="46.86347" lon="-0.64515">
        <ele>207</ele>
        <time>2016-04-24T08:45:20Z</time>
      </trkpt>
      <trkpt lat="46.86344" lon="-0.64551">
        <ele>206</ele>
        <time>2016-04-24T08:45:24Z</time>
      </trkpt>
      <trkpt lat="46.86341" lon="-0.64588">
        <ele>207</ele>
        <time>2016-04-24T08:45:28Z</time>
      </trkpt>
      <trkpt lat="46.86343" lon="-0.64624">
        <ele>207</ele>
        <time>2016-04-24T08:45:32Z</time>
      </trkpt>
      <trkpt lat="46.86348" lon="-0.64659">
        <ele>205</ele>
        <time>2016-04-24T08:45:36Z</time>
      </trkpt>
      <trkpt lat="46.86355" lon="-0.64691">
        <ele>207</ele>
        <time>2016-04-24T08:45:40Z</time>
      </trkpt>
      <trkpt lat="46.86374" lon="-0.64688">
        <ele>205</ele>
        <time>2016-04-24T08:45:44Z</time>
      </trkpt>
      <trkpt lat="46.86394" lon="-0.64663">
        <ele>208</ele>
        <time>2016-04-24T08:45:48Z</time>
      </trkpt>
      <trkpt lat="46.86414" lon="-0.64639">
        <ele>210</ele>
        <time>2016-04-24T08:45:52Z</time>
      </trkpt>
      <trkpt lat="46.86429" lon="-0.64621">
        <ele>212</ele>
        <time>2016-04-24T08:45:56Z</time>
      </trkpt>
      <trkpt lat="46.86444" lon="-0.64604">
        <ele>213</ele>
        <time>2016-04-24T08:46:00Z</time>
      </trkpt>
      <trkpt lat="46.8646" lon="-0.64587">
        <ele>212</ele>
        <time>2016-04-24T08:46:04Z</time>
      </trkpt>
      <trkpt lat="46.86472" lon="-0.64573">
        <ele>212</ele>
        <time>2016-04-24T08:46:08Z</time>
      </trkpt>
      <trkpt lat="46.86485" lon="-0.64562">
        <ele>213</ele>
        <time>2016-04-24T08:46:12Z</time>
      </trkpt>
      <trkpt lat="46.86495" lon="-0.64551">
        <ele>215</ele>
        <time>2016-04-24T08:46:16Z</time>
      </trkpt>
      <trkpt lat="46.86508" lon="-0.64539">
        <ele>217</ele>
        <time>2016-04-24T08:46:20Z</time>
      </trkpt>
      <trkpt lat="46.86521" lon="-0.64528">
        <ele>220</ele>
        <time>2016-04-24T08:46:24Z</time>
      </trkpt>
      <trkpt lat="46.86533" lon="-0.64515">
        <ele>224</ele>
        <time>2016-04-24T08:46:28Z</time>
      </trkpt>
      <trkpt lat="46.86543" lon="-0.64501">
        <ele>224</ele>
        <time>2016-04-24T08:46:32Z</time>
      </trkpt>
      <trkpt lat="46.86554" lon="-0.64487">
        <ele>225</ele>
        <time>2016-04-24T08:46:36Z</time>
      </trkpt>
      <trkpt lat="46.86563" lon="-0.64469">
        <ele>226</ele>
        <time>2016-04-24T08:46:40Z</time>
      </trkpt>
      <trkpt lat="46.86572" lon="-0.64451">
        <ele>228</ele>
        <time>2016-04-24T08:46:44Z</time>
      </trkpt>
      <trkpt lat="46.86585" lon="-0.64433">
        <ele>229</ele>
        <time>2016-04-24T08:46:48Z</time>
      </trkpt>
      <trkpt lat="46.86597" lon="-0.64413">
        <ele>229</ele>
        <time>2016-04-24T08:46:52Z</time>
      </trkpt>
      <trkpt lat="46.8661" lon="-0.64393">
        <ele>229</ele>
        <time>2016-04-24T08:46:56Z</time>
      </trkpt>
      <trkpt lat="46.86623" lon="-0.64373">
        <ele>228</ele>
        <time>2016-04-24T08:47:00Z</time>
      </trkpt>
      <trkpt lat="46.86639" lon="-0.6435">
        <ele>224</ele>
        <time>2016-04-24T08:47:05Z</time>
      </trkpt>
      <trkpt lat="46.86655" lon="-0.64333">
        <ele>225</ele>
        <time>2016-04-24T08:47:09Z</time>
      </trkpt>
      <trkpt lat="46.86666" lon="-0.64309">
        <ele>226</ele>
        <time>2016-04-24T08:47:13Z</time>
      </trkpt>
      <trkpt lat="46.86676" lon="-0.64292">
        <ele>225</ele>
        <time>2016-04-24T08:47:17Z</time>
      </trkpt>
      <trkpt lat="46.86694" lon="-0.6427">
        <ele>226</ele>
        <time>2016-04-24T08:47:21Z</time>
      </trkpt>
      <trkpt lat="46.86709" lon="-0.64252">
        <ele>226</ele>
        <time>2016-04-24T08:47:25Z</time>
      </trkpt>
      <trkpt lat="46.86727" lon="-0.64233">
        <ele>227</ele>
        <time>2016-04-24T08:47:29Z</time>
      </trkpt>
      <trkpt lat="46.86739" lon="-0.64228">
        <ele>223</ele>
        <time>2016-04-24T08:47:33Z</time>
      </trkpt>
      <trkpt lat="46.86751" lon="-0.64217">
        <ele>223</ele>
        <time>2016-04-24T08:47:37Z</time>
      </trkpt>
      <trkpt lat="46.86773" lon="-0.6419">
        <ele>226</ele>
        <time>2016-04-24T08:47:41Z</time>
      </trkpt>
      <trkpt lat="46.86789" lon="-0.64163">
        <ele>227</ele>
        <time>2016-04-24T08:47:46Z</time>
      </trkpt>
      <trkpt lat="46.86801" lon="-0.64149">
        <ele>227</ele>
        <time>2016-04-24T08:47:50Z</time>
      </trkpt>
      <trkpt lat="46.86811" lon="-0.64137">
        <ele>225</ele>
        <time>2016-04-24T08:47:54Z</time>
      </trkpt>
      <trkpt lat="46.86834" lon="-0.64102">
        <ele>221</ele>
        <time>2016-04-24T08:47:58Z</time>
      </trkpt>
      <trkpt lat="46.86856" lon="-0.64075">
        <ele>222</ele>
        <time>2016-04-24T08:48:02Z</time>
      </trkpt>
      <trkpt lat="46.86878" lon="-0.6404">
        <ele>226</ele>
        <time>2016-04-24T08:48:07Z</time>
      </trkpt>
      <trkpt lat="46.86904" lon="-0.64005">
        <ele>224</ele>
        <time>2016-04-24T08:48:12Z</time>
      </trkpt>
      <trkpt lat="46.86924" lon="-0.63979">
        <ele>224</ele>
        <time>2016-04-24T08:48:15Z</time>
      </trkpt>
      <trkpt lat="46.86954" lon="-0.63959">
        <ele>229</ele>
        <time>2016-04-24T08:48:19Z</time>
      </trkpt>
      <trkpt lat="46.86984" lon="-0.6394">
        <ele>226</ele>
        <time>2016-04-24T08:48:23Z</time>
      </trkpt>
      <trkpt lat="46.87012" lon="-0.63931">
        <ele>224</ele>
        <time>2016-04-24T08:48:27Z</time>
      </trkpt>
      <trkpt lat="46.87031" lon="-0.63921">
        <ele>220</ele>
        <time>2016-04-24T08:48:31Z</time>
      </trkpt>
      <trkpt lat="46.87046" lon="-0.63907">
        <ele>216</ele>
        <time>2016-04-24T08:48:35Z</time>
      </trkpt>
      <trkpt lat="46.87058" lon="-0.63893">
        <ele>216</ele>
        <time>2016-04-24T08:48:39Z</time>
      </trkpt>
      <trkpt lat="46.87077" lon="-0.63887">
        <ele>214</ele>
        <time>2016-04-24T08:48:43Z</time>
      </trkpt>
      <trkpt lat="46.87096" lon="-0.63874">
        <ele>213</ele>
        <time>2016-04-24T08:48:48Z</time>
      </trkpt>
      <trkpt lat="46.87113" lon="-0.63863">
        <ele>211</ele>
        <time>2016-04-24T08:48:53Z</time>
      </trkpt>
      <trkpt lat="46.87131" lon="-0.63855">
        <ele>212</ele>
        <time>2016-04-24T08:48:57Z</time>
      </trkpt>
      <trkpt lat="46.87146" lon="-0.63841">
        <ele>211</ele>
        <time>2016-04-24T08:49:01Z</time>
      </trkpt>
      <trkpt lat="46.87172" lon="-0.63832">
        <ele>209</ele>
        <time>2016-04-24T08:49:05Z</time>
      </trkpt>
      <trkpt lat="46.87197" lon="-0.6382">
        <ele>210</ele>
        <time>2016-04-24T08:49:09Z</time>
      </trkpt>
      <trkpt lat="46.87225" lon="-0.63798">
        <ele>208</ele>
        <time>2016-04-24T08:49:14Z</time>
      </trkpt>
      <trkpt lat="46.87257" lon="-0.63776">
        <ele>203</ele>
        <time>2016-04-24T08:49:19Z</time>
      </trkpt>
      <trkpt lat="46.87282" lon="-0.63756">
        <ele>202</ele>
        <time>2016-04-24T08:49:24Z</time>
      </trkpt>
      <trkpt lat="46.87298" lon="-0.63742">
        <ele>201</ele>
        <time>2016-04-24T08:49:28Z</time>
      </trkpt>
      <trkpt lat="46.87319" lon="-0.63718">
        <ele>199</ele>
        <time>2016-04-24T08:49:32Z</time>
      </trkpt>
      <trkpt lat="46.87347" lon="-0.6368">
        <ele>195</ele>
        <time>2016-04-24T08:49:37Z</time>
      </trkpt>
      <trkpt lat="46.87368" lon="-0.63658">
        <ele>192</ele>
        <time>2016-04-24T08:49:41Z</time>
      </trkpt>
      <trkpt lat="46.87393" lon="-0.63647">
        <ele>191</ele>
        <time>2016-04-24T08:49:45Z</time>
      </trkpt>
      <trkpt lat="46.8742" lon="-0.63635">
        <ele>193</ele>
        <time>2016-04-24T08:49:49Z</time>
      </trkpt>
      <trkpt lat="46.87448" lon="-0.63615">
        <ele>194</ele>
        <time>2016-04-24T08:49:53Z</time>
      </trkpt>
      <trkpt lat="46.87478" lon="-0.63596">
        <ele>198</ele>
        <time>2016-04-24T08:49:57Z</time>
      </trkpt>
      <trkpt lat="46.87505" lon="-0.6358">
        <ele>190</ele>
        <time>2016-04-24T08:50:01Z</time>
      </trkpt>
      <trkpt lat="46.87536" lon="-0.63553">
        <ele>189</ele>
        <time>2016-04-24T08:50:06Z</time>
      </trkpt>
      <trkpt lat="46.87563" lon="-0.63534">
        <ele>186</ele>
        <time>2016-04-24T08:50:10Z</time>
      </trkpt>
      <trkpt lat="46.87584" lon="-0.63514">
        <ele>183</ele>
        <time>2016-04-24T08:50:14Z</time>
      </trkpt>
      <trkpt lat="46.87603" lon="-0.63487">
        <ele>181</ele>
        <time>2016-04-24T08:50:18Z</time>
      </trkpt>
      <trkpt lat="46.87623" lon="-0.63459">
        <ele>183</ele>
        <time>2016-04-24T08:50:23Z</time>
      </trkpt>
      <trkpt lat="46.87629" lon="-0.63437">
        <ele>180</ele>
        <time>2016-04-24T08:50:27Z</time>
      </trkpt>
      <trkpt lat="46.8764" lon="-0.63429">
        <ele>182</ele>
        <time>2016-04-24T08:50:31Z</time>
      </trkpt>
      <trkpt lat="46.87651" lon="-0.63415">
        <ele>181</ele>
        <time>2016-04-24T08:50:35Z</time>
      </trkpt>
      <trkpt lat="46.87665" lon="-0.63395">
        <ele>183</ele>
        <time>2016-04-24T08:50:40Z</time>
      </trkpt>
      <trkpt lat="46.87677" lon="-0.63379">
        <ele>183</ele>
        <time>2016-04-24T08:50:44Z</time>
      </trkpt>
      <trkpt lat="46.87687" lon="-0.63367">
        <ele>184</ele>
        <time>2016-04-24T08:50:48Z</time>
      </trkpt>
      <trkpt lat="46.87696" lon="-0.63357">
        <ele>185</ele>
        <time>2016-04-24T08:50:52Z</time>
      </trkpt>
      <trkpt lat="46.87703" lon="-0.63348">
        <ele>183</ele>
        <time>2016-04-24T08:50:57Z</time>
      </trkpt>
      <trkpt lat="46.87713" lon="-0.63338">
        <ele>185</ele>
        <time>2016-04-24T08:51:01Z</time>
      </trkpt>
      <trkpt lat="46.87721" lon="-0.63329">
        <ele>183</ele>
        <time>2016-04-24T08:51:05Z</time>
      </trkpt>
      <trkpt lat="46.87729" lon="-0.63322">
        <ele>181</ele>
        <time>2016-04-24T08:51:09Z</time>
      </trkpt>
      <trkpt lat="46.87738" lon="-0.63314">
        <ele>179</ele>
        <time>2016-04-24T08:51:13Z</time>
      </trkpt>
      <trkpt lat="46.87748" lon="-0.63305">
        <ele>180</ele>
        <time>2016-04-24T08:51:17Z</time>
      </trkpt>
      <trkpt lat="46.87757" lon="-0.63295">
        <ele>181</ele>
        <time>2016-04-24T08:51:21Z</time>
      </trkpt>
      <trkpt lat="46.87767" lon="-0.63285">
        <ele>181</ele>
        <time>2016-04-24T08:51:25Z</time>
      </trkpt>
      <trkpt lat="46.87777" lon="-0.63275">
        <ele>180</ele>
        <time>2016-04-24T08:51:29Z</time>
      </trkpt>
      <trkpt lat="46.87787" lon="-0.63263">
        <ele>180</ele>
        <time>2016-04-24T08:51:33Z</time>
      </trkpt>
      <trkpt lat="46.878" lon="-0.63252">
        <ele>183</ele>
        <time>2016-04-24T08:51:37Z</time>
      </trkpt>
      <trkpt lat="46.87817" lon="-0.63236">
        <ele>184</ele>
        <time>2016-04-24T08:51:42Z</time>
      </trkpt>
      <trkpt lat="46.87833" lon="-0.6322">
        <ele>182</ele>
        <time>2016-04-24T08:51:47Z</time>
      </trkpt>
      <trkpt lat="46.87849" lon="-0.63207">
        <ele>182</ele>
        <time>2016-04-24T08:51:52Z</time>
      </trkpt>
      <trkpt lat="46.87866" lon="-0.63191">
        <ele>181</ele>
        <time>2016-04-24T08:51:57Z</time>
      </trkpt>
      <trkpt lat="46.87878" lon="-0.6318">
        <ele>179</ele>
        <time>2016-04-24T08:52:01Z</time>
      </trkpt>
      <trkpt lat="46.87892" lon="-0.63162">
        <ele>179</ele>
        <time>2016-04-24T08:52:06Z</time>
      </trkpt>
      <trkpt lat="46.87904" lon="-0.63145">
        <ele>178</ele>
        <time>2016-04-24T08:52:10Z</time>
      </trkpt>
      <trkpt lat="46.87918" lon="-0.63123">
        <ele>180</ele>
        <time>2016-04-24T08:52:14Z</time>
      </trkpt>
      <trkpt lat="46.87932" lon="-0.63097">
        <ele>176</ele>
        <time>2016-04-24T08:52:18Z</time>
      </trkpt>
      <trkpt lat="46.8795" lon="-0.63075">
        <ele>173</ele>
        <time>2016-04-24T08:52:22Z</time>
      </trkpt>
      <trkpt lat="46.87966" lon="-0.6305">
        <ele>172</ele>
        <time>2016-04-24T08:52:26Z</time>
      </trkpt>
      <trkpt lat="46.87992" lon="-0.63009">
        <ele>169</ele>
        <time>2016-04-24T08:52:31Z</time>
      </trkpt>
      <trkpt lat="46.88021" lon="-0.62966">
        <ele>167</ele>
        <time>2016-04-24T08:52:36Z</time>
      </trkpt>
      <trkpt lat="46.88051" lon="-0.62927">
        <ele>162</ele>
        <time>2016-04-24T08:52:40Z</time>
      </trkpt>
      <trkpt lat="46.88081" lon="-0.62884">
        <ele>162</ele>
        <time>2016-04-24T08:52:44Z</time>
      </trkpt>
      <trkpt lat="46.88111" lon="-0.62844">
        <ele>161</ele>
        <time>2016-04-24T08:52:48Z</time>
      </trkpt>
      <trkpt lat="46.8813" lon="-0.62813">
        <ele>162</ele>
        <time>2016-04-24T08:52:52Z</time>
      </trkpt>
      <trkpt lat="46.88137" lon="-0.62801">
        <ele>164</ele>
        <time>2016-04-24T08:52:56Z</time>
      </trkpt>
      <trkpt lat="46.88134" lon="-0.62785">
        <ele>163</ele>
        <time>2016-04-24T08:53:00Z</time>
      </trkpt>
      <trkpt lat="46.88127" lon="-0.62766">
        <ele>163</ele>
        <time>2016-04-24T08:53:04Z</time>
      </trkpt>
      <trkpt lat="46.88121" lon="-0.62751">
        <ele>166</ele>
        <time>2016-04-24T08:53:09Z</time>
      </trkpt>
      <trkpt lat="46.88115" lon="-0.6274">
        <ele>168</ele>
        <time>2016-04-24T08:53:13Z</time>
      </trkpt>
      <trkpt lat="46.88109" lon="-0.6273">
        <ele>172</ele>
        <time>2016-04-24T08:53:17Z</time>
      </trkpt>
      <trkpt lat="46.88103" lon="-0.62718">
        <ele>175</ele>
        <time>2016-04-24T08:53:21Z</time>
      </trkpt>
      <trkpt lat="46.88093" lon="-0.62703">
        <ele>173</ele>
        <time>2016-04-24T08:53:25Z</time>
      </trkpt>
      <trkpt lat="46.88086" lon="-0.6269">
        <ele>174</ele>
        <time>2016-04-24T08:53:29Z</time>
      </trkpt>
      <trkpt lat="46.88078" lon="-0.62669">
        <ele>175</ele>
        <time>2016-04-24T08:53:33Z</time>
      </trkpt>
      <trkpt lat="46.8807" lon="-0.62652">
        <ele>176</ele>
        <time>2016-04-24T08:53:37Z</time>
      </trkpt>
      <trkpt lat="46.88063" lon="-0.62634">
        <ele>176</ele>
        <time>2016-04-24T08:53:41Z</time>
      </trkpt>
      <trkpt lat="46.88055" lon="-0.62618">
        <ele>175</ele>
        <time>2016-04-24T08:53:45Z</time>
      </trkpt>
      <trkpt lat="46.88047" lon="-0.62602">
        <ele>176</ele>
        <time>2016-04-24T08:53:49Z</time>
      </trkpt>
      <trkpt lat="46.88037" lon="-0.62579">
        <ele>176</ele>
        <time>2016-04-24T08:53:54Z</time>
      </trkpt>
      <trkpt lat="46.88029" lon="-0.62556">
        <ele>178</ele>
        <time>2016-04-24T08:53:59Z</time>
      </trkpt>
      <trkpt lat="46.88022" lon="-0.62537">
        <ele>178</ele>
        <time>2016-04-24T08:54:03Z</time>
      </trkpt>
      <trkpt lat="46.88014" lon="-0.62521">
        <ele>179</ele>
        <time>2016-04-24T08:54:07Z</time>
      </trkpt>
      <trkpt lat="46.88006" lon="-0.62505">
        <ele>179</ele>
        <time>2016-04-24T08:54:11Z</time>
      </trkpt>
      <trkpt lat="46.87998" lon="-0.62489">
        <ele>178</ele>
        <time>2016-04-24T08:54:15Z</time>
      </trkpt>
      <trkpt lat="46.87993" lon="-0.62476">
        <ele>182</ele>
        <time>2016-04-24T08:54:19Z</time>
      </trkpt>
      <trkpt lat="46.87988" lon="-0.62463">
        <ele>183</ele>
        <time>2016-04-24T08:54:23Z</time>
      </trkpt>
      <trkpt lat="46.87985" lon="-0.62444">
        <ele>182</ele>
        <time>2016-04-24T08:54:27Z</time>
      </trkpt>
      <trkpt lat="46.87996" lon="-0.6243">
        <ele>181</ele>
        <time>2016-04-24T08:54:31Z</time>
      </trkpt>
      <trkpt lat="46.88009" lon="-0.62415">
        <ele>181</ele>
        <time>2016-04-24T08:54:35Z</time>
      </trkpt>
      <trkpt lat="46.88019" lon="-0.62404">
        <ele>182</ele>
        <time>2016-04-24T08:54:39Z</time>
      </trkpt>
      <trkpt lat="46.88034" lon="-0.62388">
        <ele>182</ele>
        <time>2016-04-24T08:54:43Z</time>
      </trkpt>
      <trkpt lat="46.88047" lon="-0.62373">
        <ele>176</ele>
        <time>2016-04-24T08:54:47Z</time>
      </trkpt>
      <trkpt lat="46.88061" lon="-0.62361">
        <ele>176</ele>
        <time>2016-04-24T08:54:51Z</time>
      </trkpt>
      <trkpt lat="46.88078" lon="-0.62346">
        <ele>177</ele>
        <time>2016-04-24T08:54:55Z</time>
      </trkpt>
      <trkpt lat="46.88092" lon="-0.62332">
        <ele>179</ele>
        <time>2016-04-24T08:54:59Z</time>
      </trkpt>
      <trkpt lat="46.881" lon="-0.62307">
        <ele>181</ele>
        <time>2016-04-24T08:55:04Z</time>
      </trkpt>
      <trkpt lat="46.88099" lon="-0.62294">
        <ele>181</ele>
        <time>2016-04-24T08:55:08Z</time>
      </trkpt>
      <trkpt lat="46.88108" lon="-0.62274">
        <ele>184</ele>
        <time>2016-04-24T08:55:13Z</time>
      </trkpt>
      <trkpt lat="46.88117" lon="-0.62257">
        <ele>182</ele>
        <time>2016-04-24T08:55:17Z</time>
      </trkpt>
      <trkpt lat="46.88125" lon="-0.62241">
        <ele>183</ele>
        <time>2016-04-24T08:55:21Z</time>
      </trkpt>
      <trkpt lat="46.88134" lon="-0.62224">
        <ele>183</ele>
        <time>2016-04-24T08:55:25Z</time>
      </trkpt>
      <trkpt lat="46.88145" lon="-0.62206">
        <ele>185</ele>
        <time>2016-04-24T08:55:29Z</time>
      </trkpt>
      <trkpt lat="46.88153" lon="-0.62189">
        <ele>183</ele>
        <time>2016-04-24T08:55:33Z</time>
      </trkpt>
      <trkpt lat="46.8816" lon="-0.62179">
        <ele>185</ele>
        <time>2016-04-24T08:55:37Z</time>
      </trkpt>
      <trkpt lat="46.88167" lon="-0.62162">
        <ele>184</ele>
        <time>2016-04-24T08:55:41Z</time>
      </trkpt>
      <trkpt lat="46.88176" lon="-0.62146">
        <ele>185</ele>
        <time>2016-04-24T08:55:45Z</time>
      </trkpt>
      <trkpt lat="46.88185" lon="-0.6213">
        <ele>184</ele>
        <time>2016-04-24T08:55:49Z</time>
      </trkpt>
      <trkpt lat="46.8819" lon="-0.62116">
        <ele>183</ele>
        <time>2016-04-24T08:55:53Z</time>
      </trkpt>
      <trkpt lat="46.88195" lon="-0.62105">
        <ele>184</ele>
        <time>2016-04-24T08:55:58Z</time>
      </trkpt>
      <trkpt lat="46.88203" lon="-0.62092">
        <ele>186</ele>
        <time>2016-04-24T08:56:02Z</time>
      </trkpt>
      <trkpt lat="46.88208" lon="-0.62079">
        <ele>184</ele>
        <time>2016-04-24T08:56:06Z</time>
      </trkpt>
      <trkpt lat="46.88213" lon="-0.62066">
        <ele>188</ele>
        <time>2016-04-24T08:56:10Z</time>
      </trkpt>
      <trkpt lat="46.88222" lon="-0.62052">
        <ele>190</ele>
        <time>2016-04-24T08:56:14Z</time>
      </trkpt>
      <trkpt lat="46.88227" lon="-0.62028">
        <ele>189</ele>
        <time>2016-04-24T08:56:18Z</time>
      </trkpt>
      <trkpt lat="46.88238" lon="-0.62004">
        <ele>190</ele>
        <time>2016-04-24T08:56:23Z</time>
      </trkpt>
      <trkpt lat="46.8824" lon="-0.61998">
        <ele>192</ele>
        <time>2016-04-24T08:56:27Z</time>
      </trkpt>
      <trkpt lat="46.88248" lon="-0.61982">
        <ele>193</ele>
        <time>2016-04-24T08:56:31Z</time>
      </trkpt>
      <trkpt lat="46.88255" lon="-0.6197">
        <ele>195</ele>
        <time>2016-04-24T08:56:35Z</time>
      </trkpt>
      <trkpt lat="46.8826" lon="-0.61957">
        <ele>195</ele>
        <time>2016-04-24T08:56:40Z</time>
      </trkpt>
      <trkpt lat="46.88263" lon="-0.6195">
        <ele>197</ele>
        <time>2016-04-24T08:56:43Z</time>
      </trkpt>
      <trkpt lat="46.88269" lon="-0.61936">
        <ele>193</ele>
        <time>2016-04-24T08:56:47Z</time>
      </trkpt>
      <trkpt lat="46.88275" lon="-0.61925">
        <ele>194</ele>
        <time>2016-04-24T08:56:51Z</time>
      </trkpt>
      <trkpt lat="46.8828" lon="-0.61911">
        <ele>192</ele>
        <time>2016-04-24T08:56:55Z</time>
      </trkpt>
      <trkpt lat="46.88288" lon="-0.61893">
        <ele>190</ele>
        <time>2016-04-24T08:57:00Z</time>
      </trkpt>
      <trkpt lat="46.88297" lon="-0.61879">
        <ele>194</ele>
        <time>2016-04-24T08:57:04Z</time>
      </trkpt>
      <trkpt lat="46.8831" lon="-0.61857">
        <ele>192</ele>
        <time>2016-04-24T08:57:08Z</time>
      </trkpt>
      <trkpt lat="46.88322" lon="-0.61841">
        <ele>194</ele>
        <time>2016-04-24T08:57:12Z</time>
      </trkpt>
      <trkpt lat="46.88334" lon="-0.61824">
        <ele>193</ele>
        <time>2016-04-24T08:57:16Z</time>
      </trkpt>
      <trkpt lat="46.88347" lon="-0.61809">
        <ele>195</ele>
        <time>2016-04-24T08:57:20Z</time>
      </trkpt>
      <trkpt lat="46.88361" lon="-0.61796">
        <ele>198</ele>
        <time>2016-04-24T08:57:24Z</time>
      </trkpt>
      <trkpt lat="46.88368" lon="-0.61782">
        <ele>194</ele>
        <time>2016-04-24T08:57:28Z</time>
      </trkpt>
      <trkpt lat="46.88374" lon="-0.61762">
        <ele>187</ele>
        <time>2016-04-24T08:57:32Z</time>
      </trkpt>
      <trkpt lat="46.88392" lon="-0.61725">
        <ele>193</ele>
        <time>2016-04-24T08:57:37Z</time>
      </trkpt>
      <trkpt lat="46.88398" lon="-0.61704">
        <ele>194</ele>
        <time>2016-04-24T08:57:41Z</time>
      </trkpt>
      <trkpt lat="46.88403" lon="-0.61681">
        <ele>194</ele>
        <time>2016-04-24T08:57:45Z</time>
      </trkpt>
      <trkpt lat="46.88415" lon="-0.61648">
        <ele>194</ele>
        <time>2016-04-24T08:57:50Z</time>
      </trkpt>
      <trkpt lat="46.88425" lon="-0.61622">
        <ele>190</ele>
        <time>2016-04-24T08:57:54Z</time>
      </trkpt>
      <trkpt lat="46.88436" lon="-0.61602">
        <ele>190</ele>
        <time>2016-04-24T08:57:58Z</time>
      </trkpt>
      <trkpt lat="46.88448" lon="-0.6158">
        <ele>192</ele>
        <time>2016-04-24T08:58:03Z</time>
      </trkpt>
      <trkpt lat="46.88452" lon="-0.61558">
        <ele>189</ele>
        <time>2016-04-24T08:58:07Z</time>
      </trkpt>
      <trkpt lat="46.88453" lon="-0.61535">
        <ele>193</ele>
        <time>2016-04-24T08:58:11Z</time>
      </trkpt>
      <trkpt lat="46.88446" lon="-0.61515">
        <ele>190</ele>
        <time>2016-04-24T08:58:16Z</time>
      </trkpt>
      <trkpt lat="46.88444" lon="-0.61492">
        <ele>190</ele>
        <time>2016-04-24T08:58:20Z</time>
      </trkpt>
      <trkpt lat="46.88441" lon="-0.6147">
        <ele>191</ele>
        <time>2016-04-24T08:58:24Z</time>
      </trkpt>
      <trkpt lat="46.88435" lon="-0.61451">
        <ele>191</ele>
        <time>2016-04-24T08:58:28Z</time>
      </trkpt>
      <trkpt lat="46.88433" lon="-0.61429">
        <ele>190</ele>
        <time>2016-04-24T08:58:32Z</time>
      </trkpt>
      <trkpt lat="46.88432" lon="-0.61409">
        <ele>190</ele>
        <time>2016-04-24T08:58:36Z</time>
      </trkpt>
      <trkpt lat="46.88434" lon="-0.61389">
        <ele>192</ele>
        <time>2016-04-24T08:58:40Z</time>
      </trkpt>
      <trkpt lat="46.88437" lon="-0.61369">
        <ele>193</ele>
        <time>2016-04-24T08:58:45Z</time>
      </trkpt>
      <trkpt lat="46.88439" lon="-0.61357">
        <ele>193</ele>
        <time>2016-04-24T08:58:50Z</time>
      </trkpt>
      <trkpt lat="46.88444" lon="-0.61351">
        <ele>192</ele>
        <time>2016-04-24T08:59:21Z</time>
      </trkpt>
      <trkpt lat="46.88448" lon="-0.61337">
        <ele>191</ele>
        <time>2016-04-24T08:59:25Z</time>
      </trkpt>
      <trkpt lat="46.88453" lon="-0.61321">
        <ele>189</ele>
        <time>2016-04-24T08:59:29Z</time>
      </trkpt>
      <trkpt lat="46.88458" lon="-0.61306">
        <ele>188</ele>
        <time>2016-04-24T08:59:33Z</time>
      </trkpt>
      <trkpt lat="46.88463" lon="-0.61292">
        <ele>188</ele>
        <time>2016-04-24T08:59:37Z</time>
      </trkpt>
      <trkpt lat="46.88472" lon="-0.61276">
        <ele>187</ele>
        <time>2016-04-24T08:59:41Z</time>
      </trkpt>
      <trkpt lat="46.8848" lon="-0.61262">
        <ele>187</ele>
        <time>2016-04-24T08:59:45Z</time>
      </trkpt>
      <trkpt lat="46.88489" lon="-0.61247">
        <ele>185</ele>
        <time>2016-04-24T08:59:49Z</time>
      </trkpt>
      <trkpt lat="46.88502" lon="-0.6123">
        <ele>188</ele>
        <time>2016-04-24T08:59:53Z</time>
      </trkpt>
      <trkpt lat="46.88518" lon="-0.61208">
        <ele>188</ele>
        <time>2016-04-24T08:59:58Z</time>
      </trkpt>
      <trkpt lat="46.88534" lon="-0.61194">
        <ele>187</ele>
        <time>2016-04-24T09:00:02Z</time>
      </trkpt>
      <trkpt lat="46.8855" lon="-0.61173">
        <ele>187</ele>
        <time>2016-04-24T09:00:07Z</time>
      </trkpt>
      <trkpt lat="46.88562" lon="-0.61154">
        <ele>187</ele>
        <time>2016-04-24T09:00:11Z</time>
      </trkpt>
      <trkpt lat="46.88572" lon="-0.61133">
        <ele>188</ele>
        <time>2016-04-24T09:00:15Z</time>
      </trkpt>
      <trkpt lat="46.88582" lon="-0.61112">
        <ele>189</ele>
        <time>2016-04-24T09:00:19Z</time>
      </trkpt>
      <trkpt lat="46.88591" lon="-0.61096">
        <ele>191</ele>
        <time>2016-04-24T09:00:23Z</time>
      </trkpt>
      <trkpt lat="46.88601" lon="-0.61083">
        <ele>194</ele>
        <time>2016-04-24T09:00:27Z</time>
      </trkpt>
      <trkpt lat="46.88611" lon="-0.6107">
        <ele>193</ele>
        <time>2016-04-24T09:00:31Z</time>
      </trkpt>
      <trkpt lat="46.88621" lon="-0.61058">
        <ele>192</ele>
        <time>2016-04-24T09:00:35Z</time>
      </trkpt>
      <trkpt lat="46.88632" lon="-0.61049">
        <ele>195</ele>
        <time>2016-04-24T09:00:39Z</time>
      </trkpt>
      <trkpt lat="46.8864" lon="-0.61037">
        <ele>195</ele>
        <time>2016-04-24T09:00:43Z</time>
      </trkpt>
      <trkpt lat="46.88647" lon="-0.61021">
        <ele>197</ele>
        <time>2016-04-24T09:00:47Z</time>
      </trkpt>
      <trkpt lat="46.88655" lon="-0.61006">
        <ele>197</ele>
        <time>2016-04-24T09:00:51Z</time>
      </trkpt>
      <trkpt lat="46.88663" lon="-0.6099">
        <ele>197</ele>
        <time>2016-04-24T09:00:55Z</time>
      </trkpt>
      <trkpt lat="46.88672" lon="-0.60974">
        <ele>197</ele>
        <time>2016-04-24T09:00:59Z</time>
      </trkpt>
      <trkpt lat="46.88681" lon="-0.60958">
        <ele>195</ele>
        <time>2016-04-24T09:01:03Z</time>
      </trkpt>
      <trkpt lat="46.88692" lon="-0.60938">
        <ele>196</ele>
        <time>2016-04-24T09:01:08Z</time>
      </trkpt>
      <trkpt lat="46.88704" lon="-0.60919">
        <ele>195</ele>
        <time>2016-04-24T09:01:13Z</time>
      </trkpt>
      <trkpt lat="46.88712" lon="-0.60904">
        <ele>196</ele>
        <time>2016-04-24T09:01:16Z</time>
      </trkpt>
      <trkpt lat="46.88721" lon="-0.60888">
        <ele>196</ele>
        <time>2016-04-24T09:01:20Z</time>
      </trkpt>
      <trkpt lat="46.8873" lon="-0.60871">
        <ele>196</ele>
        <time>2016-04-24T09:01:24Z</time>
      </trkpt>
      <trkpt lat="46.88739" lon="-0.60857">
        <ele>196</ele>
        <time>2016-04-24T09:01:28Z</time>
      </trkpt>
      <trkpt lat="46.88754" lon="-0.60833">
        <ele>194</ele>
        <time>2016-04-24T09:01:33Z</time>
      </trkpt>
      <trkpt lat="46.88761" lon="-0.60829">
        <ele>194</ele>
        <time>2016-04-24T09:01:36Z</time>
      </trkpt>
      <trkpt lat="46.88774" lon="-0.60813">
        <ele>197</ele>
        <time>2016-04-24T09:01:40Z</time>
      </trkpt>
      <trkpt lat="46.88784" lon="-0.60796">
        <ele>198</ele>
        <time>2016-04-24T09:01:45Z</time>
      </trkpt>
      <trkpt lat="46.88789" lon="-0.60783">
        <ele>197</ele>
        <time>2016-04-24T09:01:49Z</time>
      </trkpt>
      <trkpt lat="46.88798" lon="-0.60786">
        <ele>199</ele>
        <time>2016-04-24T09:01:53Z</time>
      </trkpt>
      <trkpt lat="46.88812" lon="-0.6079">
        <ele>202</ele>
        <time>2016-04-24T09:01:57Z</time>
      </trkpt>
      <trkpt lat="46.8882" lon="-0.60795">
        <ele>202</ele>
        <time>2016-04-24T09:02:02Z</time>
      </trkpt>
      <trkpt lat="46.88823" lon="-0.60795">
        <ele>204</ele>
        <time>2016-04-24T09:04:55Z</time>
      </trkpt>
      <trkpt lat="46.8884" lon="-0.60805">
        <ele>207</ele>
        <time>2016-04-24T09:04:59Z</time>
      </trkpt>
      <trkpt lat="46.88859" lon="-0.60805">
        <ele>203</ele>
        <time>2016-04-24T09:05:03Z</time>
      </trkpt>
      <trkpt lat="46.88878" lon="-0.60798">
        <ele>204</ele>
        <time>2016-04-24T09:05:07Z</time>
      </trkpt>
      <trkpt lat="46.889" lon="-0.60811">
        <ele>205</ele>
        <time>2016-04-24T09:05:11Z</time>
      </trkpt>
      <trkpt lat="46.88916" lon="-0.60832">
        <ele>206</ele>
        <time>2016-04-24T09:05:15Z</time>
      </trkpt>
      <trkpt lat="46.8893" lon="-0.60854">
        <ele>201</ele>
        <time>2016-04-24T09:05:19Z</time>
      </trkpt>
      <trkpt lat="46.88951" lon="-0.60859">
        <ele>204</ele>
        <time>2016-04-24T09:05:23Z</time>
      </trkpt>
      <trkpt lat="46.8897" lon="-0.60843">
        <ele>209</ele>
        <time>2016-04-24T09:05:27Z</time>
      </trkpt>
      <trkpt lat="46.88985" lon="-0.60824">
        <ele>209</ele>
        <time>2016-04-24T09:05:31Z</time>
      </trkpt>
      <trkpt lat="46.89" lon="-0.60809">
        <ele>208</ele>
        <time>2016-04-24T09:05:35Z</time>
      </trkpt>
      <trkpt lat="46.89018" lon="-0.60786">
        <ele>207</ele>
        <time>2016-04-24T09:05:39Z</time>
      </trkpt>
      <trkpt lat="46.8905" lon="-0.6075">
        <ele>203</ele>
        <time>2016-04-24T09:05:44Z</time>
      </trkpt>
      <trkpt lat="46.89093" lon="-0.60709">
        <ele>198</ele>
        <time>2016-04-24T09:05:49Z</time>
      </trkpt>
      <trkpt lat="46.89118" lon="-0.60689">
        <ele>196</ele>
        <time>2016-04-24T09:05:52Z</time>
      </trkpt>
      <trkpt lat="46.89141" lon="-0.60669">
        <ele>198</ele>
        <time>2016-04-24T09:05:56Z</time>
      </trkpt>
      <trkpt lat="46.89171" lon="-0.60648">
        <ele>198</ele>
        <time>2016-04-24T09:06:01Z</time>
      </trkpt>
      <trkpt lat="46.89198" lon="-0.60647">
        <ele>200</ele>
        <time>2016-04-24T09:06:05Z</time>
      </trkpt>
      <trkpt lat="46.89219" lon="-0.60669">
        <ele>205</ele>
        <time>2016-04-24T09:06:09Z</time>
      </trkpt>
      <trkpt lat="46.8924" lon="-0.60688">
        <ele>206</ele>
        <time>2016-04-24T09:06:13Z</time>
      </trkpt>
      <trkpt lat="46.89256" lon="-0.60709">
        <ele>205</ele>
        <time>2016-04-24T09:06:17Z</time>
      </trkpt>
      <trkpt lat="46.89263" lon="-0.60726">
        <ele>207</ele>
        <time>2016-04-24T09:06:21Z</time>
      </trkpt>
      <trkpt lat="46.89283" lon="-0.60747">
        <ele>213</ele>
        <time>2016-04-24T09:06:25Z</time>
      </trkpt>
      <trkpt lat="46.89288" lon="-0.60758">
        <ele>211</ele>
        <time>2016-04-24T09:06:29Z</time>
      </trkpt>
      <trkpt lat="46.89299" lon="-0.60773">
        <ele>215</ele>
        <time>2016-04-24T09:06:33Z</time>
      </trkpt>
      <trkpt lat="46.89305" lon="-0.60793">
        <ele>212</ele>
        <time>2016-04-24T09:06:37Z</time>
      </trkpt>
      <trkpt lat="46.89307" lon="-0.60815">
        <ele>214</ele>
        <time>2016-04-24T09:06:41Z</time>
      </trkpt>
      <trkpt lat="46.89307" lon="-0.60835">
        <ele>223</ele>
        <time>2016-04-24T09:06:45Z</time>
      </trkpt>
      <trkpt lat="46.89315" lon="-0.6085">
        <ele>218</ele>
        <time>2016-04-24T09:06:49Z</time>
      </trkpt>
      <trkpt lat="46.89321" lon="-0.60872">
        <ele>221</ele>
        <time>2016-04-24T09:06:54Z</time>
      </trkpt>
      <trkpt lat="46.89327" lon="-0.60886">
        <ele>224</ele>
        <time>2016-04-24T09:06:58Z</time>
      </trkpt>
      <trkpt lat="46.89332" lon="-0.60901">
        <ele>220</ele>
        <time>2016-04-24T09:07:02Z</time>
      </trkpt>
      <trkpt lat="46.89335" lon="-0.60915">
        <ele>216</ele>
        <time>2016-04-24T09:07:06Z</time>
      </trkpt>
      <trkpt lat="46.89338" lon="-0.60926">
        <ele>216</ele>
        <time>2016-04-24T09:07:10Z</time>
      </trkpt>
      <trkpt lat="46.8934" lon="-0.60937">
        <ele>212</ele>
        <time>2016-04-24T09:07:18Z</time>
      </trkpt>
      <trkpt lat="46.89344" lon="-0.60947">
        <ele>213</ele>
        <time>2016-04-24T09:07:22Z</time>
      </trkpt>
      <trkpt lat="46.89352" lon="-0.60965">
        <ele>214</ele>
        <time>2016-04-24T09:07:26Z</time>
      </trkpt>
      <trkpt lat="46.8936" lon="-0.60982">
        <ele>214</ele>
        <time>2016-04-24T09:07:30Z</time>
      </trkpt>
      <trkpt lat="46.89366" lon="-0.61">
        <ele>211</ele>
        <time>2016-04-24T09:07:34Z</time>
      </trkpt>
      <trkpt lat="46.89376" lon="-0.61018">
        <ele>212</ele>
        <time>2016-04-24T09:07:38Z</time>
      </trkpt>
      <trkpt lat="46.89386" lon="-0.61036">
        <ele>213</ele>
        <time>2016-04-24T09:07:42Z</time>
      </trkpt>
      <trkpt lat="46.89396" lon="-0.61057">
        <ele>213</ele>
        <time>2016-04-24T09:07:46Z</time>
      </trkpt>
      <trkpt lat="46.89406" lon="-0.61077">
        <ele>211</ele>
        <time>2016-04-24T09:07:50Z</time>
      </trkpt>
      <trkpt lat="46.89417" lon="-0.61097">
        <ele>210</ele>
        <time>2016-04-24T09:07:54Z</time>
      </trkpt>
      <trkpt lat="46.89428" lon="-0.61115">
        <ele>212</ele>
        <time>2016-04-24T09:07:58Z</time>
      </trkpt>
      <trkpt lat="46.89437" lon="-0.6114">
        <ele>211</ele>
        <time>2016-04-24T09:08:02Z</time>
      </trkpt>
      <trkpt lat="46.89447" lon="-0.61167">
        <ele>211</ele>
        <time>2016-04-24T09:08:07Z</time>
      </trkpt>
      <trkpt lat="46.89455" lon="-0.61188">
        <ele>210</ele>
        <time>2016-04-24T09:08:11Z</time>
      </trkpt>
      <trkpt lat="46.89462" lon="-0.61212">
        <ele>206</ele>
        <time>2016-04-24T09:08:15Z</time>
      </trkpt>
      <trkpt lat="46.89469" lon="-0.6123">
        <ele>206</ele>
        <time>2016-04-24T09:08:19Z</time>
      </trkpt>
      <trkpt lat="46.89474" lon="-0.61249">
        <ele>206</ele>
        <time>2016-04-24T09:08:23Z</time>
      </trkpt>
      <trkpt lat="46.89478" lon="-0.61267">
        <ele>206</ele>
        <time>2016-04-24T09:08:27Z</time>
      </trkpt>
      <trkpt lat="46.89484" lon="-0.61285">
        <ele>206</ele>
        <time>2016-04-24T09:08:31Z</time>
      </trkpt>
      <trkpt lat="46.89489" lon="-0.613">
        <ele>206</ele>
        <time>2016-04-24T09:08:35Z</time>
      </trkpt>
      <trkpt lat="46.89496" lon="-0.61314">
        <ele>211</ele>
        <time>2016-04-24T09:08:39Z</time>
      </trkpt>
      <trkpt lat="46.89505" lon="-0.61334">
        <ele>215</ele>
        <time>2016-04-24T09:08:43Z</time>
      </trkpt>
      <trkpt lat="46.89514" lon="-0.61355">
        <ele>218</ele>
        <time>2016-04-24T09:08:47Z</time>
      </trkpt>
      <trkpt lat="46.89521" lon="-0.61381">
        <ele>214</ele>
        <time>2016-04-24T09:08:51Z</time>
      </trkpt>
      <trkpt lat="46.89526" lon="-0.61403">
        <ele>214</ele>
        <time>2016-04-24T09:08:55Z</time>
      </trkpt>
      <trkpt lat="46.89531" lon="-0.6142">
        <ele>216</ele>
        <time>2016-04-24T09:08:59Z</time>
      </trkpt>
      <trkpt lat="46.89536" lon="-0.6144">
        <ele>216</ele>
        <time>2016-04-24T09:09:03Z</time>
      </trkpt>
      <trkpt lat="46.89541" lon="-0.6146">
        <ele>216</ele>
        <time>2016-04-24T09:09:07Z</time>
      </trkpt>
      <trkpt lat="46.89545" lon="-0.6148">
        <ele>213</ele>
        <time>2016-04-24T09:09:11Z</time>
      </trkpt>
      <trkpt lat="46.8955" lon="-0.61497">
        <ele>214</ele>
        <time>2016-04-24T09:09:15Z</time>
      </trkpt>
      <trkpt lat="46.89557" lon="-0.61518">
        <ele>215</ele>
        <time>2016-04-24T09:09:20Z</time>
      </trkpt>
      <trkpt lat="46.89561" lon="-0.6153">
        <ele>210</ele>
        <time>2016-04-24T09:09:24Z</time>
      </trkpt>
      <trkpt lat="46.89567" lon="-0.61538">
        <ele>216</ele>
        <time>2016-04-24T09:09:42Z</time>
      </trkpt>
      <trkpt lat="46.89571" lon="-0.6155">
        <ele>215</ele>
        <time>2016-04-24T09:09:49Z</time>
      </trkpt>
      <trkpt lat="46.89574" lon="-0.61558">
        <ele>212</ele>
        <time>2016-04-24T09:10:10Z</time>
      </trkpt>
      <trkpt lat="46.89582" lon="-0.61574">
        <ele>218</ele>
        <time>2016-04-24T09:10:14Z</time>
      </trkpt>
      <trkpt lat="46.89587" lon="-0.61588">
        <ele>221</ele>
        <time>2016-04-24T09:10:18Z</time>
      </trkpt>
      <trkpt lat="46.89593" lon="-0.61596">
        <ele>220</ele>
        <time>2016-04-24T09:10:22Z</time>
      </trkpt>
      <trkpt lat="46.896" lon="-0.6161">
        <ele>214</ele>
        <time>2016-04-24T09:10:26Z</time>
      </trkpt>
      <trkpt lat="46.8961" lon="-0.61629">
        <ele>225</ele>
        <time>2016-04-24T09:10:31Z</time>
      </trkpt>
      <trkpt lat="46.89615" lon="-0.61647">
        <ele>226</ele>
        <time>2016-04-24T09:10:35Z</time>
      </trkpt>
      <trkpt lat="46.89628" lon="-0.61677">
        <ele>221</ele>
        <time>2016-04-24T09:10:39Z</time>
      </trkpt>
      <trkpt lat="46.89636" lon="-0.61693">
        <ele>225</ele>
        <time>2016-04-24T09:10:43Z</time>
      </trkpt>
      <trkpt lat="46.89641" lon="-0.61709">
        <ele>229</ele>
        <time>2016-04-24T09:10:47Z</time>
      </trkpt>
      <trkpt lat="46.89644" lon="-0.61723">
        <ele>224</ele>
        <time>2016-04-24T09:10:51Z</time>
      </trkpt>
      <trkpt lat="46.8965" lon="-0.61737">
        <ele>226</ele>
        <time>2016-04-24T09:10:55Z</time>
      </trkpt>
      <trkpt lat="46.89661" lon="-0.61761">
        <ele>225</ele>
        <time>2016-04-24T09:10:59Z</time>
      </trkpt>
      <trkpt lat="46.89667" lon="-0.61777">
        <ele>224</ele>
        <time>2016-04-24T09:11:03Z</time>
      </trkpt>
      <trkpt lat="46.89673" lon="-0.6179">
        <ele>224</ele>
        <time>2016-04-24T09:11:07Z</time>
      </trkpt>
      <trkpt lat="46.89682" lon="-0.61818">
        <ele>222</ele>
        <time>2016-04-24T09:11:11Z</time>
      </trkpt>
      <trkpt lat="46.89692" lon="-0.61844">
        <ele>232</ele>
        <time>2016-04-24T09:11:15Z</time>
      </trkpt>
      <trkpt lat="46.897" lon="-0.61878">
        <ele>226</ele>
        <time>2016-04-24T09:11:19Z</time>
      </trkpt>
      <trkpt lat="46.89728" lon="-0.61903">
        <ele>227</ele>
        <time>2016-04-24T09:11:23Z</time>
      </trkpt>
      <trkpt lat="46.8975" lon="-0.61944">
        <ele>234</ele>
        <time>2016-04-24T09:11:27Z</time>
      </trkpt>
      <trkpt lat="46.8978" lon="-0.61997">
        <ele>230</ele>
        <time>2016-04-24T09:11:32Z</time>
      </trkpt>
      <trkpt lat="46.89803" lon="-0.62026">
        <ele>228</ele>
        <time>2016-04-24T09:11:35Z</time>
      </trkpt>
      <trkpt lat="46.8982" lon="-0.62061">
        <ele>220</ele>
        <time>2016-04-24T09:11:39Z</time>
      </trkpt>
      <trkpt lat="46.8984" lon="-0.62103">
        <ele>216</ele>
        <time>2016-04-24T09:11:44Z</time>
      </trkpt>
      <trkpt lat="46.89856" lon="-0.62131">
        <ele>215</ele>
        <time>2016-04-24T09:11:48Z</time>
      </trkpt>
      <trkpt lat="46.89873" lon="-0.62155">
        <ele>218</ele>
        <time>2016-04-24T09:11:52Z</time>
      </trkpt>
      <trkpt lat="46.89893" lon="-0.62186">
        <ele>217</ele>
        <time>2016-04-24T09:11:57Z</time>
      </trkpt>
      <trkpt lat="46.89906" lon="-0.62218">
        <ele>215</ele>
        <time>2016-04-24T09:12:01Z</time>
      </trkpt>
      <trkpt lat="46.89921" lon="-0.62244">
        <ele>217</ele>
        <time>2016-04-24T09:12:05Z</time>
      </trkpt>
      <trkpt lat="46.89938" lon="-0.62267">
        <ele>215</ele>
        <time>2016-04-24T09:12:09Z</time>
      </trkpt>
      <trkpt lat="46.89953" lon="-0.62293">
        <ele>212</ele>
        <time>2016-04-24T09:12:13Z</time>
      </trkpt>
      <trkpt lat="46.89967" lon="-0.62313">
        <ele>213</ele>
        <time>2016-04-24T09:12:17Z</time>
      </trkpt>
      <trkpt lat="46.89982" lon="-0.62332">
        <ele>214</ele>
        <time>2016-04-24T09:12:21Z</time>
      </trkpt>
      <trkpt lat="46.9" lon="-0.62354">
        <ele>213</ele>
        <time>2016-04-24T09:12:25Z</time>
      </trkpt>
      <trkpt lat="46.90012" lon="-0.62376">
        <ele>213</ele>
        <time>2016-04-24T09:12:29Z</time>
      </trkpt>
      <trkpt lat="46.90036" lon="-0.62389">
        <ele>209</ele>
        <time>2016-04-24T09:12:33Z</time>
      </trkpt>
      <trkpt lat="46.90063" lon="-0.62405">
        <ele>206</ele>
        <time>2016-04-24T09:12:37Z</time>
      </trkpt>
      <trkpt lat="46.90088" lon="-0.62422">
        <ele>203</ele>
        <time>2016-04-24T09:12:41Z</time>
      </trkpt>
      <trkpt lat="46.90114" lon="-0.62431">
        <ele>197</ele>
        <time>2016-04-24T09:12:45Z</time>
      </trkpt>
      <trkpt lat="46.90146" lon="-0.62435">
        <ele>196</ele>
        <time>2016-04-24T09:12:49Z</time>
      </trkpt>
      <trkpt lat="46.90172" lon="-0.62431">
        <ele>190</ele>
        <time>2016-04-24T09:12:53Z</time>
      </trkpt>
      <trkpt lat="46.90183" lon="-0.62448">
        <ele>190</ele>
        <time>2016-04-24T09:12:57Z</time>
      </trkpt>
      <trkpt lat="46.90197" lon="-0.62485">
        <ele>191</ele>
        <time>2016-04-24T09:13:02Z</time>
      </trkpt>
      <trkpt lat="46.90209" lon="-0.62514">
        <ele>191</ele>
        <time>2016-04-24T09:13:06Z</time>
      </trkpt>
      <trkpt lat="46.90219" lon="-0.62544">
        <ele>193</ele>
        <time>2016-04-24T09:13:10Z</time>
      </trkpt>
      <trkpt lat="46.90229" lon="-0.6257">
        <ele>191</ele>
        <time>2016-04-24T09:13:14Z</time>
      </trkpt>
      <trkpt lat="46.90251" lon="-0.62594">
        <ele>187</ele>
        <time>2016-04-24T09:13:19Z</time>
      </trkpt>
      <trkpt lat="46.90271" lon="-0.62618">
        <ele>183</ele>
        <time>2016-04-24T09:13:23Z</time>
      </trkpt>
      <trkpt lat="46.90285" lon="-0.62634">
        <ele>186</ele>
        <time>2016-04-24T09:13:27Z</time>
      </trkpt>
      <trkpt lat="46.90298" lon="-0.62648">
        <ele>187</ele>
        <time>2016-04-24T09:13:31Z</time>
      </trkpt>
      <trkpt lat="46.90313" lon="-0.62666">
        <ele>183</ele>
        <time>2016-04-24T09:13:35Z</time>
      </trkpt>
      <trkpt lat="46.90324" lon="-0.62684">
        <ele>180</ele>
        <time>2016-04-24T09:13:39Z</time>
      </trkpt>
      <trkpt lat="46.90334" lon="-0.62694">
        <ele>181</ele>
        <time>2016-04-24T09:13:43Z</time>
      </trkpt>
      <trkpt lat="46.90342" lon="-0.62682">
        <ele>184</ele>
        <time>2016-04-24T09:13:47Z</time>
      </trkpt>
      <trkpt lat="46.90354" lon="-0.62668">
        <ele>184</ele>
        <time>2016-04-24T09:13:51Z</time>
      </trkpt>
      <trkpt lat="46.90367" lon="-0.62649">
        <ele>184</ele>
        <time>2016-04-24T09:13:55Z</time>
      </trkpt>
      <trkpt lat="46.90381" lon="-0.6263">
        <ele>183</ele>
        <time>2016-04-24T09:13:59Z</time>
      </trkpt>
      <trkpt lat="46.904" lon="-0.62613">
        <ele>183</ele>
        <time>2016-04-24T09:14:04Z</time>
      </trkpt>
      <trkpt lat="46.90414" lon="-0.6262">
        <ele>180</ele>
        <time>2016-04-24T09:14:08Z</time>
      </trkpt>
      <trkpt lat="46.90423" lon="-0.62637">
        <ele>176</ele>
        <time>2016-04-24T09:14:12Z</time>
      </trkpt>
      <trkpt lat="46.90432" lon="-0.62654">
        <ele>177</ele>
        <time>2016-04-24T09:14:16Z</time>
      </trkpt>
      <trkpt lat="46.90442" lon="-0.62674">
        <ele>177</ele>
        <time>2016-04-24T09:14:20Z</time>
      </trkpt>
      <trkpt lat="46.90454" lon="-0.62692">
        <ele>178</ele>
        <time>2016-04-24T09:14:24Z</time>
      </trkpt>
      <trkpt lat="46.90466" lon="-0.62712">
        <ele>180</ele>
        <time>2016-04-24T09:14:29Z</time>
      </trkpt>
      <trkpt lat="46.90478" lon="-0.62724">
        <ele>179</ele>
        <time>2016-04-24T09:14:34Z</time>
      </trkpt>
      <trkpt lat="46.90484" lon="-0.62732">
        <ele>178</ele>
        <time>2016-04-24T09:14:38Z</time>
      </trkpt>
      <trkpt lat="46.90491" lon="-0.6274">
        <ele>181</ele>
        <time>2016-04-24T09:14:43Z</time>
      </trkpt>
      <trkpt lat="46.90499" lon="-0.6275">
        <ele>180</ele>
        <time>2016-04-24T09:14:47Z</time>
      </trkpt>
      <trkpt lat="46.9051" lon="-0.62759">
        <ele>180</ele>
        <time>2016-04-24T09:14:51Z</time>
      </trkpt>
      <trkpt lat="46.90521" lon="-0.62773">
        <ele>178</ele>
        <time>2016-04-24T09:14:56Z</time>
      </trkpt>
      <trkpt lat="46.90532" lon="-0.62782">
        <ele>180</ele>
        <time>2016-04-24T09:15:00Z</time>
      </trkpt>
      <trkpt lat="46.90543" lon="-0.62791">
        <ele>184</ele>
        <time>2016-04-24T09:15:04Z</time>
      </trkpt>
      <trkpt lat="46.90554" lon="-0.62801">
        <ele>183</ele>
        <time>2016-04-24T09:15:08Z</time>
      </trkpt>
      <trkpt lat="46.90566" lon="-0.62812">
        <ele>183</ele>
        <time>2016-04-24T09:15:12Z</time>
      </trkpt>
      <trkpt lat="46.90577" lon="-0.62823">
        <ele>184</ele>
        <time>2016-04-24T09:15:16Z</time>
      </trkpt>
      <trkpt lat="46.90591" lon="-0.62834">
        <ele>182</ele>
        <time>2016-04-24T09:15:20Z</time>
      </trkpt>
      <trkpt lat="46.90606" lon="-0.62846">
        <ele>181</ele>
        <time>2016-04-24T09:15:24Z</time>
      </trkpt>
      <trkpt lat="46.90624" lon="-0.6286">
        <ele>181</ele>
        <time>2016-04-24T09:15:29Z</time>
      </trkpt>
      <trkpt lat="46.90641" lon="-0.62875">
        <ele>182</ele>
        <time>2016-04-24T09:15:33Z</time>
      </trkpt>
      <trkpt lat="46.90658" lon="-0.62893">
        <ele>183</ele>
        <time>2016-04-24T09:15:38Z</time>
      </trkpt>
      <trkpt lat="46.90671" lon="-0.62909">
        <ele>181</ele>
        <time>2016-04-24T09:15:41Z</time>
      </trkpt>
      <trkpt lat="46.90689" lon="-0.62931">
        <ele>181</ele>
        <time>2016-04-24T09:15:45Z</time>
      </trkpt>
      <trkpt lat="46.90707" lon="-0.62953">
        <ele>180</ele>
        <time>2016-04-24T09:15:49Z</time>
      </trkpt>
      <trkpt lat="46.90722" lon="-0.62966">
        <ele>183</ele>
        <time>2016-04-24T09:15:53Z</time>
      </trkpt>
      <trkpt lat="46.90739" lon="-0.62986">
        <ele>178</ele>
        <time>2016-04-24T09:15:57Z</time>
      </trkpt>
      <trkpt lat="46.90758" lon="-0.63011">
        <ele>175</ele>
        <time>2016-04-24T09:16:01Z</time>
      </trkpt>
      <trkpt lat="46.9077" lon="-0.63028">
        <ele>175</ele>
        <time>2016-04-24T09:16:04Z</time>
      </trkpt>
      <trkpt lat="46.90778" lon="-0.63058">
        <ele>175</ele>
        <time>2016-04-24T09:16:08Z</time>
      </trkpt>
      <trkpt lat="46.90785" lon="-0.63088">
        <ele>178</ele>
        <time>2016-04-24T09:16:12Z</time>
      </trkpt>
      <trkpt lat="46.90791" lon="-0.63117">
        <ele>177</ele>
        <time>2016-04-24T09:16:16Z</time>
      </trkpt>
      <trkpt lat="46.90797" lon="-0.63144">
        <ele>176</ele>
        <time>2016-04-24T09:16:20Z</time>
      </trkpt>
      <trkpt lat="46.90797" lon="-0.6317">
        <ele>174</ele>
        <time>2016-04-24T09:16:24Z</time>
      </trkpt>
      <trkpt lat="46.90802" lon="-0.63197">
        <ele>173</ele>
        <time>2016-04-24T09:16:28Z</time>
      </trkpt>
      <trkpt lat="46.9081" lon="-0.63219">
        <ele>175</ele>
        <time>2016-04-24T09:16:32Z</time>
      </trkpt>
      <trkpt lat="46.90816" lon="-0.63245">
        <ele>177</ele>
        <time>2016-04-24T09:16:36Z</time>
      </trkpt>
      <trkpt lat="46.90825" lon="-0.63274">
        <ele>178</ele>
        <time>2016-04-24T09:16:41Z</time>
      </trkpt>
      <trkpt lat="46.90828" lon="-0.63299">
        <ele>179</ele>
        <time>2016-04-24T09:16:45Z</time>
      </trkpt>
      <trkpt lat="46.90816" lon="-0.63323">
        <ele>180</ele>
        <time>2016-04-24T09:16:49Z</time>
      </trkpt>
      <trkpt lat="46.908" lon="-0.63354">
        <ele>179</ele>
        <time>2016-04-24T09:16:54Z</time>
      </trkpt>
      <trkpt lat="46.90798" lon="-0.63394">
        <ele>179</ele>
        <time>2016-04-24T09:16:59Z</time>
      </trkpt>
      <trkpt lat="46.90804" lon="-0.63428">
        <ele>178</ele>
        <time>2016-04-24T09:17:03Z</time>
      </trkpt>
      <trkpt lat="46.90816" lon="-0.63475">
        <ele>176</ele>
        <time>2016-04-24T09:17:08Z</time>
      </trkpt>
      <trkpt lat="46.90818" lon="-0.63494">
        <ele>174</ele>
        <time>2016-04-24T09:17:10Z</time>
      </trkpt>
      <trkpt lat="46.90826" lon="-0.63537">
        <ele>172</ele>
        <time>2016-04-24T09:17:14Z</time>
      </trkpt>
      <trkpt lat="46.90824" lon="-0.63586">
        <ele>172</ele>
        <time>2016-04-24T09:17:19Z</time>
      </trkpt>
      <trkpt lat="46.90829" lon="-0.6363">
        <ele>171</ele>
        <time>2016-04-24T09:17:23Z</time>
      </trkpt>
      <trkpt lat="46.90833" lon="-0.63671">
        <ele>171</ele>
        <time>2016-04-24T09:17:27Z</time>
      </trkpt>
      <trkpt lat="46.90831" lon="-0.63706">
        <ele>171</ele>
        <time>2016-04-24T09:17:31Z</time>
      </trkpt>
      <trkpt lat="46.90834" lon="-0.63738">
        <ele>168</ele>
        <time>2016-04-24T09:17:35Z</time>
      </trkpt>
      <trkpt lat="46.90846" lon="-0.63775">
        <ele>170</ele>
        <time>2016-04-24T09:17:40Z</time>
      </trkpt>
      <trkpt lat="46.90858" lon="-0.63806">
        <ele>171</ele>
        <time>2016-04-24T09:17:44Z</time>
      </trkpt>
      <trkpt lat="46.90868" lon="-0.63837">
        <ele>170</ele>
        <time>2016-04-24T09:17:48Z</time>
      </trkpt>
      <trkpt lat="46.90883" lon="-0.63858">
        <ele>170</ele>
        <time>2016-04-24T09:17:52Z</time>
      </trkpt>
      <trkpt lat="46.909" lon="-0.6388">
        <ele>170</ele>
        <time>2016-04-24T09:17:56Z</time>
      </trkpt>
      <trkpt lat="46.90919" lon="-0.63898">
        <ele>168</ele>
        <time>2016-04-24T09:18:00Z</time>
      </trkpt>
      <trkpt lat="46.90939" lon="-0.63918">
        <ele>167</ele>
        <time>2016-04-24T09:18:04Z</time>
      </trkpt>
      <trkpt lat="46.90944" lon="-0.63946">
        <ele>167</ele>
        <time>2016-04-24T09:18:09Z</time>
      </trkpt>
      <trkpt lat="46.9094" lon="-0.63965">
        <ele>169</ele>
        <time>2016-04-24T09:18:13Z</time>
      </trkpt>
      <trkpt lat="46.9094" lon="-0.63979">
        <ele>170</ele>
        <time>2016-04-24T09:18:17Z</time>
      </trkpt>
      <trkpt lat="46.90936" lon="-0.63992">
        <ele>171</ele>
        <time>2016-04-24T09:18:21Z</time>
      </trkpt>
      <trkpt lat="46.90936" lon="-0.64019">
        <ele>171</ele>
        <time>2016-04-24T09:18:25Z</time>
      </trkpt>
      <trkpt lat="46.90935" lon="-0.64046">
        <ele>172</ele>
        <time>2016-04-24T09:18:29Z</time>
      </trkpt>
      <trkpt lat="46.90935" lon="-0.6407">
        <ele>171</ele>
        <time>2016-04-24T09:18:33Z</time>
      </trkpt>
      <trkpt lat="46.9094" lon="-0.64092">
        <ele>170</ele>
        <time>2016-04-24T09:18:37Z</time>
      </trkpt>
      <trkpt lat="46.90945" lon="-0.64119">
        <ele>170</ele>
        <time>2016-04-24T09:18:41Z</time>
      </trkpt>
      <trkpt lat="46.90946" lon="-0.64149">
        <ele>169</ele>
        <time>2016-04-24T09:18:45Z</time>
      </trkpt>
      <trkpt lat="46.90946" lon="-0.64183">
        <ele>168</ele>
        <time>2016-04-24T09:18:49Z</time>
      </trkpt>
      <trkpt lat="46.90945" lon="-0.64219">
        <ele>167</ele>
        <time>2016-04-24T09:18:53Z</time>
      </trkpt>
      <trkpt lat="46.90946" lon="-0.64256">
        <ele>166</ele>
        <time>2016-04-24T09:18:57Z</time>
      </trkpt>
      <trkpt lat="46.9095" lon="-0.64296">
        <ele>167</ele>
        <time>2016-04-24T09:19:01Z</time>
      </trkpt>
      <trkpt lat="46.90955" lon="-0.64341">
        <ele>164</ele>
        <time>2016-04-24T09:19:05Z</time>
      </trkpt>
      <trkpt lat="46.90953" lon="-0.64383">
        <ele>163</ele>
        <time>2016-04-24T09:19:09Z</time>
      </trkpt>
      <trkpt lat="46.9095" lon="-0.64413">
        <ele>161</ele>
        <time>2016-04-24T09:19:13Z</time>
      </trkpt>
      <trkpt lat="46.90952" lon="-0.64429">
        <ele>161</ele>
        <time>2016-04-24T09:19:17Z</time>
      </trkpt>
      <trkpt lat="46.90959" lon="-0.64443">
        <ele>160</ele>
        <time>2016-04-24T09:19:21Z</time>
      </trkpt>
      <trkpt lat="46.90971" lon="-0.64464">
        <ele>159</ele>
        <time>2016-04-24T09:19:25Z</time>
      </trkpt>
      <trkpt lat="46.90981" lon="-0.64484">
        <ele>160</ele>
        <time>2016-04-24T09:19:29Z</time>
      </trkpt>
      <trkpt lat="46.90995" lon="-0.64508">
        <ele>157</ele>
        <time>2016-04-24T09:19:33Z</time>
      </trkpt>
      <trkpt lat="46.91007" lon="-0.6453">
        <ele>157</ele>
        <time>2016-04-24T09:19:37Z</time>
      </trkpt>
      <trkpt lat="46.91025" lon="-0.64567">
        <ele>156</ele>
        <time>2016-04-24T09:19:42Z</time>
      </trkpt>
      <trkpt lat="46.91038" lon="-0.64591">
        <ele>154</ele>
        <time>2016-04-24T09:19:46Z</time>
      </trkpt>
      <trkpt lat="46.91049" lon="-0.64612">
        <ele>155</ele>
        <time>2016-04-24T09:19:49Z</time>
      </trkpt>
      <trkpt lat="46.91064" lon="-0.64641">
        <ele>153</ele>
        <time>2016-04-24T09:19:53Z</time>
      </trkpt>
      <trkpt lat="46.91085" lon="-0.64678">
        <ele>156</ele>
        <time>2016-04-24T09:19:58Z</time>
      </trkpt>
      <trkpt lat="46.91099" lon="-0.64703">
        <ele>158</ele>
        <time>2016-04-24T09:20:01Z</time>
      </trkpt>
      <trkpt lat="46.91118" lon="-0.64734">
        <ele>159</ele>
        <time>2016-04-24T09:20:05Z</time>
      </trkpt>
      <trkpt lat="46.91137" lon="-0.64763">
        <ele>158</ele>
        <time>2016-04-24T09:20:09Z</time>
      </trkpt>
      <trkpt lat="46.91155" lon="-0.64792">
        <ele>154</ele>
        <time>2016-04-24T09:20:13Z</time>
      </trkpt>
      <trkpt lat="46.91171" lon="-0.64822">
        <ele>151</ele>
        <time>2016-04-24T09:20:17Z</time>
      </trkpt>
      <trkpt lat="46.91185" lon="-0.64845">
        <ele>150</ele>
        <time>2016-04-24T09:20:21Z</time>
      </trkpt>
      <trkpt lat="46.91198" lon="-0.64869">
        <ele>149</ele>
        <time>2016-04-24T09:20:25Z</time>
      </trkpt>
      <trkpt lat="46.9121" lon="-0.64892">
        <ele>149</ele>
        <time>2016-04-24T09:20:29Z</time>
      </trkpt>
      <trkpt lat="46.91221" lon="-0.6491">
        <ele>149</ele>
        <time>2016-04-24T09:20:33Z</time>
      </trkpt>
      <trkpt lat="46.91238" lon="-0.64892">
        <ele>148</ele>
        <time>2016-04-24T09:20:37Z</time>
      </trkpt>
      <trkpt lat="46.91255" lon="-0.64867">
        <ele>146</ele>
        <time>2016-04-24T09:20:41Z</time>
      </trkpt>
      <trkpt lat="46.91271" lon="-0.64843">
        <ele>145</ele>
        <time>2016-04-24T09:20:45Z</time>
      </trkpt>
      <trkpt lat="46.91288" lon="-0.64815">
        <ele>142</ele>
        <time>2016-04-24T09:20:49Z</time>
      </trkpt>
      <trkpt lat="46.91308" lon="-0.64777">
        <ele>140</ele>
        <time>2016-04-24T09:20:54Z</time>
      </trkpt>
      <trkpt lat="46.91325" lon="-0.64749">
        <ele>141</ele>
        <time>2016-04-24T09:20:58Z</time>
      </trkpt>
      <trkpt lat="46.91339" lon="-0.64722">
        <ele>140</ele>
        <time>2016-04-24T09:21:02Z</time>
      </trkpt>
      <trkpt lat="46.91353" lon="-0.64693">
        <ele>141</ele>
        <time>2016-04-24T09:21:06Z</time>
      </trkpt>
      <trkpt lat="46.91371" lon="-0.64656">
        <ele>142</ele>
        <time>2016-04-24T09:21:11Z</time>
      </trkpt>
      <trkpt lat="46.91382" lon="-0.64634">
        <ele>143</ele>
        <time>2016-04-24T09:21:14Z</time>
      </trkpt>
      <trkpt lat="46.91398" lon="-0.64604">
        <ele>141</ele>
        <time>2016-04-24T09:21:18Z</time>
      </trkpt>
      <trkpt lat="46.91412" lon="-0.64573">
        <ele>138</ele>
        <time>2016-04-24T09:21:22Z</time>
      </trkpt>
      <trkpt lat="46.91432" lon="-0.64545">
        <ele>138</ele>
        <time>2016-04-24T09:21:26Z</time>
      </trkpt>
      <trkpt lat="46.9145" lon="-0.6452">
        <ele>137</ele>
        <time>2016-04-24T09:21:30Z</time>
      </trkpt>
      <trkpt lat="46.9147" lon="-0.64507">
        <ele>140</ele>
        <time>2016-04-24T09:21:34Z</time>
      </trkpt>
      <trkpt lat="46.91491" lon="-0.64498">
        <ele>140</ele>
        <time>2016-04-24T09:21:38Z</time>
      </trkpt>
      <trkpt lat="46.91512" lon="-0.64483">
        <ele>141</ele>
        <time>2016-04-24T09:21:42Z</time>
      </trkpt>
      <trkpt lat="46.91532" lon="-0.64472">
        <ele>137</ele>
        <time>2016-04-24T09:21:46Z</time>
      </trkpt>
      <trkpt lat="46.91552" lon="-0.64453">
        <ele>136</ele>
        <time>2016-04-24T09:21:50Z</time>
      </trkpt>
      <trkpt lat="46.91573" lon="-0.64441">
        <ele>142</ele>
        <time>2016-04-24T09:21:54Z</time>
      </trkpt>
      <trkpt lat="46.91605" lon="-0.64409">
        <ele>142</ele>
        <time>2016-04-24T09:21:59Z</time>
      </trkpt>
      <trkpt lat="46.91627" lon="-0.64381">
        <ele>138</ele>
        <time>2016-04-24T09:22:03Z</time>
      </trkpt>
      <trkpt lat="46.91651" lon="-0.64344">
        <ele>137</ele>
        <time>2016-04-24T09:22:07Z</time>
      </trkpt>
      <trkpt lat="46.91671" lon="-0.64314">
        <ele>134</ele>
        <time>2016-04-24T09:22:10Z</time>
      </trkpt>
      <trkpt lat="46.91696" lon="-0.64266">
        <ele>133</ele>
        <time>2016-04-24T09:22:14Z</time>
      </trkpt>
      <trkpt lat="46.91722" lon="-0.64204">
        <ele>129</ele>
        <time>2016-04-24T09:22:18Z</time>
      </trkpt>
      <trkpt lat="46.91744" lon="-0.64154">
        <ele>128</ele>
        <time>2016-04-24T09:22:22Z</time>
      </trkpt>
      <trkpt lat="46.91757" lon="-0.64115">
        <ele>128</ele>
        <time>2016-04-24T09:22:26Z</time>
      </trkpt>
      <trkpt lat="46.91772" lon="-0.64072">
        <ele>129</ele>
        <time>2016-04-24T09:22:30Z</time>
      </trkpt>
      <trkpt lat="46.91786" lon="-0.64029">
        <ele>128</ele>
        <time>2016-04-24T09:22:34Z</time>
      </trkpt>
      <trkpt lat="46.91802" lon="-0.6399">
        <ele>129</ele>
        <time>2016-04-24T09:22:38Z</time>
      </trkpt>
      <trkpt lat="46.91814" lon="-0.63949">
        <ele>128</ele>
        <time>2016-04-24T09:22:42Z</time>
      </trkpt>
      <trkpt lat="46.91824" lon="-0.63914">
        <ele>128</ele>
        <time>2016-04-24T09:22:46Z</time>
      </trkpt>
      <trkpt lat="46.91833" lon="-0.63886">
        <ele>129</ele>
        <time>2016-04-24T09:22:50Z</time>
      </trkpt>
      <trkpt lat="46.91842" lon="-0.63859">
        <ele>129</ele>
        <time>2016-04-24T09:22:54Z</time>
      </trkpt>
      <trkpt lat="46.91849" lon="-0.6383">
        <ele>129</ele>
        <time>2016-04-24T09:22:58Z</time>
      </trkpt>
      <trkpt lat="46.91857" lon="-0.63803">
        <ele>130</ele>
        <time>2016-04-24T09:23:02Z</time>
      </trkpt>
      <trkpt lat="46.91862" lon="-0.63778">
        <ele>130</ele>
        <time>2016-04-24T09:23:06Z</time>
      </trkpt>
      <trkpt lat="46.91867" lon="-0.63755">
        <ele>130</ele>
        <time>2016-04-24T09:23:10Z</time>
      </trkpt>
      <trkpt lat="46.91871" lon="-0.63729">
        <ele>129</ele>
        <time>2016-04-24T09:23:14Z</time>
      </trkpt>
      <trkpt lat="46.91875" lon="-0.63697">
        <ele>128</ele>
        <time>2016-04-24T09:23:18Z</time>
      </trkpt>
      <trkpt lat="46.9188" lon="-0.6366">
        <ele>128</ele>
        <time>2016-04-24T09:23:22Z</time>
      </trkpt>
      <trkpt lat="46.91891" lon="-0.63614">
        <ele>124</ele>
        <time>2016-04-24T09:23:27Z</time>
      </trkpt>
      <trkpt lat="46.91898" lon="-0.63571">
        <ele>121</ele>
        <time>2016-04-24T09:23:31Z</time>
      </trkpt>
      <trkpt lat="46.91906" lon="-0.6353">
        <ele>120</ele>
        <time>2016-04-24T09:23:35Z</time>
      </trkpt>
      <trkpt lat="46.91913" lon="-0.63482">
        <ele>120</ele>
        <time>2016-04-24T09:23:39Z</time>
      </trkpt>
      <trkpt lat="46.91923" lon="-0.63435">
        <ele>119</ele>
        <time>2016-04-24T09:23:43Z</time>
      </trkpt>
      <trkpt lat="46.91931" lon="-0.63385">
        <ele>117</ele>
        <time>2016-04-24T09:23:47Z</time>
      </trkpt>
      <trkpt lat="46.91939" lon="-0.63335">
        <ele>116</ele>
        <time>2016-04-24T09:23:51Z</time>
      </trkpt>
      <trkpt lat="46.91944" lon="-0.63287">
        <ele>116</ele>
        <time>2016-04-24T09:23:55Z</time>
      </trkpt>
      <trkpt lat="46.91953" lon="-0.63245">
        <ele>116</ele>
        <time>2016-04-24T09:23:59Z</time>
      </trkpt>
      <trkpt lat="46.91963" lon="-0.63203">
        <ele>115</ele>
        <time>2016-04-24T09:24:03Z</time>
      </trkpt>
      <trkpt lat="46.91969" lon="-0.63157">
        <ele>114</ele>
        <time>2016-04-24T09:24:07Z</time>
      </trkpt>
      <trkpt lat="46.91968" lon="-0.63115">
        <ele>113</ele>
        <time>2016-04-24T09:24:11Z</time>
      </trkpt>
      <trkpt lat="46.91973" lon="-0.63071">
        <ele>113</ele>
        <time>2016-04-24T09:24:15Z</time>
      </trkpt>
      <trkpt lat="46.91987" lon="-0.63029">
        <ele>112</ele>
        <time>2016-04-24T09:24:19Z</time>
      </trkpt>
      <trkpt lat="46.91998" lon="-0.62998">
        <ele>114</ele>
        <time>2016-04-24T09:24:23Z</time>
      </trkpt>
      <trkpt lat="46.9201" lon="-0.62991">
        <ele>116</ele>
        <time>2016-04-24T09:24:27Z</time>
      </trkpt>
      <trkpt lat="46.92029" lon="-0.63005">
        <ele>118</ele>
        <time>2016-04-24T09:24:31Z</time>
      </trkpt>
      <trkpt lat="46.92046" lon="-0.63015">
        <ele>118</ele>
        <time>2016-04-24T09:24:35Z</time>
      </trkpt>
      <trkpt lat="46.92057" lon="-0.63023">
        <ele>123</ele>
        <time>2016-04-24T09:24:39Z</time>
      </trkpt>
      <trkpt lat="46.92065" lon="-0.63027">
        <ele>123</ele>
        <time>2016-04-24T09:24:44Z</time>
      </trkpt>
      <trkpt lat="46.92071" lon="-0.63022">
        <ele>121</ele>
        <time>2016-04-24T09:24:54Z</time>
      </trkpt>
      <trkpt lat="46.92079" lon="-0.63022">
        <ele>123</ele>
        <time>2016-04-24T09:25:09Z</time>
      </trkpt>
      <trkpt lat="46.92088" lon="-0.63034">
        <ele>126</ele>
        <time>2016-04-24T09:25:13Z</time>
      </trkpt>
      <trkpt lat="46.92105" lon="-0.63052">
        <ele>126</ele>
        <time>2016-04-24T09:25:17Z</time>
      </trkpt>
      <trkpt lat="46.92122" lon="-0.63067">
        <ele>122</ele>
        <time>2016-04-24T09:25:21Z</time>
      </trkpt>
      <trkpt lat="46.92137" lon="-0.63082">
        <ele>122</ele>
        <time>2016-04-24T09:25:25Z</time>
      </trkpt>
      <trkpt lat="46.92151" lon="-0.63094">
        <ele>125</ele>
        <time>2016-04-24T09:25:29Z</time>
      </trkpt>
      <trkpt lat="46.92163" lon="-0.63111">
        <ele>127</ele>
        <time>2016-04-24T09:25:33Z</time>
      </trkpt>
      <trkpt lat="46.92178" lon="-0.63134">
        <ele>115</ele>
        <time>2016-04-24T09:25:37Z</time>
      </trkpt>
      <trkpt lat="46.92184" lon="-0.63155">
        <ele>115</ele>
        <time>2016-04-24T09:25:41Z</time>
      </trkpt>
      <trkpt lat="46.9219" lon="-0.6318">
        <ele>116</ele>
        <time>2016-04-24T09:25:45Z</time>
      </trkpt>
      <trkpt lat="46.92195" lon="-0.63203">
        <ele>117</ele>
        <time>2016-04-24T09:25:49Z</time>
      </trkpt>
      <trkpt lat="46.92201" lon="-0.63223">
        <ele>122</ele>
        <time>2016-04-24T09:25:54Z</time>
      </trkpt>
      <trkpt lat="46.92211" lon="-0.63239">
        <ele>126</ele>
        <time>2016-04-24T09:25:58Z</time>
      </trkpt>
      <trkpt lat="46.92224" lon="-0.63251">
        <ele>127</ele>
        <time>2016-04-24T09:26:02Z</time>
      </trkpt>
      <trkpt lat="46.92236" lon="-0.63258">
        <ele>131</ele>
        <time>2016-04-24T09:26:06Z</time>
      </trkpt>
      <trkpt lat="46.92243" lon="-0.63263">
        <ele>134</ele>
        <time>2016-04-24T09:26:10Z</time>
      </trkpt>
      <trkpt lat="46.92256" lon="-0.63269">
        <ele>132</ele>
        <time>2016-04-24T09:26:15Z</time>
      </trkpt>
      <trkpt lat="46.92265" lon="-0.63275">
        <ele>132</ele>
        <time>2016-04-24T09:26:19Z</time>
      </trkpt>
      <trkpt lat="46.92273" lon="-0.63284">
        <ele>136</ele>
        <time>2016-04-24T09:26:23Z</time>
      </trkpt>
      <trkpt lat="46.92286" lon="-0.63293">
        <ele>129</ele>
        <time>2016-04-24T09:26:27Z</time>
      </trkpt>
      <trkpt lat="46.92296" lon="-0.633">
        <ele>132</ele>
        <time>2016-04-24T09:26:31Z</time>
      </trkpt>
      <trkpt lat="46.9231" lon="-0.63317">
        <ele>130</ele>
        <time>2016-04-24T09:26:35Z</time>
      </trkpt>
      <trkpt lat="46.92321" lon="-0.63328">
        <ele>133</ele>
        <time>2016-04-24T09:26:39Z</time>
      </trkpt>
      <trkpt lat="46.9233" lon="-0.63349">
        <ele>129</ele>
        <time>2016-04-24T09:26:43Z</time>
      </trkpt>
      <trkpt lat="46.92338" lon="-0.63368">
        <ele>131</ele>
        <time>2016-04-24T09:26:47Z</time>
      </trkpt>
      <trkpt lat="46.92344" lon="-0.63387">
        <ele>129</ele>
        <time>2016-04-24T09:26:51Z</time>
      </trkpt>
      <trkpt lat="46.92351" lon="-0.63404">
        <ele>130</ele>
        <time>2016-04-24T09:26:55Z</time>
      </trkpt>
      <trkpt lat="46.92354" lon="-0.63424">
        <ele>133</ele>
        <time>2016-04-24T09:27:00Z</time>
      </trkpt>
      <trkpt lat="46.92355" lon="-0.63435">
        <ele>133</ele>
        <time>2016-04-24T09:27:04Z</time>
      </trkpt>
      <trkpt lat="46.92358" lon="-0.63449">
        <ele>133</ele>
        <time>2016-04-24T09:27:08Z</time>
      </trkpt>
      <trkpt lat="46.9236" lon="-0.63464">
        <ele>134</ele>
        <time>2016-04-24T09:27:12Z</time>
      </trkpt>
      <trkpt lat="46.92364" lon="-0.6348">
        <ele>135</ele>
        <time>2016-04-24T09:27:16Z</time>
      </trkpt>
      <trkpt lat="46.92367" lon="-0.63497">
        <ele>136</ele>
        <time>2016-04-24T09:27:20Z</time>
      </trkpt>
      <trkpt lat="46.92368" lon="-0.63515">
        <ele>136</ele>
        <time>2016-04-24T09:27:24Z</time>
      </trkpt>
      <trkpt lat="46.9237" lon="-0.63539">
        <ele>137</ele>
        <time>2016-04-24T09:27:29Z</time>
      </trkpt>
      <trkpt lat="46.92372" lon="-0.63565">
        <ele>133</ele>
        <time>2016-04-24T09:27:33Z</time>
      </trkpt>
      <trkpt lat="46.92376" lon="-0.63585">
        <ele>135</ele>
        <time>2016-04-24T09:27:37Z</time>
      </trkpt>
      <trkpt lat="46.92377" lon="-0.63607">
        <ele>135</ele>
        <time>2016-04-24T09:27:41Z</time>
      </trkpt>
      <trkpt lat="46.9238" lon="-0.63627">
        <ele>136</ele>
        <time>2016-04-24T09:27:45Z</time>
      </trkpt>
      <trkpt lat="46.92384" lon="-0.63653">
        <ele>135</ele>
        <time>2016-04-24T09:27:50Z</time>
      </trkpt>
      <trkpt lat="46.92388" lon="-0.63669">
        <ele>135</ele>
        <time>2016-04-24T09:27:54Z</time>
      </trkpt>
      <trkpt lat="46.92394" lon="-0.63686">
        <ele>136</ele>
        <time>2016-04-24T09:27:58Z</time>
      </trkpt>
      <trkpt lat="46.924" lon="-0.6371">
        <ele>135</ele>
        <time>2016-04-24T09:28:03Z</time>
      </trkpt>
      <trkpt lat="46.92406" lon="-0.63736">
        <ele>136</ele>
        <time>2016-04-24T09:28:08Z</time>
      </trkpt>
      <trkpt lat="46.92411" lon="-0.63757">
        <ele>137</ele>
        <time>2016-04-24T09:28:12Z</time>
      </trkpt>
      <trkpt lat="46.92416" lon="-0.63777">
        <ele>140</ele>
        <time>2016-04-24T09:28:16Z</time>
      </trkpt>
      <trkpt lat="46.92421" lon="-0.63797">
        <ele>142</ele>
        <time>2016-04-24T09:28:20Z</time>
      </trkpt>
      <trkpt lat="46.92425" lon="-0.63818">
        <ele>143</ele>
        <time>2016-04-24T09:28:24Z</time>
      </trkpt>
      <trkpt lat="46.92429" lon="-0.6384">
        <ele>141</ele>
        <time>2016-04-24T09:28:28Z</time>
      </trkpt>
      <trkpt lat="46.92433" lon="-0.63861">
        <ele>138</ele>
        <time>2016-04-24T09:28:32Z</time>
      </trkpt>
      <trkpt lat="46.92438" lon="-0.63881">
        <ele>139</ele>
        <time>2016-04-24T09:28:36Z</time>
      </trkpt>
      <trkpt lat="46.92443" lon="-0.63901">
        <ele>140</ele>
        <time>2016-04-24T09:28:40Z</time>
      </trkpt>
      <trkpt lat="46.92445" lon="-0.63918">
        <ele>141</ele>
        <time>2016-04-24T09:28:44Z</time>
      </trkpt>
      <trkpt lat="46.9245" lon="-0.63929">
        <ele>142</ele>
        <time>2016-04-24T09:28:48Z</time>
      </trkpt>
      <trkpt lat="46.92453" lon="-0.63946">
        <ele>144</ele>
        <time>2016-04-24T09:28:53Z</time>
      </trkpt>
      <trkpt lat="46.9245" lon="-0.63957">
        <ele>138</ele>
        <time>2016-04-24T09:32:32Z</time>
      </trkpt>
      <trkpt lat="46.92444" lon="-0.63965">
        <ele>145</ele>
        <time>2016-04-24T09:35:42Z</time>
      </trkpt>
      <trkpt lat="46.92446" lon="-0.63979">
        <ele>145</ele>
        <time>2016-04-24T09:35:46Z</time>
      </trkpt>
      <trkpt lat="46.92454" lon="-0.63995">
        <ele>148</ele>
        <time>2016-04-24T09:35:50Z</time>
      </trkpt>
      <trkpt lat="46.9246" lon="-0.64017">
        <ele>149</ele>
        <time>2016-04-24T09:35:55Z</time>
      </trkpt>
      <trkpt lat="46.92467" lon="-0.64036">
        <ele>148</ele>
        <time>2016-04-24T09:35:59Z</time>
      </trkpt>
      <trkpt lat="46.92474" lon="-0.64056">
        <ele>151</ele>
        <time>2016-04-24T09:36:03Z</time>
      </trkpt>
      <trkpt lat="46.92482" lon="-0.6408">
        <ele>147</ele>
        <time>2016-04-24T09:36:07Z</time>
      </trkpt>
      <trkpt lat="46.92487" lon="-0.64102">
        <ele>147</ele>
        <time>2016-04-24T09:36:11Z</time>
      </trkpt>
      <trkpt lat="46.92493" lon="-0.64122">
        <ele>148</ele>
        <time>2016-04-24T09:36:15Z</time>
      </trkpt>
      <trkpt lat="46.92499" lon="-0.64144">
        <ele>145</ele>
        <time>2016-04-24T09:36:19Z</time>
      </trkpt>
      <trkpt lat="46.92507" lon="-0.64167">
        <ele>145</ele>
        <time>2016-04-24T09:36:23Z</time>
      </trkpt>
      <trkpt lat="46.92513" lon="-0.64188">
        <ele>144</ele>
        <time>2016-04-24T09:36:27Z</time>
      </trkpt>
      <trkpt lat="46.92519" lon="-0.64211">
        <ele>145</ele>
        <time>2016-04-24T09:36:31Z</time>
      </trkpt>
      <trkpt lat="46.92525" lon="-0.64231">
        <ele>145</ele>
        <time>2016-04-24T09:36:35Z</time>
      </trkpt>
      <trkpt lat="46.9253" lon="-0.64252">
        <ele>145</ele>
        <time>2016-04-24T09:36:39Z</time>
      </trkpt>
      <trkpt lat="46.92537" lon="-0.64275">
        <ele>145</ele>
        <time>2016-04-24T09:36:43Z</time>
      </trkpt>
      <trkpt lat="46.92544" lon="-0.64297">
        <ele>145</ele>
        <time>2016-04-24T09:36:47Z</time>
      </trkpt>
      <trkpt lat="46.92552" lon="-0.64315">
        <ele>146</ele>
        <time>2016-04-24T09:36:51Z</time>
      </trkpt>
      <trkpt lat="46.92565" lon="-0.64319">
        <ele>148</ele>
        <time>2016-04-24T09:36:55Z</time>
      </trkpt>
      <trkpt lat="46.92588" lon="-0.64314">
        <ele>148</ele>
        <time>2016-04-24T09:37:00Z</time>
      </trkpt>
      <trkpt lat="46.92602" lon="-0.64309">
        <ele>149</ele>
        <time>2016-04-24T09:37:03Z</time>
      </trkpt>
      <trkpt lat="46.92624" lon="-0.64297">
        <ele>150</ele>
        <time>2016-04-24T09:37:08Z</time>
      </trkpt>
      <trkpt lat="46.92647" lon="-0.64282">
        <ele>151</ele>
        <time>2016-04-24T09:37:13Z</time>
      </trkpt>
      <trkpt lat="46.92664" lon="-0.64272">
        <ele>152</ele>
        <time>2016-04-24T09:37:17Z</time>
      </trkpt>
      <trkpt lat="46.92681" lon="-0.64265">
        <ele>157</ele>
        <time>2016-04-24T09:37:21Z</time>
      </trkpt>
      <trkpt lat="46.92706" lon="-0.64269">
        <ele>156</ele>
        <time>2016-04-24T09:37:26Z</time>
      </trkpt>
      <trkpt lat="46.92726" lon="-0.6428">
        <ele>155</ele>
        <time>2016-04-24T09:37:30Z</time>
      </trkpt>
      <trkpt lat="46.92742" lon="-0.64293">
        <ele>157</ele>
        <time>2016-04-24T09:37:34Z</time>
      </trkpt>
      <trkpt lat="46.92757" lon="-0.64305">
        <ele>161</ele>
        <time>2016-04-24T09:37:38Z</time>
      </trkpt>
      <trkpt lat="46.92772" lon="-0.64318">
        <ele>160</ele>
        <time>2016-04-24T09:37:42Z</time>
      </trkpt>
      <trkpt lat="46.92789" lon="-0.64334">
        <ele>161</ele>
        <time>2016-04-24T09:37:46Z</time>
      </trkpt>
      <trkpt lat="46.92804" lon="-0.6435">
        <ele>157</ele>
        <time>2016-04-24T09:37:50Z</time>
      </trkpt>
      <trkpt lat="46.92825" lon="-0.6437">
        <ele>151</ele>
        <time>2016-04-24T09:37:54Z</time>
      </trkpt>
      <trkpt lat="46.92846" lon="-0.64394">
        <ele>151</ele>
        <time>2016-04-24T09:37:58Z</time>
      </trkpt>
      <trkpt lat="46.92863" lon="-0.64414">
        <ele>153</ele>
        <time>2016-04-24T09:38:02Z</time>
      </trkpt>
      <trkpt lat="46.92877" lon="-0.6445">
        <ele>153</ele>
        <time>2016-04-24T09:38:06Z</time>
      </trkpt>
      <trkpt lat="46.92887" lon="-0.64488">
        <ele>154</ele>
        <time>2016-04-24T09:38:10Z</time>
      </trkpt>
      <trkpt lat="46.92874" lon="-0.64525">
        <ele>151</ele>
        <time>2016-04-24T09:38:14Z</time>
      </trkpt>
      <trkpt lat="46.92869" lon="-0.64566">
        <ele>148</ele>
        <time>2016-04-24T09:38:18Z</time>
      </trkpt>
      <trkpt lat="46.92891" lon="-0.64596">
        <ele>152</ele>
        <time>2016-04-24T09:38:23Z</time>
      </trkpt>
      <trkpt lat="46.9291" lon="-0.64619">
        <ele>155</ele>
        <time>2016-04-24T09:38:27Z</time>
      </trkpt>
      <trkpt lat="46.92926" lon="-0.64638">
        <ele>155</ele>
        <time>2016-04-24T09:38:31Z</time>
      </trkpt>
      <trkpt lat="46.92942" lon="-0.64657">
        <ele>155</ele>
        <time>2016-04-24T09:38:35Z</time>
      </trkpt>
      <trkpt lat="46.92956" lon="-0.64677">
        <ele>155</ele>
        <time>2016-04-24T09:38:39Z</time>
      </trkpt>
      <trkpt lat="46.92969" lon="-0.64692">
        <ele>155</ele>
        <time>2016-04-24T09:38:43Z</time>
      </trkpt>
      <trkpt lat="46.92981" lon="-0.64707">
        <ele>157</ele>
        <time>2016-04-24T09:38:47Z</time>
      </trkpt>
      <trkpt lat="46.92993" lon="-0.64721">
        <ele>157</ele>
        <time>2016-04-24T09:38:51Z</time>
      </trkpt>
      <trkpt lat="46.93002" lon="-0.64734">
        <ele>160</ele>
        <time>2016-04-24T09:38:55Z</time>
      </trkpt>
      <trkpt lat="46.93014" lon="-0.64747">
        <ele>161</ele>
        <time>2016-04-24T09:38:59Z</time>
      </trkpt>
      <trkpt lat="46.93024" lon="-0.64759">
        <ele>161</ele>
        <time>2016-04-24T09:39:03Z</time>
      </trkpt>
      <trkpt lat="46.93034" lon="-0.64772">
        <ele>164</ele>
        <time>2016-04-24T09:39:07Z</time>
      </trkpt>
      <trkpt lat="46.93044" lon="-0.64784">
        <ele>168</ele>
        <time>2016-04-24T09:39:11Z</time>
      </trkpt>
      <trkpt lat="46.93053" lon="-0.64796">
        <ele>168</ele>
        <time>2016-04-24T09:39:15Z</time>
      </trkpt>
      <trkpt lat="46.93063" lon="-0.64807">
        <ele>169</ele>
        <time>2016-04-24T09:39:19Z</time>
      </trkpt>
      <trkpt lat="46.93073" lon="-0.64818">
        <ele>169</ele>
        <time>2016-04-24T09:39:23Z</time>
      </trkpt>
      <trkpt lat="46.93081" lon="-0.64828">
        <ele>171</ele>
        <time>2016-04-24T09:39:27Z</time>
      </trkpt>
      <trkpt lat="46.93089" lon="-0.64839">
        <ele>172</ele>
        <time>2016-04-24T09:39:31Z</time>
      </trkpt>
      <trkpt lat="46.93097" lon="-0.64847">
        <ele>175</ele>
        <time>2016-04-24T09:39:35Z</time>
      </trkpt>
      <trkpt lat="46.93109" lon="-0.64851">
        <ele>177</ele>
        <time>2016-04-24T09:39:39Z</time>
      </trkpt>
      <trkpt lat="46.93119" lon="-0.64852">
        <ele>178</ele>
        <time>2016-04-24T09:39:42Z</time>
      </trkpt>
      <trkpt lat="46.93132" lon="-0.64859">
        <ele>178</ele>
        <time>2016-04-24T09:39:46Z</time>
      </trkpt>
      <trkpt lat="46.9314" lon="-0.6487">
        <ele>178</ele>
        <time>2016-04-24T09:39:50Z</time>
      </trkpt>
      <trkpt lat="46.93149" lon="-0.64886">
        <ele>178</ele>
        <time>2016-04-24T09:39:54Z</time>
      </trkpt>
      <trkpt lat="46.93157" lon="-0.64898">
        <ele>176</ele>
        <time>2016-04-24T09:39:58Z</time>
      </trkpt>
      <trkpt lat="46.93171" lon="-0.64909">
        <ele>175</ele>
        <time>2016-04-24T09:40:02Z</time>
      </trkpt>
      <trkpt lat="46.93184" lon="-0.64914">
        <ele>173</ele>
        <time>2016-04-24T09:40:06Z</time>
      </trkpt>
      <trkpt lat="46.93201" lon="-0.6492">
        <ele>172</ele>
        <time>2016-04-24T09:40:11Z</time>
      </trkpt>
      <trkpt lat="46.93214" lon="-0.64926">
        <ele>174</ele>
        <time>2016-04-24T09:40:15Z</time>
      </trkpt>
      <trkpt lat="46.93228" lon="-0.64935">
        <ele>177</ele>
        <time>2016-04-24T09:40:19Z</time>
      </trkpt>
      <trkpt lat="46.93243" lon="-0.64944">
        <ele>176</ele>
        <time>2016-04-24T09:40:23Z</time>
      </trkpt>
      <trkpt lat="46.93256" lon="-0.64957">
        <ele>176</ele>
        <time>2016-04-24T09:40:27Z</time>
      </trkpt>
      <trkpt lat="46.93271" lon="-0.64972">
        <ele>175</ele>
        <time>2016-04-24T09:40:32Z</time>
      </trkpt>
      <trkpt lat="46.93278" lon="-0.64981">
        <ele>176</ele>
        <time>2016-04-24T09:40:35Z</time>
      </trkpt>
      <trkpt lat="46.93289" lon="-0.64993">
        <ele>175</ele>
        <time>2016-04-24T09:40:39Z</time>
      </trkpt>
      <trkpt lat="46.93301" lon="-0.65008">
        <ele>176</ele>
        <time>2016-04-24T09:40:44Z</time>
      </trkpt>
      <trkpt lat="46.93311" lon="-0.65017">
        <ele>177</ele>
        <time>2016-04-24T09:40:48Z</time>
      </trkpt>
      <trkpt lat="46.93325" lon="-0.65031">
        <ele>178</ele>
        <time>2016-04-24T09:40:53Z</time>
      </trkpt>
      <trkpt lat="46.93334" lon="-0.65042">
        <ele>177</ele>
        <time>2016-04-24T09:40:57Z</time>
      </trkpt>
      <trkpt lat="46.93344" lon="-0.65053">
        <ele>177</ele>
        <time>2016-04-24T09:41:01Z</time>
      </trkpt>
      <trkpt lat="46.93354" lon="-0.65066">
        <ele>176</ele>
        <time>2016-04-24T09:41:05Z</time>
      </trkpt>
      <trkpt lat="46.93366" lon="-0.6508">
        <ele>175</ele>
        <time>2016-04-24T09:41:09Z</time>
      </trkpt>
      <trkpt lat="46.93379" lon="-0.65093">
        <ele>176</ele>
        <time>2016-04-24T09:41:13Z</time>
      </trkpt>
      <trkpt lat="46.93394" lon="-0.6511">
        <ele>174</ele>
        <time>2016-04-24T09:41:17Z</time>
      </trkpt>
      <trkpt lat="46.93405" lon="-0.65122">
        <ele>175</ele>
        <time>2016-04-24T09:41:21Z</time>
      </trkpt>
      <trkpt lat="46.93415" lon="-0.65134">
        <ele>176</ele>
        <time>2016-04-24T09:41:25Z</time>
      </trkpt>
      <trkpt lat="46.93418" lon="-0.65153">
        <ele>177</ele>
        <time>2016-04-24T09:41:29Z</time>
      </trkpt>
      <trkpt lat="46.93426" lon="-0.65161">
        <ele>175</ele>
        <time>2016-04-24T09:41:33Z</time>
      </trkpt>
      <trkpt lat="46.93434" lon="-0.65142">
        <ele>175</ele>
        <time>2016-04-24T09:41:37Z</time>
      </trkpt>
      <trkpt lat="46.93442" lon="-0.65104">
        <ele>172</ele>
        <time>2016-04-24T09:41:42Z</time>
      </trkpt>
      <trkpt lat="46.93453" lon="-0.65062">
        <ele>170</ele>
        <time>2016-04-24T09:41:47Z</time>
      </trkpt>
      <trkpt lat="46.93466" lon="-0.65028">
        <ele>168</ele>
        <time>2016-04-24T09:41:51Z</time>
      </trkpt>
      <trkpt lat="46.93482" lon="-0.64993">
        <ele>168</ele>
        <time>2016-04-24T09:41:55Z</time>
      </trkpt>
      <trkpt lat="46.935" lon="-0.64961">
        <ele>168</ele>
        <time>2016-04-24T09:41:59Z</time>
      </trkpt>
      <trkpt lat="46.93524" lon="-0.64919">
        <ele>169</ele>
        <time>2016-04-24T09:42:04Z</time>
      </trkpt>
      <trkpt lat="46.93549" lon="-0.64866">
        <ele>167</ele>
        <time>2016-04-24T09:42:09Z</time>
      </trkpt>
      <trkpt lat="46.93565" lon="-0.64815">
        <ele>163</ele>
        <time>2016-04-24T09:42:13Z</time>
      </trkpt>
      <trkpt lat="46.93582" lon="-0.64768">
        <ele>160</ele>
        <time>2016-04-24T09:42:17Z</time>
      </trkpt>
      <trkpt lat="46.93597" lon="-0.64727">
        <ele>161</ele>
        <time>2016-04-24T09:42:21Z</time>
      </trkpt>
      <trkpt lat="46.93619" lon="-0.6467">
        <ele>158</ele>
        <time>2016-04-24T09:42:26Z</time>
      </trkpt>
      <trkpt lat="46.93636" lon="-0.64628">
        <ele>158</ele>
        <time>2016-04-24T09:42:30Z</time>
      </trkpt>
      <trkpt lat="46.93654" lon="-0.64586">
        <ele>154</ele>
        <time>2016-04-24T09:42:34Z</time>
      </trkpt>
      <trkpt lat="46.93671" lon="-0.64546">
        <ele>153</ele>
        <time>2016-04-24T09:42:38Z</time>
      </trkpt>
      <trkpt lat="46.93684" lon="-0.64507">
        <ele>155</ele>
        <time>2016-04-24T09:42:42Z</time>
      </trkpt>
      <trkpt lat="46.93698" lon="-0.64468">
        <ele>155</ele>
        <time>2016-04-24T09:42:46Z</time>
      </trkpt>
      <trkpt lat="46.93715" lon="-0.6442">
        <ele>156</ele>
        <time>2016-04-24T09:42:51Z</time>
      </trkpt>
      <trkpt lat="46.93723" lon="-0.6437">
        <ele>159</ele>
        <time>2016-04-24T09:42:56Z</time>
      </trkpt>
      <trkpt lat="46.93729" lon="-0.64326">
        <ele>156</ele>
        <time>2016-04-24T09:43:00Z</time>
      </trkpt>
      <trkpt lat="46.93735" lon="-0.64284">
        <ele>155</ele>
        <time>2016-04-24T09:43:04Z</time>
      </trkpt>
      <trkpt lat="46.93746" lon="-0.64234">
        <ele>155</ele>
        <time>2016-04-24T09:43:09Z</time>
      </trkpt>
      <trkpt lat="46.93757" lon="-0.64183">
        <ele>154</ele>
        <time>2016-04-24T09:43:14Z</time>
      </trkpt>
      <trkpt lat="46.93765" lon="-0.64146">
        <ele>154</ele>
        <time>2016-04-24T09:43:18Z</time>
      </trkpt>
      <trkpt lat="46.93778" lon="-0.64111">
        <ele>153</ele>
        <time>2016-04-24T09:43:22Z</time>
      </trkpt>
      <trkpt lat="46.9379" lon="-0.64074">
        <ele>155</ele>
        <time>2016-04-24T09:43:26Z</time>
      </trkpt>
      <trkpt lat="46.93799" lon="-0.64038">
        <ele>154</ele>
        <time>2016-04-24T09:43:30Z</time>
      </trkpt>
      <trkpt lat="46.93808" lon="-0.64">
        <ele>154</ele>
        <time>2016-04-24T09:43:34Z</time>
      </trkpt>
      <trkpt lat="46.93814" lon="-0.63961">
        <ele>152</ele>
        <time>2016-04-24T09:43:38Z</time>
      </trkpt>
      <trkpt lat="46.9382" lon="-0.63924">
        <ele>152</ele>
        <time>2016-04-24T09:43:42Z</time>
      </trkpt>
      <trkpt lat="46.93827" lon="-0.63888">
        <ele>151</ele>
        <time>2016-04-24T09:43:46Z</time>
      </trkpt>
      <trkpt lat="46.93831" lon="-0.63853">
        <ele>151</ele>
        <time>2016-04-24T09:43:50Z</time>
      </trkpt>
      <trkpt lat="46.93835" lon="-0.6382">
        <ele>152</ele>
        <time>2016-04-24T09:43:54Z</time>
      </trkpt>
      <trkpt lat="46.93842" lon="-0.63788">
        <ele>153</ele>
        <time>2016-04-24T09:43:58Z</time>
      </trkpt>
      <trkpt lat="46.93848" lon="-0.63753">
        <ele>153</ele>
        <time>2016-04-24T09:44:02Z</time>
      </trkpt>
      <trkpt lat="46.93853" lon="-0.63717">
        <ele>153</ele>
        <time>2016-04-24T09:44:06Z</time>
      </trkpt>
      <trkpt lat="46.93859" lon="-0.63678">
        <ele>151</ele>
        <time>2016-04-24T09:44:10Z</time>
      </trkpt>
      <trkpt lat="46.93864" lon="-0.63643">
        <ele>150</ele>
        <time>2016-04-24T09:44:14Z</time>
      </trkpt>
      <trkpt lat="46.93867" lon="-0.63607">
        <ele>152</ele>
        <time>2016-04-24T09:44:18Z</time>
      </trkpt>
      <trkpt lat="46.93874" lon="-0.63571">
        <ele>153</ele>
        <time>2016-04-24T09:44:22Z</time>
      </trkpt>
      <trkpt lat="46.93884" lon="-0.63537">
        <ele>152</ele>
        <time>2016-04-24T09:44:26Z</time>
      </trkpt>
      <trkpt lat="46.93888" lon="-0.63501">
        <ele>151</ele>
        <time>2016-04-24T09:44:30Z</time>
      </trkpt>
      <trkpt lat="46.93883" lon="-0.63468">
        <ele>149</ele>
        <time>2016-04-24T09:44:34Z</time>
      </trkpt>
      <trkpt lat="46.93878" lon="-0.63435">
        <ele>148</ele>
        <time>2016-04-24T09:44:38Z</time>
      </trkpt>
      <trkpt lat="46.93877" lon="-0.63403">
        <ele>149</ele>
        <time>2016-04-24T09:44:42Z</time>
      </trkpt>
      <trkpt lat="46.93879" lon="-0.63367">
        <ele>146</ele>
        <time>2016-04-24T09:44:46Z</time>
      </trkpt>
      <trkpt lat="46.93884" lon="-0.63325">
        <ele>145</ele>
        <time>2016-04-24T09:44:50Z</time>
      </trkpt>
      <trkpt lat="46.93889" lon="-0.6329">
        <ele>146</ele>
        <time>2016-04-24T09:44:54Z</time>
      </trkpt>
      <trkpt lat="46.93895" lon="-0.63259">
        <ele>147</ele>
        <time>2016-04-24T09:44:58Z</time>
      </trkpt>
      <trkpt lat="46.93902" lon="-0.63229">
        <ele>149</ele>
        <time>2016-04-24T09:45:02Z</time>
      </trkpt>
      <trkpt lat="46.93903" lon="-0.63194">
        <ele>147</ele>
        <time>2016-04-24T09:45:06Z</time>
      </trkpt>
      <trkpt lat="46.9391" lon="-0.6315">
        <ele>145</ele>
        <time>2016-04-24T09:45:11Z</time>
      </trkpt>
      <trkpt lat="46.93916" lon="-0.6311">
        <ele>146</ele>
        <time>2016-04-24T09:45:15Z</time>
      </trkpt>
      <trkpt lat="46.93926" lon="-0.63067">
        <ele>143</ele>
        <time>2016-04-24T09:45:19Z</time>
      </trkpt>
      <trkpt lat="46.93932" lon="-0.63034">
        <ele>141</ele>
        <time>2016-04-24T09:45:23Z</time>
      </trkpt>
      <trkpt lat="46.9394" lon="-0.62996">
        <ele>143</ele>
        <time>2016-04-24T09:45:27Z</time>
      </trkpt>
      <trkpt lat="46.93951" lon="-0.62948">
        <ele>144</ele>
        <time>2016-04-24T09:45:32Z</time>
      </trkpt>
      <trkpt lat="46.93961" lon="-0.62912">
        <ele>145</ele>
        <time>2016-04-24T09:45:36Z</time>
      </trkpt>
      <trkpt lat="46.93971" lon="-0.6288">
        <ele>144</ele>
        <time>2016-04-24T09:45:40Z</time>
      </trkpt>
      <trkpt lat="46.93981" lon="-0.62849">
        <ele>144</ele>
        <time>2016-04-24T09:45:44Z</time>
      </trkpt>
      <trkpt lat="46.93992" lon="-0.62809">
        <ele>143</ele>
        <time>2016-04-24T09:45:49Z</time>
      </trkpt>
      <trkpt lat="46.93999" lon="-0.62779">
        <ele>142</ele>
        <time>2016-04-24T09:45:53Z</time>
      </trkpt>
      <trkpt lat="46.94003" lon="-0.62753">
        <ele>142</ele>
        <time>2016-04-24T09:45:57Z</time>
      </trkpt>
      <trkpt lat="46.94012" lon="-0.62723">
        <ele>144</ele>
        <time>2016-04-24T09:46:01Z</time>
      </trkpt>
      <trkpt lat="46.94019" lon="-0.62693">
        <ele>142</ele>
        <time>2016-04-24T09:46:05Z</time>
      </trkpt>
      <trkpt lat="46.94027" lon="-0.62661">
        <ele>140</ele>
        <time>2016-04-24T09:46:09Z</time>
      </trkpt>
      <trkpt lat="46.94031" lon="-0.62624">
        <ele>142</ele>
        <time>2016-04-24T09:46:13Z</time>
      </trkpt>
      <trkpt lat="46.94041" lon="-0.62592">
        <ele>141</ele>
        <time>2016-04-24T09:46:17Z</time>
      </trkpt>
      <trkpt lat="46.94053" lon="-0.62559">
        <ele>142</ele>
        <time>2016-04-24T09:46:21Z</time>
      </trkpt>
      <trkpt lat="46.94061" lon="-0.6253">
        <ele>141</ele>
        <time>2016-04-24T09:46:25Z</time>
      </trkpt>
      <trkpt lat="46.94075" lon="-0.62503">
        <ele>140</ele>
        <time>2016-04-24T09:46:29Z</time>
      </trkpt>
      <trkpt lat="46.94087" lon="-0.62479">
        <ele>142</ele>
        <time>2016-04-24T09:46:33Z</time>
      </trkpt>
      <trkpt lat="46.94099" lon="-0.62456">
        <ele>144</ele>
        <time>2016-04-24T09:46:37Z</time>
      </trkpt>
      <trkpt lat="46.94114" lon="-0.62429">
        <ele>143</ele>
        <time>2016-04-24T09:46:41Z</time>
      </trkpt>
      <trkpt lat="46.94126" lon="-0.62403">
        <ele>144</ele>
        <time>2016-04-24T09:46:45Z</time>
      </trkpt>
      <trkpt lat="46.94136" lon="-0.62377">
        <ele>144</ele>
        <time>2016-04-24T09:46:49Z</time>
      </trkpt>
      <trkpt lat="46.94146" lon="-0.62353">
        <ele>144</ele>
        <time>2016-04-24T09:46:53Z</time>
      </trkpt>
      <trkpt lat="46.94156" lon="-0.62328">
        <ele>144</ele>
        <time>2016-04-24T09:46:57Z</time>
      </trkpt>
      <trkpt lat="46.94166" lon="-0.62302">
        <ele>143</ele>
        <time>2016-04-24T09:47:01Z</time>
      </trkpt>
      <trkpt lat="46.94176" lon="-0.62275">
        <ele>143</ele>
        <time>2016-04-24T09:47:05Z</time>
      </trkpt>
      <trkpt lat="46.94192" lon="-0.62246">
        <ele>142</ele>
        <time>2016-04-24T09:47:10Z</time>
      </trkpt>
      <trkpt lat="46.94212" lon="-0.62219">
        <ele>144</ele>
        <time>2016-04-24T09:47:15Z</time>
      </trkpt>
      <trkpt lat="46.94233" lon="-0.62189">
        <ele>144</ele>
        <time>2016-04-24T09:47:19Z</time>
      </trkpt>
      <trkpt lat="46.94258" lon="-0.62151">
        <ele>143</ele>
        <time>2016-04-24T09:47:24Z</time>
      </trkpt>
      <trkpt lat="46.94276" lon="-0.62125">
        <ele>142</ele>
        <time>2016-04-24T09:47:28Z</time>
      </trkpt>
      <trkpt lat="46.94292" lon="-0.62093">
        <ele>139</ele>
        <time>2016-04-24T09:47:32Z</time>
      </trkpt>
      <trkpt lat="46.94311" lon="-0.62064">
        <ele>139</ele>
        <time>2016-04-24T09:47:36Z</time>
      </trkpt>
      <trkpt lat="46.94329" lon="-0.6203">
        <ele>140</ele>
        <time>2016-04-24T09:47:40Z</time>
      </trkpt>
      <trkpt lat="46.94344" lon="-0.61998">
        <ele>139</ele>
        <time>2016-04-24T09:47:44Z</time>
      </trkpt>
      <trkpt lat="46.94362" lon="-0.61952">
        <ele>143</ele>
        <time>2016-04-24T09:47:49Z</time>
      </trkpt>
      <trkpt lat="46.9437" lon="-0.61925">
        <ele>141</ele>
        <time>2016-04-24T09:47:52Z</time>
      </trkpt>
      <trkpt lat="46.94376" lon="-0.61903">
        <ele>146</ele>
        <time>2016-04-24T09:47:56Z</time>
      </trkpt>
      <trkpt lat="46.94383" lon="-0.61875">
        <ele>141</ele>
        <time>2016-04-24T09:48:00Z</time>
      </trkpt>
      <trkpt lat="46.94388" lon="-0.61847">
        <ele>141</ele>
        <time>2016-04-24T09:48:04Z</time>
      </trkpt>
      <trkpt lat="46.94395" lon="-0.61815">
        <ele>138</ele>
        <time>2016-04-24T09:48:08Z</time>
      </trkpt>
      <trkpt lat="46.94396" lon="-0.61786">
        <ele>137</ele>
        <time>2016-04-24T09:48:12Z</time>
      </trkpt>
      <trkpt lat="46.944" lon="-0.61757">
        <ele>139</ele>
        <time>2016-04-24T09:48:16Z</time>
      </trkpt>
      <trkpt lat="46.94406" lon="-0.61739">
        <ele>139</ele>
        <time>2016-04-24T09:48:20Z</time>
      </trkpt>
      <trkpt lat="46.9441" lon="-0.61725">
        <ele>139</ele>
        <time>2016-04-24T09:48:24Z</time>
      </trkpt>
      <trkpt lat="46.94412" lon="-0.61704">
        <ele>141</ele>
        <time>2016-04-24T09:48:28Z</time>
      </trkpt>
      <trkpt lat="46.94414" lon="-0.61692">
        <ele>139</ele>
        <time>2016-04-24T09:48:33Z</time>
      </trkpt>
      <trkpt lat="46.94417" lon="-0.61681">
        <ele>138</ele>
        <time>2016-04-24T09:48:39Z</time>
      </trkpt>
      <trkpt lat="46.94423" lon="-0.61674">
        <ele>137</ele>
        <time>2016-04-24T09:48:43Z</time>
      </trkpt>
      <trkpt lat="46.94423" lon="-0.61648">
        <ele>136</ele>
        <time>2016-04-24T09:48:48Z</time>
      </trkpt>
      <trkpt lat="46.94423" lon="-0.61622">
        <ele>137</ele>
        <time>2016-04-24T09:48:52Z</time>
      </trkpt>
      <trkpt lat="46.94424" lon="-0.61598">
        <ele>138</ele>
        <time>2016-04-24T09:48:56Z</time>
      </trkpt>
      <trkpt lat="46.94423" lon="-0.61568">
        <ele>138</ele>
        <time>2016-04-24T09:49:00Z</time>
      </trkpt>
      <trkpt lat="46.94421" lon="-0.6153">
        <ele>134</ele>
        <time>2016-04-24T09:49:04Z</time>
      </trkpt>
      <trkpt lat="46.94416" lon="-0.61501">
        <ele>132</ele>
        <time>2016-04-24T09:49:08Z</time>
      </trkpt>
      <trkpt lat="46.94411" lon="-0.61476">
        <ele>131</ele>
        <time>2016-04-24T09:49:12Z</time>
      </trkpt>
      <trkpt lat="46.94407" lon="-0.61449">
        <ele>131</ele>
        <time>2016-04-24T09:49:16Z</time>
      </trkpt>
      <trkpt lat="46.94402" lon="-0.61418">
        <ele>131</ele>
        <time>2016-04-24T09:49:20Z</time>
      </trkpt>
      <trkpt lat="46.94394" lon="-0.61376">
        <ele>131</ele>
        <time>2016-04-24T09:49:25Z</time>
      </trkpt>
      <trkpt lat="46.94387" lon="-0.6134">
        <ele>127</ele>
        <time>2016-04-24T09:49:29Z</time>
      </trkpt>
      <trkpt lat="46.94383" lon="-0.6131">
        <ele>127</ele>
        <time>2016-04-24T09:49:33Z</time>
      </trkpt>
      <trkpt lat="46.94375" lon="-0.61275">
        <ele>124</ele>
        <time>2016-04-24T09:49:37Z</time>
      </trkpt>
      <trkpt lat="46.94369" lon="-0.6125">
        <ele>126</ele>
        <time>2016-04-24T09:49:41Z</time>
      </trkpt>
      <trkpt lat="46.94366" lon="-0.61231">
        <ele>126</ele>
        <time>2016-04-24T09:49:45Z</time>
      </trkpt>
      <trkpt lat="46.94362" lon="-0.61223">
        <ele>127</ele>
        <time>2016-04-24T09:49:50Z</time>
      </trkpt>
      <trkpt lat="46.94356" lon="-0.61202">
        <ele>129</ele>
        <time>2016-04-24T09:49:54Z</time>
      </trkpt>
      <trkpt lat="46.94349" lon="-0.6117">
        <ele>128</ele>
        <time>2016-04-24T09:49:59Z</time>
      </trkpt>
      <trkpt lat="46.94346" lon="-0.61142">
        <ele>130</ele>
        <time>2016-04-24T09:50:03Z</time>
      </trkpt>
      <trkpt lat="46.94344" lon="-0.61114">
        <ele>128</ele>
        <time>2016-04-24T09:50:07Z</time>
      </trkpt>
      <trkpt lat="46.94342" lon="-0.61081">
        <ele>129</ele>
        <time>2016-04-24T09:50:12Z</time>
      </trkpt>
      <trkpt lat="46.94341" lon="-0.61046">
        <ele>128</ele>
        <time>2016-04-24T09:50:16Z</time>
      </trkpt>
      <trkpt lat="46.94339" lon="-0.61007">
        <ele>126</ele>
        <time>2016-04-24T09:50:20Z</time>
      </trkpt>
      <trkpt lat="46.94338" lon="-0.60971">
        <ele>128</ele>
        <time>2016-04-24T09:50:24Z</time>
      </trkpt>
      <trkpt lat="46.9434" lon="-0.60953">
        <ele>132</ele>
        <time>2016-04-24T09:50:28Z</time>
      </trkpt>
      <trkpt lat="46.94343" lon="-0.6094">
        <ele>135</ele>
        <time>2016-04-24T09:50:33Z</time>
      </trkpt>
      <trkpt lat="46.94344" lon="-0.60916">
        <ele>136</ele>
        <time>2016-04-24T09:50:37Z</time>
      </trkpt>
      <trkpt lat="46.94349" lon="-0.60879">
        <ele>133</ele>
        <time>2016-04-24T09:50:41Z</time>
      </trkpt>
      <trkpt lat="46.94349" lon="-0.60848">
        <ele>133</ele>
        <time>2016-04-24T09:50:45Z</time>
      </trkpt>
      <trkpt lat="46.94351" lon="-0.60814">
        <ele>131</ele>
        <time>2016-04-24T09:50:49Z</time>
      </trkpt>
      <trkpt lat="46.94353" lon="-0.60784">
        <ele>132</ele>
        <time>2016-04-24T09:50:53Z</time>
      </trkpt>
      <trkpt lat="46.94355" lon="-0.60749">
        <ele>130</ele>
        <time>2016-04-24T09:50:57Z</time>
      </trkpt>
      <trkpt lat="46.94356" lon="-0.60724">
        <ele>129</ele>
        <time>2016-04-24T09:51:01Z</time>
      </trkpt>
      <trkpt lat="46.94358" lon="-0.607">
        <ele>132</ele>
        <time>2016-04-24T09:51:05Z</time>
      </trkpt>
      <trkpt lat="46.94358" lon="-0.60682">
        <ele>131</ele>
        <time>2016-04-24T09:51:09Z</time>
      </trkpt>
      <trkpt lat="46.94356" lon="-0.60671">
        <ele>132</ele>
        <time>2016-04-24T09:51:13Z</time>
      </trkpt>
      <trkpt lat="46.94356" lon="-0.60657">
        <ele>131</ele>
        <time>2016-04-24T09:51:17Z</time>
      </trkpt>
      <trkpt lat="46.94354" lon="-0.60633">
        <ele>132</ele>
        <time>2016-04-24T09:51:21Z</time>
      </trkpt>
      <trkpt lat="46.94353" lon="-0.60604">
        <ele>129</ele>
        <time>2016-04-24T09:51:25Z</time>
      </trkpt>
      <trkpt lat="46.9435" lon="-0.60563">
        <ele>127</ele>
        <time>2016-04-24T09:51:30Z</time>
      </trkpt>
      <trkpt lat="46.94351" lon="-0.60547">
        <ele>129</ele>
        <time>2016-04-24T09:51:34Z</time>
      </trkpt>
      <trkpt lat="46.9435" lon="-0.6054">
        <ele>133</ele>
        <time>2016-04-24T09:51:39Z</time>
      </trkpt>
      <trkpt lat="46.9435" lon="-0.60525">
        <ele>137</ele>
        <time>2016-04-24T09:51:43Z</time>
      </trkpt>
      <trkpt lat="46.94349" lon="-0.60504">
        <ele>137</ele>
        <time>2016-04-24T09:51:47Z</time>
      </trkpt>
      <trkpt lat="46.94345" lon="-0.6047">
        <ele>133</ele>
        <time>2016-04-24T09:51:51Z</time>
      </trkpt>
      <trkpt lat="46.94341" lon="-0.60441">
        <ele>135</ele>
        <time>2016-04-24T09:51:55Z</time>
      </trkpt>
      <trkpt lat="46.94338" lon="-0.60405">
        <ele>132</ele>
        <time>2016-04-24T09:51:59Z</time>
      </trkpt>
      <trkpt lat="46.94332" lon="-0.60374">
        <ele>130</ele>
        <time>2016-04-24T09:52:03Z</time>
      </trkpt>
      <trkpt lat="46.94325" lon="-0.60344">
        <ele>127</ele>
        <time>2016-04-24T09:52:07Z</time>
      </trkpt>
      <trkpt lat="46.94319" lon="-0.60307">
        <ele>126</ele>
        <time>2016-04-24T09:52:12Z</time>
      </trkpt>
      <trkpt lat="46.94306" lon="-0.60266">
        <ele>120</ele>
        <time>2016-04-24T09:52:17Z</time>
      </trkpt>
      <trkpt lat="46.943" lon="-0.60237">
        <ele>120</ele>
        <time>2016-04-24T09:52:21Z</time>
      </trkpt>
      <trkpt lat="46.94296" lon="-0.60203">
        <ele>118</ele>
        <time>2016-04-24T09:52:26Z</time>
      </trkpt>
      <trkpt lat="46.9429" lon="-0.60181">
        <ele>119</ele>
        <time>2016-04-24T09:52:30Z</time>
      </trkpt>
      <trkpt lat="46.9429" lon="-0.6017">
        <ele>122</ele>
        <time>2016-04-24T09:52:35Z</time>
      </trkpt>
      <trkpt lat="46.94288" lon="-0.60152">
        <ele>130</ele>
        <time>2016-04-24T09:52:39Z</time>
      </trkpt>
      <trkpt lat="46.94283" lon="-0.60124">
        <ele>127</ele>
        <time>2016-04-24T09:52:43Z</time>
      </trkpt>
      <trkpt lat="46.94277" lon="-0.60102">
        <ele>130</ele>
        <time>2016-04-24T09:52:48Z</time>
      </trkpt>
      <trkpt lat="46.94274" lon="-0.60079">
        <ele>131</ele>
        <time>2016-04-24T09:52:52Z</time>
      </trkpt>
      <trkpt lat="46.94272" lon="-0.60051">
        <ele>129</ele>
        <time>2016-04-24T09:52:56Z</time>
      </trkpt>
      <trkpt lat="46.94263" lon="-0.60012">
        <ele>128</ele>
        <time>2016-04-24T09:53:01Z</time>
      </trkpt>
      <trkpt lat="46.94254" lon="-0.59982">
        <ele>125</ele>
        <time>2016-04-24T09:53:05Z</time>
      </trkpt>
      <trkpt lat="46.9425" lon="-0.59954">
        <ele>123</ele>
        <time>2016-04-24T09:53:09Z</time>
      </trkpt>
      <trkpt lat="46.94246" lon="-0.59941">
        <ele>126</ele>
        <time>2016-04-24T09:53:13Z</time>
      </trkpt>
      <trkpt lat="46.94243" lon="-0.59921">
        <ele>128</ele>
        <time>2016-04-24T09:53:18Z</time>
      </trkpt>
      <trkpt lat="46.94241" lon="-0.59901">
        <ele>128</ele>
        <time>2016-04-24T09:53:22Z</time>
      </trkpt>
      <trkpt lat="46.94237" lon="-0.5988">
        <ele>132</ele>
        <time>2016-04-24T09:53:26Z</time>
      </trkpt>
      <trkpt lat="46.94232" lon="-0.59859">
        <ele>133</ele>
        <time>2016-04-24T09:53:30Z</time>
      </trkpt>
      <trkpt lat="46.94225" lon="-0.59836">
        <ele>133</ele>
        <time>2016-04-24T09:53:35Z</time>
      </trkpt>
      <trkpt lat="46.94224" lon="-0.59811">
        <ele>133</ele>
        <time>2016-04-24T09:53:40Z</time>
      </trkpt>
      <trkpt lat="46.9422" lon="-0.59789">
        <ele>132</ele>
        <time>2016-04-24T09:53:44Z</time>
      </trkpt>
      <trkpt lat="46.94211" lon="-0.59761">
        <ele>131</ele>
        <time>2016-04-24T09:53:48Z</time>
      </trkpt>
      <trkpt lat="46.9421" lon="-0.59738">
        <ele>129</ele>
        <time>2016-04-24T09:53:53Z</time>
      </trkpt>
      <trkpt lat="46.94205" lon="-0.59723">
        <ele>131</ele>
        <time>2016-04-24T09:53:57Z</time>
      </trkpt>
      <trkpt lat="46.94194" lon="-0.59724">
        <ele>131</ele>
        <time>2016-04-24T09:54:01Z</time>
      </trkpt>
      <trkpt lat="46.94178" lon="-0.5974">
        <ele>131</ele>
        <time>2016-04-24T09:54:05Z</time>
      </trkpt>
      <trkpt lat="46.94158" lon="-0.59749">
        <ele>130</ele>
        <time>2016-04-24T09:54:09Z</time>
      </trkpt>
      <trkpt lat="46.94143" lon="-0.59751">
        <ele>128</ele>
        <time>2016-04-24T09:54:13Z</time>
      </trkpt>
      <trkpt lat="46.9413" lon="-0.59745">
        <ele>130</ele>
        <time>2016-04-24T09:54:17Z</time>
      </trkpt>
      <trkpt lat="46.94116" lon="-0.59742">
        <ele>129</ele>
        <time>2016-04-24T09:54:21Z</time>
      </trkpt>
      <trkpt lat="46.941" lon="-0.5974">
        <ele>129</ele>
        <time>2016-04-24T09:54:25Z</time>
      </trkpt>
      <trkpt lat="46.94084" lon="-0.59737">
        <ele>128</ele>
        <time>2016-04-24T09:54:29Z</time>
      </trkpt>
      <trkpt lat="46.94067" lon="-0.59735">
        <ele>127</ele>
        <time>2016-04-24T09:54:33Z</time>
      </trkpt>
      <trkpt lat="46.94051" lon="-0.59744">
        <ele>128</ele>
        <time>2016-04-24T09:54:37Z</time>
      </trkpt>
      <trkpt lat="46.94044" lon="-0.59768">
        <ele>125</ele>
        <time>2016-04-24T09:54:41Z</time>
      </trkpt>
      <trkpt lat="46.9405" lon="-0.59795">
        <ele>126</ele>
        <time>2016-04-24T09:54:45Z</time>
      </trkpt>
      <trkpt lat="46.94049" lon="-0.5983">
        <ele>125</ele>
        <time>2016-04-24T09:54:50Z</time>
      </trkpt>
      <trkpt lat="46.94048" lon="-0.59857">
        <ele>125</ele>
        <time>2016-04-24T09:54:54Z</time>
      </trkpt>
      <trkpt lat="46.94047" lon="-0.59883">
        <ele>124</ele>
        <time>2016-04-24T09:54:58Z</time>
      </trkpt>
      <trkpt lat="46.94042" lon="-0.59911">
        <ele>126</ele>
        <time>2016-04-24T09:55:02Z</time>
      </trkpt>
      <trkpt lat="46.94036" lon="-0.5994">
        <ele>125</ele>
        <time>2016-04-24T09:55:06Z</time>
      </trkpt>
      <trkpt lat="46.94033" lon="-0.5997">
        <ele>126</ele>
        <time>2016-04-24T09:55:11Z</time>
      </trkpt>
      <trkpt lat="46.94031" lon="-0.59988">
        <ele>127</ele>
        <time>2016-04-24T09:55:14Z</time>
      </trkpt>
      <trkpt lat="46.94027" lon="-0.60015">
        <ele>127</ele>
        <time>2016-04-24T09:55:18Z</time>
      </trkpt>
      <trkpt lat="46.94024" lon="-0.6004">
        <ele>127</ele>
        <time>2016-04-24T09:55:22Z</time>
      </trkpt>
      <trkpt lat="46.94022" lon="-0.60057">
        <ele>127</ele>
        <time>2016-04-24T09:55:26Z</time>
      </trkpt>
      <trkpt lat="46.94022" lon="-0.60074">
        <ele>128</ele>
        <time>2016-04-24T09:55:30Z</time>
      </trkpt>
      <trkpt lat="46.94021" lon="-0.60091">
        <ele>129</ele>
        <time>2016-04-24T09:55:34Z</time>
      </trkpt>
      <trkpt lat="46.9402" lon="-0.60112">
        <ele>129</ele>
        <time>2016-04-24T09:55:38Z</time>
      </trkpt>
      <trkpt lat="46.94019" lon="-0.60134">
        <ele>129</ele>
        <time>2016-04-24T09:55:42Z</time>
      </trkpt>
      <trkpt lat="46.94018" lon="-0.60154">
        <ele>130</ele>
        <time>2016-04-24T09:55:46Z</time>
      </trkpt>
      <trkpt lat="46.94014" lon="-0.60175">
        <ele>128</ele>
        <time>2016-04-24T09:55:50Z</time>
      </trkpt>
      <trkpt lat="46.94013" lon="-0.60199">
        <ele>129</ele>
        <time>2016-04-24T09:55:55Z</time>
      </trkpt>
      <trkpt lat="46.94012" lon="-0.60221">
        <ele>129</ele>
        <time>2016-04-24T09:55:59Z</time>
      </trkpt>
      <trkpt lat="46.94012" lon="-0.60244">
        <ele>129</ele>
        <time>2016-04-24T09:56:03Z</time>
      </trkpt>
      <trkpt lat="46.94015" lon="-0.60266">
        <ele>130</ele>
        <time>2016-04-24T09:56:07Z</time>
      </trkpt>
      <trkpt lat="46.94017" lon="-0.60287">
        <ele>129</ele>
        <time>2016-04-24T09:56:11Z</time>
      </trkpt>
      <trkpt lat="46.9402" lon="-0.60311">
        <ele>129</ele>
        <time>2016-04-24T09:56:15Z</time>
      </trkpt>
      <trkpt lat="46.94025" lon="-0.60331">
        <ele>131</ele>
        <time>2016-04-24T09:56:19Z</time>
      </trkpt>
      <trkpt lat="46.94027" lon="-0.60349">
        <ele>131</ele>
        <time>2016-04-24T09:56:23Z</time>
      </trkpt>
      <trkpt lat="46.9403" lon="-0.60367">
        <ele>132</ele>
        <time>2016-04-24T09:56:27Z</time>
      </trkpt>
      <trkpt lat="46.94034" lon="-0.60385">
        <ele>133</ele>
        <time>2016-04-24T09:56:32Z</time>
      </trkpt>
      <trkpt lat="46.94035" lon="-0.60397">
        <ele>133</ele>
        <time>2016-04-24T09:56:36Z</time>
      </trkpt>
      <trkpt lat="46.94027" lon="-0.60401">
        <ele>132</ele>
        <time>2016-04-24T09:57:04Z</time>
      </trkpt>
      <trkpt lat="46.94027" lon="-0.60405">
        <ele>133</ele>
        <time>2016-04-24T09:58:31Z</time>
      </trkpt>
      <trkpt lat="46.94027" lon="-0.60405">
        <ele>133</ele>
        <time>2016-04-24T09:58:31Z</time>
      </trkpt>
    </trkseg>
  </trk>
</gpx>